[[[{"header":{"parameterUnit":"kt","parameterCategory":2,"dx":1,"dy":1,"la1":29.285339999999998,"la2":30.599998999999997,"lo1":-89.70041500000002,"lo2":-87.6738589999976,"nx":112,"ny":82,"refTime":"2022-09-27T12:00:00:Z","depth":0,"parameterNumber":1,"parameterNumberName":"U-component_of_WINDS"},"data":[22.7845,22.7432,0.0,23.2487,23.3016,0.0,23.6739,0.0,0.0,0.0,0.0,0.0,0.0,0.0,0.0,0.0,0.0,0.0,0.0,24.3797,24.8257,25.6979,26.09,26.459,26.8786,26.9215,26.7637,26.3823,26.5311,26.457,26.0798,26.1455,26.2639,26.4176,26.5532,26.7153,26.8468,26.8468,26.8468,26.8426,27.0399,27.1802,27.2766,27.487,27.636,27.7149,27.7149,27.7149,27.7149,27.7149,27.7149,27.7149,27.7149,27.7149,27.7149,27.7149,27.7149,27.7149,27.7149,27.7149,27.7149,27.7149,27.7149,27.7149,27.7149,27.7149,27.7413,27.7763,27.7632,27.7413,27.7763,27.7895,27.8158,27.921,28.0131,28.127,28.32,28.3945,28.4602,28.5478,28.5741,28.5741,28.5741,28.4208,28.2498,28.1709,28.0262,27.8772,27.7413,27.8377,27.9561,28.0131,28.149,28.2674,28.3595,28.4997,28.5391,28.4339,28.3813,28.3463,28.2761,28.2498,28.263,28.3595,28.4252,28.4734,28.5741,28.4734,28.4734,28.5786,28.4208,28.4252,0.0,0.0,22.6669,23.1736,0.0,0.0,0.0,0.0,0.0,0.0,0.0,0.0,0.0,0.0,0.0,0.0,0.0,0.0,0.0,23.8305,24.164,24.9006,25.7383,26.338,26.607,26.7679,26.6495,26.1587,26.4916,26.5006,26.0099,26.1718,26.3165,26.4176,26.6058,26.7505,26.8468,26.8468,26.8468,26.8426,26.983,27.1319,27.2766,27.3861,27.5002,27.6448,27.6448,27.6448,27.6448,27.7018,27.7149,27.7149,27.7149,27.7149,27.7149,27.7149,27.7149,27.7149,27.7149,27.7149,27.7149,27.7149,27.7149,27.7149,27.7149,27.7149,27.7149,27.7149,27.7149,27.7149,27.7149,27.7149,27.7369,27.8421,27.8903,27.9868,28.1709,28.2893,28.3813,28.4734,28.5346,28.5741,28.5741,28.4208,28.2411,28.0876,27.9955,27.8772,27.7413,27.8026,27.8772,27.9342,28.0087,28.1446,28.3463,28.3945,28.4602,28.4997,28.4602,28.4252,28.355,28.3156,28.2893,28.2761,28.3813,28.4602,28.4997,28.4602,28.4734,28.5786,28.4734,28.4734,22.7432,0.0,0.0,23.0922,0.0,0.0,0.0,0.0,23.6444,0.0,0.0,0.0,0.0,0.0,0.0,0.0,0.0,0.0,0.0,23.5808,23.7894,23.9222,24.5697,25.3052,26.0902,26.558,26.5664,26.014,26.5006,26.5969,26.014,26.2639,26.4176,26.4176,26.6848,26.8468,26.8468,26.8468,26.8468,26.8426,26.9872,27.1319,27.2766,27.2766,27.3555,27.5002,27.5002,27.5002,27.5265,27.658,27.7149,27.7149,27.7149,27.7149,27.7149,27.7149,27.7149,27.7149,27.7149,27.7149,27.7149,27.7149,27.7149,27.7149,27.7149,27.7149,27.7149,27.7149,27.7149,27.7149,27.7149,27.7149,27.7149,27.7149,27.8114,27.9342,27.9298,28.1446,28.3419,28.3595,28.4602,28.5609,28.5609,28.3243,28.092,27.9561,27.9298,27.8772,27.7413,27.7237,27.7763,27.921,27.9342,28.0525,28.3156,28.2235,28.2103,28.3595,28.4997,28.5128,28.3858,28.4997,28.4339,28.1709,28.4208,28.4997,28.355,28.4997,28.5786,28.5741,28.5786,28.5609,22.5687,0.0,0.0,0.0,0.0,0.0,0.0,0.0,0.0,0.0,0.0,0.0,0.0,0.0,23.7374,23.6506,0.0,23.6219,23.6444,23.5343,23.6013,23.9355,24.0428,24.3977,25.1392,25.8189,26.0272,25.5406,26.1455,26.3124,25.8562,26.1981,26.4176,26.4176,26.6848,26.8468,26.8468,26.8468,26.8468,26.8468,26.882,26.9741,27.1188,27.1188,27.246,27.5002,27.5002,27.5659,27.658,27.6974,27.7149,27.7149,27.7149,27.7149,27.7149,27.7149,27.7149,27.7149,27.7149,27.7149,27.7149,27.7149,27.7149,27.7149,27.7149,27.7149,27.7149,27.7149,27.7149,27.7149,27.7149,27.7149,27.7149,27.7149,27.7544,27.7983,27.921,27.9955,28.092,28.184,28.2367,28.263,28.263,28.1007,27.9692,27.9298,27.9298,27.8772,27.7413,27.8158,27.8553,27.7763,27.8816,27.9736,28.0525,28.1051,28.2103,28.3595,28.4997,28.5478,28.5128,28.355,28.3287,28.4602,28.2191,28.2498,28.5128,28.4602,28.4734,28.5786,28.3682,28.3156,0.0,0.0,0.0,0.0,0.0,0.0,23.1853,0.0,23.5047,0.0,0.0,0.0,0.0,0.0,0.0,0.0,23.5808,23.5172,23.4412,23.3481,23.3653,23.6031,23.7315,24.0028,24.5296,25.4863,25.9088,25.5446,26.1324,26.3165,25.8694,26.1587,26.356,26.4176,26.6321,26.7942,26.8468,26.8468,26.8468,26.8468,26.8468,26.9215,27.0662,27.0004,27.0925,27.3117,27.3117,27.4124,27.5439,27.6054,27.658,27.7149,27.6623,27.658,27.7149,27.7149,27.7149,27.7149,27.7149,27.7149,27.7149,27.7149,27.7149,27.7149,27.7149,27.7149,27.7149,27.7149,27.7149,27.7149,27.7149,27.7149,27.7149,27.7149,27.7149,27.7369,27.8114,27.8947,27.9561,28.0525,28.1051,28.1051,27.9868,27.8947,27.8377,27.8377,27.8377,27.8158,27.7413,27.7895,27.8158,27.7237,27.7895,27.8684,27.9342,27.9473,28.0525,28.2674,28.3419,28.3945,28.3945,28.2367,28.1709,28.2059,28.092,28.1446,28.3945,28.3024,28.32,28.3769,28.1709,28.1314,0.0,0.0,0.0,0.0,22.1033,0.0,0.0,0.0,23.29,23.7902,0.0,23.7607,23.8538,0.0,0.0,23.4009,23.4412,23.4063,23.0573,23.0573,23.1133,23.1246,23.5046,23.8917,24.2246,25.3237,25.9516,25.7773,26.2639,26.3954,26.014,26.1192,26.2639,26.3954,26.5532,26.6848,26.8205,26.8468,26.8468,26.8468,26.8468,26.9083,27.0399,26.8952,26.9215,27.0619,27.0619,27.1408,27.294,27.4212,27.5659,27.6843,27.5703,27.5791,27.7018,27.7149,27.7149,27.7149,27.7149,27.7149,27.7149,27.7149,27.7149,27.7149,27.7149,27.7149,27.7149,27.7149,27.7149,27.7149,27.7149,27.7149,27.7149,27.7149,27.7149,27.7149,27.7149,27.8158,27.921,27.921,28.0131,28.0131,27.7632,27.7149,27.7149,27.7149,27.7149,27.7149,27.7149,27.7149,27.7149,27.7149,27.7149,27.7807,27.8903,27.7895,27.8333,28.1051,28.1314,28.149,28.1709,28.1446,28.0262,27.7807,27.9736,28.0876,28.1446,28.092,28.0657,28.0657,27.9473,27.9561,0.0,0.0,0.0,0.0,0.0,22.1964,0.0,0.0,0.0,23.5343,23.5343,23.4412,23.4815,23.4645,23.4179,23.366,23.3016,23.2085,23.1556,22.8944,22.7865,22.9584,23.0503,23.4386,24.2782,24.7023,25.1538,25.7135,25.9705,26.0625,25.9877,26.1192,26.2286,26.2376,26.5006,26.6453,26.6716,26.79,26.8468,26.8468,26.8468,26.86,26.882,26.86,26.9215,27.0619,27.0619,27.1408,27.2766,27.316,27.4081,27.5396,27.5265,27.5265,27.5659,27.6755,27.7149,27.7149,27.7149,27.7149,27.7149,27.7149,27.7149,27.7149,27.7149,27.7149,27.7149,27.7149,27.7149,27.7149,27.7149,27.7149,27.7149,27.7149,27.7149,27.7149,27.7149,27.7369,27.7632,27.7632,27.7763,27.7763,27.7237,27.7149,27.7149,27.7149,27.7149,27.7149,27.7149,27.7149,27.7149,27.7149,27.7149,27.7413,27.7632,27.7413,27.7939,27.9736,27.9692,28.0744,28.3024,28.2103,28.1314,28.0657,27.7763,27.8026,28.1446,27.8026,27.6142,27.6185,27.6054,27.658,21.6497,0.0,0.0,21.638,0.0,0.0,0.0,22.7432,22.9991,23.3893,23.4009,23.366,23.366,23.366,23.366,23.366,23.2497,23.1091,22.9229,22.7251,22.6066,22.5864,22.9945,23.4831,23.9895,24.6721,25.226,25.6165,25.8521,25.9877,25.9877,26.0494,26.1192,26.2023,26.4217,26.5491,26.6321,26.7637,26.8468,26.8468,26.8468,26.8468,26.8468,26.8468,26.882,26.9435,26.9435,27.0399,27.1539,27.1539,27.2108,27.2723,27.2723,27.3292,27.3949,27.4607,27.5396,27.6054,27.6054,27.6623,27.7149,27.7149,27.7149,27.7149,27.7149,27.7149,27.7149,27.7149,27.7149,27.7149,27.7149,27.7149,27.7149,27.7149,27.7149,27.7149,27.7149,27.7149,27.7149,27.7149,27.6097,27.487,27.487,27.487,27.5265,27.6054,27.5396,27.5265,27.6054,27.6054,27.6054,27.6054,27.6755,27.7018,27.6185,27.6755,27.7237,27.7237,27.8553,27.9736,28.0262,28.0262,28.0131,27.9342,27.6623,27.601,27.8158,27.3818,27.2503,27.3949,27.3949,27.4212,21.4984,21.5168,0.0,0.0,0.0,0.0,22.2946,22.5687,22.8427,23.1853,23.273,23.2846,23.2846,23.2846,23.2846,23.2846,23.2085,23.016,22.6605,22.6088,22.5862,22.5118,23.1887,23.7327,23.9662,24.9178,25.5669,25.576,25.8299,25.9877,25.9877,25.9877,26.0403,26.1628,26.3034,26.4307,26.5927,26.7242,26.8205,26.8468,26.8468,26.8468,26.8468,26.8468,26.8468,26.8468,26.8468,26.9083,27.0135,27.0135,27.0135,27.0267,27.0356,27.1319,27.2371,27.246,27.3555,27.4607,27.4607,27.5439,27.636,27.658,27.6755,27.6843,27.7149,27.7149,27.7149,27.7149,27.7149,27.7149,27.6843,27.6755,27.658,27.6492,27.636,27.636,27.636,27.636,27.636,27.636,27.4344,27.2766,27.2766,27.2766,27.316,27.4476,27.3555,27.316,27.4476,27.4607,27.4739,27.5002,27.6054,27.6448,27.5703,27.6185,27.6185,27.5133,27.7194,27.8158,27.7237,27.829,27.8553,27.7632,27.6185,27.5221,27.5002,27.0967,27.0046,27.1977,27.2503,27.2766,21.4421,21.4635,21.4819,21.5915,21.7145,0.0,22.1732,22.4291,22.6669,22.8246,22.9357,23.0171,23.0171,23.0171,23.0171,23.0171,23.0108,22.9008,22.6501,22.6036,22.8147,23.4156,23.5972,24.0493,25.0338,25.3922,25.6063,25.7206,25.8957,25.9877,25.9877,25.9877,25.9836,26.014,26.1455,26.3034,26.4307,26.5927,26.7284,26.8468,26.8468,26.8468,26.8468,26.8468,26.8468,26.8468,26.8468,26.8426,26.8689,26.8689,26.8689,26.8863,26.9961,27.0793,27.1013,27.2371,27.294,27.2897,27.2897,27.316,27.3423,27.487,27.5265,27.5396,27.6843,27.7149,27.7149,27.7149,27.7149,27.6843,27.5659,27.5265,27.487,27.3555,27.3335,27.3335,27.3335,27.3335,27.3335,27.3335,27.2897,27.2766,27.2766,27.2766,27.2766,27.2897,27.294,27.2766,27.2897,27.2897,27.3555,27.487,27.5265,27.5834,27.6843,27.6097,27.5265,27.5002,27.5396,27.6054,27.7149,27.7413,27.7895,27.921,27.7807,27.636,27.5002,27.1977,26.9872,26.8994,27.1582,27.2766,21.3472,21.3472,21.3772,21.5749,0.0,0.0,22.1615,22.4175,22.6437,22.7665,22.8775,22.9759,22.9759,22.9759,22.9759,22.9759,22.9759,22.8944,22.6501,22.6036,22.7677,23.1923,23.4876,23.9832,24.8281,25.2859,25.6023,25.7338,25.8916,25.9877,25.9877,25.9877,25.9877,25.9877,26.2072,26.356,26.4176,26.6453,26.7942,26.8468,26.8468,26.8468,26.8468,26.8468,26.8468,26.8468,26.8468,26.8468,26.8468,26.8468,26.8468,26.8426,26.9083,26.9389,26.9346,27.0004,27.0793,27.1582,27.1582,27.1934,27.294,27.3555,27.3686,27.3949,27.5396,27.6097,27.6054,27.7018,27.6623,27.5791,27.5265,27.5002,27.487,27.4212,27.4081,27.3818,27.2897,27.2766,27.2108,27.0573,27.0135,27.0135,27.0135,27.0135,27.0573,27.1319,27.0793,27.0573,27.1319,27.1582,27.2108,27.3555,27.4476,27.5265,27.5791,27.5396,27.4607,27.3686,27.3686,27.4301,27.5791,27.6097,27.658,27.8026,27.658,27.5265,27.3686,27.2503,27.1188,26.9741,27.0925,27.1582,21.2425,0.0,0.0,0.0,0.0,0.0,22.1033,22.336,22.5454,22.7083,22.8363,22.941,22.9759,22.9759,22.9759,22.9759,22.9759,22.8944,22.6385,22.7207,22.8798,23.1117,23.5608,24.0975,24.7397,25.214,25.5669,25.7378,25.8562,25.9483,25.9877,25.9877,25.9877,25.9877,26.1809,26.3387,26.4176,26.6321,26.7637,26.8468,26.8468,26.8468,26.8468,26.8468,26.8468,26.8468,26.8468,26.8468,26.8468,26.8468,26.8468,26.8468,26.8468,26.8468,26.8468,26.8468,26.9083,27.0004,27.0004,27.0619,27.1582,27.1977,27.2108,27.2328,27.3949,27.4476,27.4739,27.6185,27.5791,27.509,27.5703,27.5439,27.4695,27.3555,27.3292,27.2766,27.1362,27.1188,27.0793,26.8294,26.8205,26.8468,26.8468,26.8468,26.8863,26.9872,26.9083,26.8863,26.9872,27.0004,27.053,27.1977,27.3555,27.4607,27.5002,27.5002,27.4476,27.294,27.2766,27.316,27.3643,27.4607,27.5221,27.6097,27.5834,27.4607,27.2766,27.2371,27.1319,27.0004,27.0004,27.0224,0.0,0.0,0.0,21.5799,21.638,21.7078,21.9587,22.1383,22.3011,22.5674,22.7083,22.8194,22.9526,22.9759,22.9759,22.9759,22.9759,22.8997,22.6488,23.0098,23.3881,23.6207,24.06,24.6276,25.2479,25.3261,25.4485,25.7378,25.751,25.8299,25.9877,25.9877,25.9877,25.9877,25.9836,26.1455,26.4176,26.4176,26.5664,26.8468,26.8468,26.8468,26.8468,26.8468,26.8468,26.8468,26.8468,26.8468,26.8468,26.8468,26.8468,26.8468,26.8468,26.8468,26.8468,26.8468,26.8426,26.8426,26.8426,26.8426,26.8863,27.0267,27.0619,27.0925,27.2371,27.2766,27.316,27.4739,27.5002,27.5396,27.6755,27.6054,27.3949,26.9609,26.86,26.8294,26.689,26.7679,26.8031,26.6716,26.7505,26.8468,26.8468,26.8468,26.8468,26.8426,26.8426,26.8468,26.8426,26.8426,26.9083,27.053,27.1977,27.3423,27.487,27.5002,27.4476,27.294,27.2766,27.2108,27.0793,27.3555,27.4301,27.2897,27.5659,27.5659,27.2766,27.1319,27.0004,26.8426,26.8426,26.9215,20.9517,21.0728,21.1843,21.4353,21.5051,21.5982,21.9521,22.1266,22.2895,22.5454,22.7083,22.8194,22.9526,22.9759,22.9759,22.9759,22.9759,22.8944,22.6437,22.7397,23.0567,23.6025,23.8087,24.2751,25.2358,25.3341,25.409,25.6063,25.6943,25.7773,25.8299,25.9351,25.9877,25.9877,25.9877,26.0231,26.1283,26.3124,26.4217,26.4086,26.5138,26.6058,26.7153,26.7153,26.7505,26.8468,26.8468,26.8468,26.8468,26.8468,26.8468,26.8468,26.8468,26.8468,26.8468,26.8468,26.8468,26.8468,26.8468,26.8468,26.8426,26.8994,26.9257,26.9478,27.075,27.1319,27.1802,27.4301,27.4344,27.3818,27.5396,27.4607,27.2766,26.9215,26.9215,26.9083,26.5491,26.5401,26.5795,26.6363,26.7505,26.8468,26.8468,26.8468,26.8468,26.8468,26.8468,26.8468,26.8468,26.8468,26.8994,27.0356,27.1977,27.3292,27.487,27.5002,27.4476,27.294,27.1802,27.1188,27.0619,27.1582,27.2371,27.2766,27.3686,27.3686,27.2766,27.1319,27.0399,26.9872,26.882,26.8689,20.875,20.9797,21.0728,21.3239,21.3821,21.4819,21.8707,22.027,22.1615,22.4756,22.6217,22.7665,22.8775,22.9008,22.9124,22.9759,22.9759,22.8944,22.6501,22.9008,23.2481,23.6129,23.9637,24.4501,25.1731,25.2512,25.3038,25.4616,25.5365,25.6458,25.751,25.8562,25.9351,25.9877,25.9877,25.9877,25.9877,26.2244,26.3165,26.2771,26.3165,26.4307,26.6321,26.5754,26.6758,26.8468,26.79,26.8073,26.8468,26.8468,26.8468,26.8468,26.8468,26.8468,26.8468,26.8468,26.8468,26.8468,26.8468,26.8468,26.8468,26.8468,26.8468,26.86,26.9609,26.9872,27.0399,27.2723,27.2766,27.2108,27.3117,27.2766,27.1319,26.8994,26.8863,26.7857,26.356,26.3387,26.4307,26.5401,26.6716,26.7942,26.8468,26.8468,26.8468,26.8468,26.8468,26.8468,26.8468,26.8468,26.8863,26.9741,27.1582,27.316,27.4081,27.5265,27.5308,27.3686,27.2108,27.1188,27.0619,27.0619,27.1013,27.1977,27.2503,27.2108,27.1188,27.0224,26.9872,26.9872,26.882,26.8468,20.9099,20.9797,20.94,21.1843,21.2425,21.3423,21.7361,21.8125,21.9455,22.3128,22.5157,22.6217,22.738,22.7781,22.8194,22.9357,22.9969,22.9415,22.6799,23.4586,23.967,23.7171,24.5171,25.0959,25.1157,25.1197,25.1723,25.3078,25.3341,25.4485,25.7115,25.751,25.8127,25.9746,25.9877,25.9877,25.9877,26.1233,26.2376,26.3781,26.268,26.3428,26.6058,26.4743,26.5532,26.8031,26.6716,26.7153,26.8294,26.8294,26.8468,26.8468,26.8468,26.8468,26.8468,26.8468,26.8468,26.8468,26.8468,26.8468,26.8468,26.8468,26.8468,26.8468,26.8468,26.8468,26.8863,27.0267,27.0619,27.0619,27.0619,27.0619,27.0135,26.8863,26.7284,26.5006,26.1061,26.2244,26.4044,26.4044,26.5401,26.6716,26.8031,26.8468,26.8468,26.8468,26.8468,26.8468,26.8468,26.8468,26.8468,26.8468,27.0925,27.246,27.246,27.5265,27.636,27.487,27.3555,27.2108,27.053,27.0662,27.0662,27.0356,27.1671,27.1188,26.86,26.8426,26.8468,26.8468,26.8468,26.8468,20.6608,20.8935,21.0146,20.9749,21.0495,21.1843,21.4751,21.6962,21.9056,22.1964,22.376,22.4691,22.504,22.6618,22.8014,22.8194,23.2298,23.4409,23.1902,23.6815,24.1036,24.202,24.4372,24.7297,25.0749,25.1197,25.1329,25.1763,25.2684,25.3736,25.4222,25.6326,25.7773,25.8167,25.9351,25.9877,25.9877,25.9088,25.8957,25.9351,26.014,26.1455,26.3207,26.2812,26.356,26.5096,26.5006,26.5532,26.6848,26.6848,26.7505,26.8468,26.8468,26.8468,26.8468,26.8468,26.8468,26.8468,26.8468,26.8468,26.8468,26.8468,26.8468,26.8468,26.8468,26.8468,26.8863,27.0267,27.0619,27.075,27.1977,27.053,26.882,26.8426,26.5664,26.3207,26.2992,26.2771,26.2639,26.2639,26.4612,26.6453,26.6716,26.7637,26.8468,26.8468,26.8468,26.8468,26.8468,26.8468,26.8468,26.8468,27.0004,27.1188,27.1188,27.2723,27.3292,27.1802,27.2371,27.1582,26.9083,27.0004,26.9961,26.8994,26.9389,26.9609,26.9961,26.8994,26.8468,26.8468,26.8468,26.8468,20.4235,20.6957,20.8935,20.8818,20.9797,21.1262,21.3772,21.5982,21.8125,22.0801,22.2015,22.2546,22.3179,22.4872,22.6449,22.7612,23.2759,23.5781,23.3683,23.9541,24.3978,24.3993,24.5926,24.8196,25.0999,25.1197,25.1197,25.1197,25.1855,25.2684,25.3341,25.4788,25.5932,25.6589,25.8167,25.8957,25.8957,25.8694,25.834,25.751,25.7732,25.9351,26.2023,26.1497,26.185,26.3165,26.3165,26.3913,26.5359,26.6058,26.6716,26.7505,26.8205,26.8468,26.8468,26.8468,26.8468,26.8468,26.8468,26.8468,26.8468,26.8468,26.8468,26.8468,26.8468,26.8468,26.86,26.9478,26.9609,26.9609,26.9083,26.8294,26.7153,26.5138,26.3823,26.2771,26.2376,26.1587,26.1061,26.1061,26.2771,26.4612,26.5269,26.6453,26.7505,26.7505,26.8073,26.8468,26.8468,26.8468,26.8468,26.8468,26.9741,27.0399,26.9567,27.1582,27.1671,26.9741,27.0399,27.0178,26.8426,26.8689,26.8778,26.9346,26.8863,26.882,26.9609,26.882,26.8468,26.8468,26.781,26.7505,20.2769,20.4863,20.6793,20.812,20.9564,21.1077,21.3472,21.4935,21.668,21.9289,21.9704,22.0219,22.1615,22.3506,22.5482,22.76,23.3226,23.6743,23.4776,24.2996,24.8049,24.5347,24.8562,25.1197,25.1197,25.1197,25.1197,25.1197,25.1197,25.1723,25.2907,25.3038,25.3827,25.4971,25.6589,25.7378,25.751,25.8957,25.8916,25.7945,25.6417,25.7773,26.1497,26.0272,26.0494,26.1891,26.1891,26.2639,26.3913,26.5096,26.5927,26.619,26.7679,26.8205,26.8205,26.8468,26.8468,26.8468,26.8468,26.8468,26.8468,26.8468,26.8468,26.8468,26.8468,26.8468,26.8468,26.8468,26.8468,26.79,26.5359,26.5359,26.5138,26.1283,26.2244,26.3165,26.0535,25.9877,25.9877,25.9877,26.0798,26.2244,26.3518,26.5138,26.6058,26.6321,26.7242,26.8205,26.8468,26.8468,26.8468,26.8468,26.9609,26.9741,26.8294,27.053,27.0925,26.8294,26.8294,26.8468,26.8205,26.7111,26.7637,27.0004,26.882,26.8294,26.8468,26.8468,26.8468,26.8468,26.7111,26.6543,20.3304,20.4933,20.5467,20.6841,20.8168,20.9564,21.1125,21.3123,21.5168,21.6729,21.6912,21.7726,22.0052,22.4869,22.8595,22.9047,23.9479,24.6237,24.2429,24.8972,25.3094,25.0213,25.059,25.1197,25.1197,25.1197,25.1197,25.1197,25.1197,25.1329,25.146,25.2684,25.3473,25.3736,25.5011,25.6458,25.751,25.7773,25.8562,25.9483,25.7904,25.751,25.8299,25.9523,26.014,26.0272,26.0272,26.1061,26.2376,26.2639,26.3428,26.4743,26.6058,26.6716,26.689,26.8073,26.8468,26.8468,26.8468,26.8468,26.8468,26.8468,26.8468,26.8468,26.8468,26.8468,26.8468,26.8468,26.8468,26.8294,26.7942,26.6058,26.4307,26.3518,26.2729,26.2023,26.0272,25.9877,25.9877,25.9877,26.014,26.0666,26.2286,26.356,26.4965,26.6058,26.6453,26.7111,26.8294,26.8468,26.8468,26.8468,26.8557,26.8294,26.689,26.8294,26.8426,26.6716,26.781,26.79,26.6716,26.7679,26.7637,26.7111,26.689,26.7242,26.8468,26.8468,26.8468,26.8468,26.8205,26.8031,20.2025,20.3886,20.5329,20.6445,20.7771,20.8983,20.9564,21.161,21.3656,21.4237,21.4984,21.5799,21.6912,22.3285,22.8431,22.824,23.871,24.587,24.2799,24.8643,25.2341,25.0408,25.0802,25.1197,25.1197,25.1197,25.1197,25.1197,25.1197,25.1197,25.1197,25.1723,25.2118,25.2118,25.3433,25.4616,25.5274,25.6023,25.6812,25.7641,25.751,25.751,25.751,25.8299,25.9088,25.9877,25.9877,26.0272,26.1102,26.1587,26.2376,26.3165,26.457,26.5096,26.5359,26.689,26.7242,26.7505,26.8205,26.8468,26.8468,26.8468,26.8468,26.8468,26.8468,26.8468,26.8468,26.8468,26.79,26.7111,26.6453,26.5096,26.3781,26.2203,26.1455,26.0666,26.014,25.9877,25.9877,25.9877,25.9877,25.9877,25.9746,26.0272,26.0888,26.1587,26.2376,26.3823,26.5927,26.6363,26.6453,26.7284,26.6716,26.5927,26.5269,26.5138,26.5138,26.5096,26.5138,26.5138,26.5096,26.5138,26.4743,26.4127,26.4702,26.5532,26.6363,26.6363,26.6363,26.6148,26.5574,26.518,20.021,20.2536,20.4653,20.6096,20.7422,20.8634,20.8935,21.0563,21.1892,21.1892,21.3006,21.4347,21.575,22.2587,22.8479,22.9195,23.8125,24.435,24.234,24.6998,25.0106,24.9185,24.9974,25.0802,25.1197,25.1197,25.1197,25.1197,25.1197,25.1197,25.1197,25.1197,25.1197,25.1197,25.2289,25.2907,25.3341,25.4485,25.4971,25.5365,25.6589,25.7206,25.751,25.751,25.8127,25.9483,25.9705,25.9877,25.9836,26.1061,26.1628,26.1587,26.3165,26.3823,26.3954,26.5401,26.5927,26.5885,26.7111,26.7637,26.8073,26.8073,26.8205,26.8468,26.8468,26.8468,26.8468,26.8468,26.7547,26.6058,26.5006,26.4176,26.2992,26.0535,25.9877,25.9877,25.9877,25.9877,25.9705,25.9483,25.931,25.8957,25.7378,25.7115,25.7115,25.7115,25.8258,26.0272,26.3034,26.3255,26.365,26.4702,26.3954,26.3165,26.2771,26.2244,26.2376,26.3124,26.2376,26.268,26.3518,26.2417,26.1587,26.2023,26.3165,26.3781,26.4176,26.4176,26.4176,26.4176,26.3034,26.2376,19.8652,20.1257,20.3467,20.47,20.5979,20.7655,20.9865,20.9749,20.9215,20.9215,21.1145,21.4462,21.9832,22.6096,23.1631,23.5798,24.3163,24.7584,24.479,24.7241,24.9185,24.9054,24.9224,24.975,25.0895,25.1197,25.1197,25.1197,25.1197,25.1197,25.1197,25.1197,25.1197,25.1197,25.1329,25.1986,25.3341,25.3473,25.409,25.5365,25.5669,25.6326,25.751,25.751,25.7641,25.7945,25.9351,25.9877,25.9877,26.014,26.014,26.0272,26.1587,26.2286,26.2376,26.3781,26.4307,26.4307,26.4612,26.5359,26.6453,26.6453,26.7416,26.8468,26.8468,26.8468,26.8468,26.8468,26.7547,26.6321,26.6058,26.4217,26.185,26.0272,25.9877,25.9877,25.9877,25.9877,25.9483,25.8167,25.7773,25.7378,25.576,25.5628,25.5628,25.5628,25.6812,25.8299,26.014,26.0272,26.0272,26.0535,26.0231,25.9746,25.8299,26.0535,26.1455,26.0231,26.1497,26.1981,26.2286,26.0798,26.0666,26.2023,26.2286,26.2771,26.4176,26.4176,26.4176,26.4176,26.4044,26.3913,19.7534,19.9861,20.2304,20.4304,20.6445,20.7957,20.8401,20.8586,20.8702,20.8702,20.9517,21.2028,21.8086,22.49,23.0667,23.4206,24.1491,24.5372,24.2347,24.4583,24.6462,24.6462,24.8041,24.9185,24.9711,25.05,25.1197,25.1197,25.1197,25.1197,25.1197,25.1197,25.1197,25.1197,25.1197,25.1289,25.1986,25.1986,25.2644,25.409,25.409,25.4485,25.5011,25.576,25.6154,25.6326,25.6984,25.7773,25.8562,25.9483,25.9877,25.9836,26.0535,26.0666,26.0929,26.2376,26.2771,26.3034,26.3781,26.4612,26.4965,26.4965,26.5885,26.7111,26.7111,26.7637,26.8468,26.8468,26.6674,26.4965,26.4965,26.2729,26.014,25.7773,25.7206,25.7206,25.7206,25.7206,25.6943,25.6458,25.6154,25.58,25.4525,25.409,25.3827,25.2867,25.3301,25.4445,25.6984,25.7206,25.751,25.8299,25.7773,25.7378,25.751,25.6984,25.7904,26.1102,26.005,25.9351,25.9351,25.9746,26.0099,26.0666,26.0666,26.1061,26.1587,26.1587,26.1587,26.1587,26.1587,26.1587,19.6299,19.8465,20.114,20.37,20.6026,20.7422,20.6445,20.7539,20.8634,20.7771,20.8237,21.1141,21.8524,22.4275,22.9802,23.4626,23.9841,24.261,24.0676,24.1953,24.3701,24.4583,24.6424,24.8002,24.8961,25.0013,25.0802,25.1197,25.1197,25.1197,25.1197,25.1197,25.1197,25.1197,25.1197,25.1197,25.1197,25.1197,25.1763,25.2684,25.3078,25.3078,25.2644,25.405,25.488,25.488,25.5234,25.6063,25.6943,25.8167,25.8653,25.9047,25.9047,25.9483,26.0009,26.1061,26.1497,26.1455,26.2639,26.3165,26.356,26.356,26.4612,26.5664,26.5664,26.6321,26.7111,26.7111,26.5138,26.2861,26.2861,26.0625,25.7995,25.6063,25.5365,25.5365,25.5365,25.5365,25.5234,25.4839,25.488,25.4182,25.2907,25.2684,25.2249,25.1329,25.1197,25.1855,25.3919,25.405,25.4445,25.5669,25.488,25.4616,25.5669,25.4262,25.5051,25.9088,25.834,25.751,25.751,25.8521,25.9483,25.9877,25.9877,25.9877,25.9877,25.9877,25.9877,25.9877,25.9877,25.9877,19.4975,19.7347,19.9861,20.2304,20.3886,20.4933,20.4933,20.6793,20.8004,20.5398,20.6957,21.2103,22.2781,22.5664,22.96,23.8738,24.0205,24.0243,24.0243,24.0243,24.1427,24.432,24.4753,24.5936,24.883,24.9054,24.958,25.0895,25.1197,25.1197,25.1197,25.1197,25.1197,25.1197,25.1197,25.1197,25.1197,25.1197,25.1197,25.1197,25.2684,25.2512,25.1157,25.2684,25.3301,25.3473,25.488,25.5365,25.5365,25.5365,25.6326,25.751,25.751,25.8562,25.9877,25.9877,25.9877,25.9877,25.9877,26.0798,26.1981,26.1981,26.3034,26.4176,26.4176,26.4176,26.4176,26.4176,26.2244,25.9877,25.9877,25.7773,25.5365,25.5365,25.5365,25.5365,25.5365,25.5365,25.5011,25.3736,25.3301,25.2947,25.1289,25.1197,25.1197,25.1197,25.1197,25.1197,25.1197,25.1197,25.1197,25.1157,25.1197,25.1197,25.1157,25.2512,25.3301,25.3301,25.6063,25.751,25.751,25.751,25.8299,25.9877,25.9877,25.9877,25.9877,25.9877,25.9877,25.9877,25.9877,25.9877,19.3695,19.595,19.8045,19.8859,20.2699,20.5282,20.1792,20.3002,20.4514,20.37,20.8166,21.5713,22.6994,22.8855,23.0679,23.7741,23.8703,23.8703,23.8703,23.9624,24.0638,24.1596,24.3569,24.5147,24.5898,24.787,24.9185,24.958,25.0539,25.1197,25.1197,25.1197,25.1197,25.1197,25.1197,25.1197,25.1197,25.1197,25.1197,25.1197,25.1592,25.1592,25.1197,25.1592,25.1723,25.1894,25.2381,25.3038,25.3827,25.3827,25.488,25.6023,25.6023,25.6943,25.8299,25.8299,25.8957,25.9877,25.9877,26.0313,26.0494,26.0494,26.1414,26.268,26.1414,26.1809,26.2376,26.1414,25.9877,25.8167,25.7115,25.5406,25.3696,25.2735,25.2512,25.2512,25.2512,25.2512,25.2341,25.1855,25.1723,25.1723,25.1157,25.1197,25.1197,25.1197,25.1197,25.1197,25.1197,25.1197,25.1197,25.1197,25.1197,25.1197,25.1197,25.1592,25.2289,25.3341,25.409,25.4616,25.4616,25.5669,25.6458,25.6812,25.6812,25.6812,25.6812,25.6812,25.6812,25.6812,25.7732,25.8299,19.2183,19.3462,19.4742,19.672,19.9861,20.1833,19.9261,20.1427,20.4236,20.6068,21.0688,21.6981,22.4888,22.7798,23.0904,23.6356,23.7425,23.7425,23.7425,23.8177,23.9097,24.0112,24.1821,24.3569,24.4583,24.6292,24.7646,24.8172,24.9619,25.0408,25.0408,25.0763,25.1197,25.1197,25.1197,25.1197,25.1197,25.1197,25.1197,25.1197,25.1197,25.1197,25.1197,25.1197,25.1197,25.1197,25.1197,25.1763,25.2552,25.2552,25.3038,25.3827,25.4485,25.5365,25.6721,25.6721,25.7773,25.8916,25.8916,25.931,25.9877,25.9877,26.0535,26.0929,25.9483,26.0009,26.0798,25.9483,25.8299,25.6984,25.4445,25.3038,25.2289,25.1329,25.1197,25.1197,25.1197,25.1197,25.1197,25.1197,25.1197,25.1197,25.1197,25.1197,25.1197,25.1197,25.1197,25.0934,25.0369,25.0408,25.0145,24.9619,25.0013,25.0539,25.1197,25.1197,25.1592,25.2552,25.15,25.1105,25.1763,25.3038,25.409,25.4616,25.5274,25.5365,25.5365,25.5365,25.5365,25.5365,25.6458,25.6721,19.0511,19.0438,19.067,19.5395,19.5673,19.5194,19.6688,20.105,20.5856,21.0261,21.3639,21.6329,21.8112,22.448,23.1166,23.5476,23.6035,23.5941,23.6204,23.6336,23.7388,23.9887,24.0413,24.1558,24.4095,24.4583,24.5279,24.6633,24.8041,24.8791,24.9054,25.0106,25.0895,25.1197,25.1197,25.1197,25.1197,25.1197,25.1197,25.1197,25.1197,25.1197,25.1197,25.1197,25.1197,25.1197,25.1197,25.1197,25.1197,25.1197,25.1197,25.1329,25.2684,25.3827,25.5102,25.5234,25.6195,25.7378,25.751,25.8562,25.9705,25.9877,25.9877,25.9442,25.7904,25.8258,25.9351,25.751,25.7206,25.6417,25.2381,25.1329,25.1329,25.1197,25.1197,25.1197,25.1197,25.1197,25.1197,25.1197,25.1197,25.1197,25.1197,25.1197,25.1197,25.0895,25.0895,25.0539,24.9054,24.8791,24.8435,24.7027,24.8041,24.9317,25.0802,25.0763,25.0763,25.0763,24.8474,24.7515,24.8791,25.0145,25.15,25.2644,25.405,25.4839,25.5011,25.5011,25.4971,25.5102,25.5234,25.5234,18.8503,18.9085,18.9623,18.99,18.9783,18.981,19.1122,19.3917,19.7695,20.2957,20.9684,21.6394,22.087,22.8649,23.495,23.7407,23.673,23.6336,23.7557,23.9492,24.0281,23.8872,24.1596,24.3005,24.1427,24.3399,24.4884,24.5109,24.6462,24.7909,24.8961,24.9356,24.9974,25.1197,25.1197,25.1197,25.1197,25.1197,25.1197,25.1197,25.1197,25.1197,25.1197,25.1197,25.1197,25.1197,25.1197,25.1197,25.1197,25.1197,25.1197,25.1197,25.146,25.1855,25.2249,25.3301,25.4616,25.6023,25.7115,25.7773,25.8299,25.9483,25.9877,25.931,25.6852,25.6154,25.6063,25.3261,25.4222,25.5365,25.3301,25.2644,25.2512,25.1329,25.1197,25.1197,25.1197,25.1197,25.1197,25.1197,25.1197,25.1197,25.1197,25.1197,25.0802,24.958,24.9619,24.8961,24.7685,24.7422,24.7252,24.6857,24.729,24.7515,24.7778,24.7778,24.7778,24.7778,24.729,24.7027,24.7422,24.7646,24.8041,24.8474,24.8567,24.9356,25.0539,25.0539,25.1197,25.2078,25.3301,25.3867,18.7079,18.8244,18.9519,18.8969,18.7775,18.7545,19.0129,19.2677,19.6675,20.4095,21.0956,21.7298,22.2782,22.8822,23.3442,23.5057,23.502,23.502,23.5189,23.7162,23.8308,23.8045,23.9624,24.1032,24.2216,24.2648,24.3043,24.3569,24.5186,24.6331,24.712,24.7607,24.8659,25.0145,25.0145,25.0539,25.1197,25.0539,25.0539,25.1197,25.1197,25.1197,25.1197,25.1197,25.1197,25.1197,25.1197,25.1197,25.1197,25.1197,25.1197,25.1197,25.1197,25.1197,25.1157,25.1986,25.2735,25.3696,25.5011,25.6063,25.6812,25.8299,25.8299,25.751,25.6063,25.5365,25.5011,25.2775,25.2735,25.3433,25.3301,25.2644,25.2249,25.2118,25.1592,25.1197,25.1197,25.1197,25.1197,25.1197,25.05,25.0145,25.0145,24.9619,24.9,24.8172,24.8041,24.7476,24.6068,24.5936,24.5712,24.4884,24.5542,24.5936,24.5936,24.6462,24.6896,24.6896,24.5542,24.4753,24.4753,24.5542,24.5936,24.5936,24.6462,24.7252,24.8041,24.8041,24.8435,24.9224,25.0013,25.0316,18.6273,18.8144,19.0185,18.9755,18.7401,18.6258,18.9987,19.2837,19.7165,20.5832,21.1662,21.6685,22.218,22.6604,22.9891,23.098,23.2821,23.3611,23.2295,23.3611,23.5415,23.7294,23.6993,23.844,24.3043,24.1427,24.0807,24.1991,24.3569,24.449,24.4753,24.5936,24.7252,24.8659,24.8659,24.9185,25.0539,24.9185,24.9317,25.0763,25.0763,25.0934,25.1197,25.1197,25.1197,25.1197,25.1197,25.1197,25.1197,25.1197,25.1197,25.1197,25.1197,25.1197,25.1197,25.1197,25.1197,25.1329,25.2512,25.3827,25.5234,25.6589,25.6023,25.5011,25.4616,25.4616,25.4485,25.2644,25.1592,25.0895,25.2157,25.1592,25.1197,25.2157,25.146,25.0763,25.0763,25.0763,25.0763,25.0763,24.958,24.8659,24.8659,24.7646,24.6896,24.6462,24.6462,24.6107,24.449,24.4358,24.3964,24.2517,24.3569,24.4358,24.4358,24.5542,24.6068,24.6068,24.3701,24.2385,24.2385,24.3701,24.4358,24.4358,24.5542,24.6331,24.6462,24.6462,24.6633,24.6896,24.6896,24.6896,18.6484,18.9566,19.1071,18.8694,18.527,18.2969,18.4687,18.7194,19.0121,19.4054,20.177,20.9168,21.3824,22.2718,22.9234,22.8014,23.2259,23.5152,23.3669,23.6824,23.8177,23.4852,23.7482,23.9097,23.7519,23.906,24.0205,24.0676,24.1991,24.3306,24.4753,24.4884,24.5673,24.712,24.729,24.7252,24.7515,24.7252,24.787,24.9356,24.9356,25.0013,25.1197,25.1197,25.1197,25.1197,25.1197,25.1197,25.1197,25.1197,25.1197,25.1197,25.1197,25.1197,25.1197,25.1197,25.1197,25.1197,25.1329,25.2552,25.3736,25.3827,25.3867,25.3038,25.0802,25.0763,25.1329,24.8567,24.8567,24.9054,24.8041,24.8567,24.9054,24.8041,24.8567,24.9356,24.9356,24.9356,24.9356,24.9356,24.8172,24.729,24.729,24.7027,24.6501,24.5279,24.5147,24.449,24.3043,24.278,24.261,24.2385,24.2648,24.278,24.278,24.2911,24.3213,24.3213,24.2648,24.2385,24.2385,24.2648,24.278,24.278,24.3043,24.3701,24.5147,24.5147,24.5673,24.6896,24.6896,24.6896,18.6582,18.6712,18.6876,18.8515,18.598,18.3109,18.3807,18.5319,18.7958,19.2281,19.7083,20.3085,21.1046,21.7558,22.276,22.6676,23.0118,23.2916,23.3705,23.4889,23.5152,23.4005,23.4852,23.6336,23.8139,23.8177,23.8308,23.9097,24.0413,24.1596,24.2216,24.3005,24.4095,24.5673,24.5673,24.5673,24.5673,24.5673,24.6462,24.7909,24.7909,24.8567,24.9974,24.9974,25.0369,25.1197,25.1197,25.1197,25.1197,25.1197,25.1197,25.1197,25.1197,25.1197,25.1197,25.1197,25.1197,25.1197,25.1197,25.1592,25.2289,25.3078,25.2289,25.0934,25.0408,24.9619,24.8606,24.729,24.787,24.9054,24.9224,24.9054,24.8791,24.8172,24.787,24.7909,24.7909,24.7909,24.7909,24.7909,24.6725,24.5673,24.5673,24.4884,24.4095,24.3569,24.3569,24.3175,24.2347,24.2385,24.2385,24.2385,24.2385,24.2385,24.2385,24.2385,24.2385,24.2385,24.2385,24.2385,24.2385,24.2385,24.2385,24.2385,24.2385,24.278,24.3569,24.3569,24.3832,24.4528,24.4528,24.4528,18.4995,0.0,18.2176,18.6881,18.5311,18.276,0.0,18.4621,18.7035,19.117,19.4166,19.8821,20.8456,21.2844,21.7504,22.4552,22.8182,23.068,23.2522,23.2127,23.2259,23.4305,23.3479,23.4626,23.9323,23.7519,23.6298,23.7519,23.8928,23.9849,24.0243,24.1164,24.2648,24.4095,24.3794,24.3794,24.4095,24.4188,24.4884,24.6331,24.6331,24.712,24.8396,24.8396,24.9185,25.05,25.05,25.0763,25.1197,25.1197,25.1197,25.1197,25.1197,25.1197,25.1197,25.1197,25.1197,25.1197,25.1197,25.1197,25.1329,25.2552,25.1197,24.9054,24.9619,24.8041,24.6331,24.5936,24.6857,24.8304,24.8791,24.8567,24.787,24.7476,24.6857,24.6331,24.6331,24.6331,24.6331,24.6331,24.5147,24.4188,24.4188,24.3175,24.2385,24.2385,24.2385,24.2385,24.2385,24.2385,24.2385,24.2385,24.2385,24.2385,24.2385,24.2385,24.2385,24.2385,24.2385,24.2385,24.2385,24.2385,24.2385,24.2385,24.2385,24.2385,24.2385,24.2385,24.2385,24.2385,24.2385,24.2385,0.0,17.9366,17.8975,18.1767,18.0456,17.9112,18.1522,18.4082,0.0,18.6326,19.1537,19.7246,20.1962,21.0292,21.7688,22.0748,22.6998,23.1075,22.9987,23.0943,23.2653,23.5584,23.581,23.6336,23.8083,23.6993,23.5941,23.6204,23.7557,23.8834,24.0281,24.0205,24.1032,24.2517,24.1164,24.1202,24.2648,24.2648,24.3306,24.4884,24.4884,24.5673,24.7027,24.7027,24.7778,24.9185,24.9185,25.0013,25.1197,25.1197,25.1197,25.1197,25.1197,25.1197,25.1197,25.1197,25.1197,25.1197,25.1197,25.1197,25.1197,25.1329,25.0106,24.8567,24.5898,24.5147,24.449,24.3175,24.3794,24.4753,24.3438,24.3925,24.4753,24.3136,24.3964,24.4884,24.4884,24.4884,24.4884,24.4884,24.3531,24.2648,24.2648,24.2347,24.2385,24.2385,24.2385,24.2385,24.2385,24.2385,24.2385,24.2385,24.2385,24.2385,24.2385,24.2385,24.2385,24.2385,24.2385,24.2385,24.2385,24.2385,24.2385,24.2385,24.2385,24.2385,24.2385,24.2385,24.2385,24.2385,24.2385,24.2385,17.6402,17.6637,17.7305,17.9073,17.94,17.9502,18.0549,18.2103,18.3574,18.4505,18.7966,19.3241,20.0784,20.728,21.4206,22.2191,22.6436,22.9365,23.068,23.1338,23.1506,23.0513,23.0549,23.147,23.3837,23.3574,23.3705,23.4663,23.5941,23.6993,23.7482,23.844,23.9097,23.9624,23.9267,23.9624,24.1032,24.1032,24.1859,24.3344,24.3344,24.4095,24.5542,24.5542,24.6331,24.7646,24.7646,24.8396,0.0,24.9843,25.0408,25.1197,25.1197,25.1197,25.1197,25.1197,25.1197,25.1197,25.1197,25.1197,25.1197,25.1197,25.0802,25.0013,24.8041,24.6687,24.5673,24.4358,24.4358,24.4583,24.3964,24.4358,24.4358,24.278,24.2742,24.3344,24.3344,24.3344,24.3344,24.3344,24.278,24.2385,24.2385,24.2385,24.2385,24.2385,24.2385,24.2385,24.2385,24.2385,24.2385,24.2385,24.2385,24.2385,24.2385,24.2385,24.2385,24.2385,24.2385,24.2385,24.2385,24.2385,24.2385,24.2385,24.2385,24.2385,24.2385,24.2385,24.2385,24.2385,24.2385,24.2385,17.3027,17.3453,17.4313,17.6791,17.7443,17.8123,18.0119,18.0678,18.1247,18.2876,18.6069,19.1299,19.9954,20.5635,21.2493,22.2715,22.6077,22.8182,23.068,23.1506,23.0943,22.9007,22.8971,22.9891,23.147,23.1733,23.2164,23.3084,23.4363,23.5584,23.5941,23.6993,23.7557,23.7557,23.7557,23.8177,23.9454,23.9624,24.0243,24.1859,24.1859,24.2517,24.3964,24.3964,24.4753,24.6238,24.6238,24.6989,24.8435,24.8435,24.9224,25.0539,25.0539,25.0802,25.1197,25.1197,25.1197,25.1197,25.1197,25.1197,25.1197,25.1197,25.1197,25.0934,25.0013,24.8659,24.7252,24.6292,24.5542,24.4583,24.4095,24.3964,24.3701,24.261,24.278,24.3043,24.2555,24.278,24.3043,24.2347,24.2385,24.2385,24.2385,24.2385,24.2385,24.2385,24.2385,24.2385,24.2385,24.2385,24.2385,24.2385,24.2385,24.2385,24.2385,24.2385,24.2254,24.1859,24.1859,24.1859,24.1859,24.1859,24.1991,24.2385,24.2385,24.2385,24.2385,24.2385,24.2385,24.2385,24.2385,24.2385,17.0079,16.9537,16.9721,17.4626,17.4142,17.4091,18.0337,17.9864,17.8804,18.1405,18.6228,19.2027,19.879,20.5672,21.3066,22.157,22.5288,22.7787,22.9365,23.068,23.1769,23.1769,23.2821,23.3216,23.1733,23.1769,23.1769,23.1769,23.3084,23.44,23.5772,23.5941,23.5941,23.5941,23.5941,23.6561,23.8083,23.8083,23.8872,24.0243,24.0243,24.107,24.2385,24.2385,24.3136,24.4753,24.4753,24.5542,24.6896,24.6896,24.7646,24.9054,24.9054,24.9843,25.1197,25.1197,25.1197,25.1197,25.1197,25.1197,25.1197,25.1197,25.1197,25.1197,25.1197,25.0145,24.9054,24.9054,24.6818,24.432,24.278,24.2385,24.2385,24.2385,24.3531,24.4358,24.278,24.3531,24.4358,24.278,24.2385,24.2385,24.2385,24.2385,24.2385,24.2385,24.2385,24.2385,24.2385,24.2385,24.2385,24.2385,24.2385,24.2385,24.2385,24.2385,24.1859,24.0243,24.0243,24.0243,24.0243,24.0243,24.0901,24.2385,24.2385,24.2385,24.2385,24.2385,24.2385,24.2385,24.2385,24.2385,16.8955,16.8838,16.9721,17.4626,17.4142,17.3857,17.914,17.8445,17.7135,17.888,18.5674,19.2584,19.655,20.5261,21.4193,22.1729,22.2789,22.4368,22.8971,22.8971,22.8182,22.7261,22.8445,22.8576,22.7261,22.805,22.8971,23.0154,23.147,23.2522,23.2916,23.3084,23.3084,23.3084,23.4005,23.5189,23.6599,23.6599,23.7388,23.8703,23.8703,23.9492,24.0901,24.0901,24.1558,24.3175,24.3175,24.3964,24.5279,24.5279,24.6331,24.7646,24.8659,24.9185,24.975,25.0802,25.1197,25.1197,25.1197,25.1197,25.1197,25.1197,25.1197,25.1197,25.1197,25.0145,24.9054,24.9054,24.7607,24.6068,24.5712,24.5542,24.5542,24.5542,24.5147,24.4583,24.4095,24.3569,24.3043,24.2347,24.2385,24.2385,24.2385,24.2385,24.2385,24.2385,24.2385,24.2385,24.2385,24.2385,24.2385,24.2385,24.2385,24.1991,24.107,24.0901,24.0243,23.8834,23.8703,23.8703,23.8703,23.8703,23.8966,23.9229,23.953,23.953,23.953,24.0413,24.0901,24.0901,24.1991,24.2385,16.8373,16.8489,16.9604,17.4065,17.2996,17.2683,17.9799,17.7906,17.604,18.092,18.7274,19.3426,19.7716,20.6008,21.4406,22.0948,22.1343,22.2228,22.6305,22.6603,22.5946,22.4332,22.5516,22.6042,22.5121,22.591,22.6998,22.8576,23.0023,23.0549,22.9891,23.0549,23.098,23.098,23.2295,23.3479,23.4231,23.4757,23.581,23.7294,23.7294,23.7876,23.9492,23.9492,24.0281,24.1596,24.1596,24.2385,24.3832,24.3832,24.4753,24.6068,24.6989,24.7607,24.8435,24.975,25.0408,25.0408,25.0934,25.1197,25.1197,25.1197,25.0802,25.0408,25.0408,25.0145,24.9843,24.9843,24.883,24.7607,24.7607,24.7252,24.6896,24.6896,24.6725,24.6029,24.4846,24.4528,24.3701,24.2648,24.2385,24.2385,24.2385,24.2385,24.2385,24.2385,24.2385,24.2385,24.2385,24.2385,24.2385,24.2385,24.1821,24.107,23.9454,23.9492,23.8665,23.7388,23.7294,23.7294,23.7294,23.7294,23.7519,23.8083,23.8083,23.8083,23.8083,23.8928,23.9492,23.9492,24.0281,24.107,16.814,16.8489,16.937,17.3106,17.122,17.1137,18.1368,17.8182,17.5802,18.5742,19.0391,19.4425,20.0537,20.7357,21.3846,21.9204,22.0291,22.0817,22.2561,22.371,22.4069,22.3219,22.4105,22.4858,22.5121,22.5121,22.5683,22.6831,22.8445,22.8576,22.7094,22.8576,22.9365,22.9365,23.068,23.1506,23.1506,23.2821,23.4231,23.5547,23.581,23.6599,23.7951,23.7951,23.8703,24.0112,24.0112,24.0769,24.2254,24.2254,24.3175,24.449,24.4753,24.5542,24.6896,24.8265,24.8791,24.9054,25.0408,25.0802,25.0802,25.0802,24.9843,24.8791,24.8791,24.975,25.0802,25.0802,25.0013,24.9054,24.9054,24.8172,24.7252,24.7252,24.8172,24.8265,24.5673,24.5936,24.5975,24.3175,24.2555,24.2385,24.2385,24.2385,24.2385,24.2385,24.2385,24.2385,24.2385,24.2385,24.2216,24.1991,24.0807,23.9492,23.8083,23.7951,23.7425,23.5772,23.5641,23.5547,23.5547,23.5378,23.5941,23.7294,23.7557,23.7519,23.7519,23.7782,23.7951,23.7914,23.8083,23.8872,16.814,16.8489,16.937,17.3106,17.122,17.1137,18.1368,18.0197,17.898,18.6322,19.2461,19.6926,19.8523,20.5078,21.1742,21.5128,21.5785,21.7134,22.0817,22.0588,22.0851,22.2824,22.3184,22.3973,22.4858,22.5121,22.5253,22.5516,22.591,22.591,22.5516,22.6831,22.7787,22.7787,22.9234,22.9987,22.9987,23.1506,23.2259,23.269,23.3874,23.502,23.6298,23.6298,23.7087,23.8571,23.8571,23.9492,24.0638,24.0638,24.1596,24.3043,24.4358,24.4884,24.5279,24.6896,24.7252,24.7422,24.7646,24.7817,24.7817,24.7817,24.7685,24.7252,24.7252,24.7515,24.7817,24.7817,24.8435,24.9054,24.9054,24.958,25.0145,25.0145,24.958,24.8791,24.8265,24.6424,24.4846,24.4358,24.3136,24.2385,24.2385,24.2385,24.2385,24.2385,24.2385,24.2385,24.2385,24.2385,24.1634,23.9229,23.8703,23.7914,23.6599,23.6298,23.581,23.44,23.3216,23.269,23.269,23.147,23.1075,23.1302,23.2522,23.3048,23.3048,23.5452,23.6298,23.6298,23.7519,23.8346,16.9438,16.9396,16.937,17.3106,17.122,17.1057,18.0541,17.9748,18.0075,19.1009,19.5159,19.7857,20.1775,20.6609,21.0657,21.3057,21.3485,21.4372,21.7397,21.7695,21.8484,22.0588,22.2167,22.3351,22.3938,22.4727,22.5121,22.5121,22.5121,22.5121,22.5121,22.5946,22.6209,22.6209,22.762,22.8445,22.8445,22.9891,23.068,23.068,23.2127,23.3216,23.4005,23.4626,23.5847,23.7162,23.7162,23.7914,23.9229,23.9229,23.9624,24.0413,24.1991,24.261,24.2742,24.5186,24.5975,24.5936,24.6633,24.6896,24.6633,24.5147,24.5317,24.5975,24.5975,24.6331,24.6896,24.6896,24.7383,24.8041,24.8041,24.9054,25.0145,25.0145,24.9974,24.9974,24.9974,24.7778,24.5542,24.4884,24.3569,24.2385,24.2385,24.2385,24.2385,24.2385,24.2385,24.2254,24.1427,24.0807,23.9492,23.7388,23.7162,23.6636,23.502,23.5057,23.44,23.2821,23.2127,23.1338,23.068,23.0023,22.9628,22.9628,23.0286,23.068,23.068,23.2091,23.3311,23.4005,23.4626,23.5847,17.0638,17.063,17.0043,17.401,17.2664,17.2391,17.9994,17.98,18.1635,19.4711,19.7145,19.8492,20.5041,20.7764,20.9769,21.1249,21.1644,21.2433,21.3846,21.5161,21.6774,21.8089,22.0457,22.2,22.2561,22.3973,22.4727,22.4727,22.4727,22.4894,22.5121,22.5121,22.5121,22.5121,22.634,22.6831,22.6831,22.8445,22.9234,22.9234,23.0717,23.1338,23.1338,23.2821,23.41,23.5284,23.5584,23.6336,23.7782,23.7782,23.7951,23.8346,23.9492,23.9849,24.0281,24.261,24.3701,24.4095,24.5279,24.5936,24.5542,24.2648,24.278,24.3964,24.3964,24.4884,24.6068,24.6068,24.6331,24.6462,24.6462,24.7646,24.8659,24.8659,24.975,25.0802,25.0802,24.9264,24.712,24.5542,24.4002,24.278,24.2385,24.2254,24.1991,24.1991,24.1859,24.1202,24.0018,23.8703,23.7125,23.581,23.5547,23.502,23.3647,23.3479,23.2821,23.1506,23.1111,23.0417,22.9234,22.8971,22.8839,22.8839,22.8935,22.9234,22.9234,22.9329,23.0154,23.1338,23.1338,23.2653,17.0398,17.1806,17.2709,17.76,17.8527,17.8828,18.1145,18.3814,18.6558,18.9954,19.6009,20.0581,20.0468,20.3556,20.658,20.8224,20.9342,21.0657,21.2268,21.3846,21.5161,21.6774,21.7134,21.8318,22.0782,22.2395,22.3184,22.3184,22.3184,22.371,22.5121,22.5121,22.5121,22.5121,22.5253,22.5217,22.5217,22.6866,22.7656,22.7656,22.9234,22.9724,22.9891,23.1338,23.2164,23.2259,23.3611,23.5057,23.6167,23.6167,23.6993,23.8045,23.8308,23.8308,23.8477,23.8872,23.9924,24.0901,24.1032,24.1991,24.2555,23.9661,23.9624,24.0769,24.0769,24.1821,24.3043,24.3043,24.3964,24.4977,24.4977,24.6068,24.712,24.712,24.8304,24.9185,24.9185,25.0013,24.975,24.712,24.558,24.3964,24.2648,24.1465,24.0506,24.0506,23.9492,23.8741,23.8477,23.7125,23.5847,23.4268,23.4005,23.3442,23.2164,23.1864,23.1338,23.0023,22.8576,22.7787,22.7656,22.6305,22.5647,22.5647,22.6831,22.7656,22.7656,22.8971,22.976,22.9724,22.9724,23.068,17.4321,17.4864,17.4977,18.0189,17.984,17.9271,18.2771,18.4803,18.7225,19.1466,19.5913,19.9248,20.0169,20.2504,20.4672,20.533,20.5824,20.7172,20.9375,21.0295,21.1479,21.3846,21.559,21.7168,21.8318,22.0422,22.2167,22.2956,22.2956,22.3184,22.3973,22.4762,22.5121,22.5121,22.5121,22.5121,22.5121,22.5647,22.6077,22.6042,22.7656,22.8146,22.8445,22.976,23.0549,23.0549,23.1075,23.2295,23.3611,23.3611,23.4363,23.5847,23.6599,23.6993,23.6993,23.7782,23.844,23.9097,23.9097,23.9492,23.9924,23.844,23.8571,23.9097,23.9097,23.9492,24.0056,24.0056,24.107,24.2216,24.2216,24.3964,24.5673,24.5673,24.6687,24.7778,24.7778,24.8304,24.8211,24.6068,24.449,24.3043,24.1427,24.0638,24.0018,23.906,23.844,23.7557,23.5978,23.4363,23.3311,23.2653,23.1864,23.1075,23.0549,23.0549,22.9891,22.8445,22.7656,22.6472,22.4894,22.4271,22.3579,22.2789,22.3316,22.414,22.4929,22.5551,22.6603,22.8146,22.8146,22.8935,17.6904,17.688,17.6917,18.2379,18.1972,18.0897,18.3793,18.5522,18.7532,19.1498,19.4615,19.7043,19.8885,20.0595,20.2173,20.2994,20.2962,20.3851,20.6876,20.7566,20.8586,21.0855,21.3189,21.5161,21.5951,21.8318,22.0194,22.1211,22.1606,22.2,22.2395,22.3675,22.4464,22.4464,22.4858,22.5121,22.5121,22.5121,22.5121,22.5121,22.6209,22.6699,22.6699,22.8146,22.8971,22.8971,22.9329,23.0154,23.1075,23.1075,23.1733,23.2821,23.38,23.4363,23.4457,23.5941,23.6767,23.6899,23.6204,23.6204,23.6504,23.6504,23.6993,23.7519,23.7519,23.7951,23.8083,23.8083,23.8834,23.9717,23.9717,24.1558,24.3531,24.3531,24.4846,24.6331,24.6331,24.6633,24.6462,24.5542,24.3925,24.261,24.1596,24.0807,23.9717,23.8308,23.7782,23.6767,23.4305,23.2295,23.1075,23.1075,23.0118,22.9329,22.8971,22.8971,22.8182,22.6209,22.6042,22.5061,22.2561,22.2395,22.2035,22.0782,22.0817,22.1343,22.2395,22.2395,22.3579,22.5683,22.6113,22.6998,17.5471,17.6755,17.82,18.4438,18.6925,18.6974,18.369,18.6762,18.9348,18.6259,19.0514,19.4645,19.333,19.5596,19.8227,20.0958,20.1515,20.2568,20.5265,20.704,20.7796,20.7928,20.9375,21.1281,21.4207,21.5985,21.674,21.6905,21.8089,21.9536,22.0782,22.243,22.3219,22.3219,22.4332,22.5121,22.5121,22.5121,22.5121,22.5121,22.5121,22.5288,22.5253,22.6699,22.7393,22.7393,22.8971,22.9592,22.976,22.976,22.976,22.976,22.9891,22.9891,23.0154,23.147,23.2821,23.3611,23.0943,23.0943,23.2164,23.2164,23.3837,23.6204,23.6204,23.6993,23.8083,23.8083,23.8177,23.8346,23.8346,23.9323,24.0506,24.0506,24.278,24.4884,24.4884,24.5936,24.6896,24.6896,24.5542,24.4583,24.449,24.2254,23.9717,23.8308,23.6993,23.5584,23.4005,23.1338,22.976,22.976,22.9592,22.8971,22.7393,22.7393,22.6042,22.3316,22.3184,22.2561,22.108,22.0948,22.0782,22.0817,22.0817,22.0782,22.0948,22.0948,22.108,22.1211,22.2526,22.3973,17.6267,17.7859,17.9294,18.268,18.4518,18.554,18.5166,18.7133,18.8691,18.7415,19.0438,19.3198,19.2672,19.425,19.5929,19.6981,19.7902,19.9248,20.1189,20.2799,20.4246,20.6218,20.7632,20.9375,21.1314,21.2137,21.3024,21.503,21.6511,21.7958,21.9405,22.0817,22.1606,22.1606,22.2921,22.371,22.371,22.4762,22.5121,22.5121,22.5121,22.5121,22.5121,22.5683,22.591,22.591,22.6436,22.7261,22.8014,22.8014,22.854,22.9628,22.9628,22.9628,22.9592,23.0154,23.068,23.0943,22.9891,22.9891,23.0286,23.0286,23.0907,23.1864,23.1864,23.2916,23.4005,23.4005,23.5452,23.673,23.673,23.7782,23.8834,23.8834,23.9624,24.0638,24.1558,24.2216,24.2911,24.3701,24.3569,24.3136,24.3136,24.1596,23.9717,23.8308,23.7688,23.6204,23.2821,23.068,22.9234,22.8182,22.7225,22.6436,22.591,22.5025,22.414,22.2921,22.2167,22.0983,21.9502,21.9405,21.901,21.8055,21.8055,21.8449,21.9405,21.9405,21.9896,22.0817,22.1343,22.1834,17.4917,17.6759,17.8309,17.8891,18.0836,18.278,18.37,18.557,18.7046,18.7572,18.9546,19.1255,19.1255,19.2409,19.3431,19.3957,19.4908,19.6385,19.8327,19.9805,20.1615,20.3983,20.5824,20.7665,20.9112,20.921,21.0164,21.2005,21.3978,21.5721,21.7134,21.8747,21.9668,22.0028,22.1474,22.2132,22.2132,22.3149,22.3973,22.4332,22.4332,22.4762,22.5121,22.5121,22.5121,22.5121,22.5121,22.5683,22.6436,22.6436,22.7094,22.8014,22.8014,22.8014,22.8182,22.8576,22.8409,22.8014,22.8014,22.8445,22.8839,22.8839,22.9234,22.9628,22.9628,23.0118,23.0943,23.0943,23.2259,23.3837,23.3837,23.5152,23.6767,23.6767,23.7388,23.8308,23.9323,23.9454,23.9887,24.0845,24.1465,24.1558,24.1558,24.1164,24.0638,23.9624,23.8703,23.673,23.2916,23.0286,22.8445,22.7393,22.5516,22.4332,22.4332,22.3219,22.2,22.1641,22.0554,21.9536,21.8089,21.7958,21.7563,21.6477,21.6477,21.6871,21.7958,21.7958,21.8484,21.9502,21.9896,22.0028,17.1366,17.2945,17.4758,17.3498,17.6232,17.9361,17.9332,18.1728,18.4226,18.5702,18.7178,18.823,18.823,18.9516,19.0962,19.2278,19.2571,19.3593,19.6517,19.8227,19.9611,20.1252,20.3687,20.6087,20.7402,20.7533,20.7829,20.7796,21.046,21.2828,21.4207,21.5522,21.7168,21.8484,21.9861,22.065,22.0817,22.0817,22.1606,22.2956,22.2956,22.3543,22.4858,22.4858,22.4954,22.5121,22.5121,22.5121,22.5121,22.5121,22.5121,22.5121,22.5121,22.5121,22.5253,22.6735,22.6305,22.5121,22.5121,22.6077,22.7261,22.7261,22.8182,22.9329,22.9329,22.9329,22.9628,22.9628,22.9628,22.9628,22.9628,23.1769,23.3611,23.3611,23.5847,23.7951,23.7914,23.7914,23.7914,23.8083,23.9229,24.0281,24.0281,24.1465,24.2254,24.2254,23.9887,23.6993,23.4195,22.9987,22.7261,22.6962,22.4666,22.2956,22.2956,22.1606,22.0194,21.8747,21.865,21.7923,21.6608,21.6477,21.6511,21.6511,21.6511,21.6511,21.6345,21.6345,21.6345,21.6511,21.7958,21.8484,16.8105,16.9262,17.0813,17.1498,17.255,17.3734,17.4786,17.6364,17.8205,17.952,18.1916,18.4416,18.6389,18.7967,18.9384,19.0831,19.2015,19.2965,19.3755,19.5171,19.6981,19.948,20.0563,20.1221,20.1615,20.3488,20.5429,20.7533,20.8618,21.0197,21.2663,21.3222,21.3978,21.5556,21.7003,21.8352,21.9273,22.0291,22.108,22.1474,22.1474,22.1606,22.1965,22.1965,22.2526,22.3579,22.4762,22.5121,22.5121,22.5121,22.5121,22.5121,22.5121,22.5121,22.5121,22.5516,22.5516,22.5121,22.5121,22.5253,22.5647,22.5647,22.6077,22.6305,22.6305,22.6962,22.7751,22.7751,22.8839,22.9628,22.9628,23.0154,23.068,23.068,23.1338,23.2522,23.4626,23.4983,23.5641,23.7651,23.8477,23.8703,23.8703,23.9135,23.9229,23.9229,23.7782,23.6336,23.5378,23.1565,22.762,22.4534,22.3316,22.2561,22.1439,22.0028,21.9141,21.8747,21.7695,21.6871,21.6477,21.6477,21.5951,21.503,21.503,21.4372,21.3485,21.3485,21.4011,21.503,21.5424,21.6082,16.6395,16.7421,16.7947,16.7552,16.8341,16.9552,17.0341,17.1629,17.318,17.518,17.7548,18.0046,18.294,18.5702,18.7967,18.9384,19.0831,19.2015,19.2541,19.333,19.4746,19.7113,19.6881,19.6749,19.7244,20.0037,20.2404,20.4114,20.5298,20.727,21.0362,21.0295,21.1347,21.3452,21.4406,21.5195,21.5985,21.7563,21.8449,21.9107,21.9633,22.0291,22.0817,22.0817,22.1176,22.2167,22.2921,22.328,22.328,22.3938,22.4069,22.4368,22.4894,22.5121,22.4858,22.3675,22.328,22.328,22.328,22.328,22.3412,22.3938,22.4069,22.4368,22.4858,22.5647,22.6305,22.6305,22.6998,22.762,22.762,22.8182,22.8576,22.8576,22.9234,22.9987,23.1696,23.2091,23.2617,23.502,23.5978,23.6599,23.7125,23.7651,23.7688,23.6504,23.5547,23.4757,23.4231,23.2164,22.8971,22.5157,22.4069,22.2789,22.0194,21.8615,21.766,21.766,21.6871,21.6379,21.5721,21.5522,21.503,21.3617,21.3452,21.3057,21.2301,21.2301,21.2696,21.3452,21.3452,21.3583,16.4816,16.5606,16.4948,16.2686,16.387,16.5869,0.0,16.7158,16.8999,17.1656,17.3602,17.5679,17.844,18.2677,18.6126,18.7441,18.9121,19.0699,19.2045,19.2278,19.2935,19.422,19.333,19.3198,19.4351,19.7113,19.8822,19.9248,20.1615,20.4278,20.7172,20.7435,20.875,21.1644,21.1644,21.1907,21.2301,21.3452,21.4767,21.6116,21.73,21.8747,21.9896,22.0028,22.0291,22.0422,22.0387,22.065,22.0948,22.2132,22.2824,22.2789,22.4069,22.4464,22.4069,22.1737,22.0817,22.0817,22.0817,22.0817,22.108,22.243,22.2824,22.2921,22.4368,22.4727,22.4894,22.4894,22.4858,22.5121,22.5121,22.6042,22.6998,22.6998,22.8014,22.9234,22.9198,22.9365,22.976,23.1075,23.2522,23.38,23.5246,23.6599,23.6504,23.3874,23.3516,23.2821,23.1769,23.1338,23.0154,22.7357,22.5814,22.3149,21.9273,21.7563,21.6511,21.6345,21.6379,21.5522,21.4241,21.4241,21.3452,21.194,21.1644,21.1677,21.1249,21.1249,21.1216,21.1512,21.1512,21.0558,0.0,0.0,0.0,0.0,0.0,0.0,0.0,16.2555,16.4133,16.5817,16.9262,17.2418,17.4156,17.9023,18.2837,18.31,18.6389,18.8888,18.9151,19.0173,19.1094,19.1327,19.2146,19.2804,19.3067,19.4614,19.6749,19.9085,19.9774,20.1384,20.4114,20.4278,20.5725,20.8618,20.8586,20.9769,21.2301,21.24,21.2828,21.3091,21.3387,21.3617,21.4011,21.5161,21.6345,21.7563,21.8615,21.9799,22.0782,22.1246,22.1211,22.1176,22.1606,22.0983,22.0062,22.0554,22.0817,22.0817,22.0817,22.0817,22.0782,22.1211,22.1211,22.1176,22.1606,22.236,22.3316,22.3316,22.4069,22.5121,22.5121,22.5253,22.5516,22.5516,22.5647,22.6305,22.7393,22.762,22.8182,22.976,23.0118,23.0943,23.2259,23.2653,23.2259,23.068,23.0417,23.0286,22.9987,22.8803,22.7751,22.7225,22.4894,22.2526,22.0554,21.8089,21.5951,21.503,21.4733,21.4241,21.2663,21.2696,21.1512,20.875,20.8586,20.7566,20.5231,20.5231,20.5856,20.7007,20.7007,20.5397,0.0,0.0,0.0,0.0,0.0,0.0,0.0,0.0,0.0,0.0,0.0,16.6237,16.8473,0.0,17.8233,18.0441,18.3232,18.5862,18.8099,18.9019,18.9121,18.8464,18.899,19.0042,19.1488,19.2935,19.4382,19.5798,19.6587,19.8296,20.1221,20.1352,20.2699,20.5625,20.5725,20.6382,20.7796,20.9408,21.0098,21.0065,21.1512,21.2301,21.2301,21.3091,21.388,21.4406,21.5195,21.6019,21.6477,21.6477,21.7003,21.7495,21.674,21.6116,21.559,21.6379,21.6477,21.6477,21.6477,21.6477,21.6774,21.7363,21.8055,21.8844,21.9502,22.0851,22.2035,22.2035,22.236,22.2886,22.2886,22.3579,22.4105,22.4105,22.4464,22.5253,22.6077,22.6209,22.6603,22.8182,22.8445,22.8803,23.0417,23.0023,22.9533,22.9628,22.9628,22.9365,22.8576,22.762,22.7261,22.7261,22.4666,22.2921,22.2886,21.9633,21.73,21.6477,21.5161,21.3452,21.1051,21.0295,20.8586,20.5692,20.4903,20.4278,20.3488,20.2173,20.2173,20.3456,20.1189,20.0269,0.0,0.0,0.0,0.0,0.0,0.0,0.0,0.0,0.0,0.0,0.0,0.0,0.0,0.0,0.0,17.6994,17.952,18.2311,18.5731,18.6257,18.5994,18.5044,18.5439,18.6754,18.899,19.0568,19.162,19.2146,19.3299,19.5109,19.8327,19.8459,19.9611,20.2568,20.2699,20.2962,20.3488,20.5856,20.704,20.704,20.9408,0.0,21.0592,21.0855,21.0953,21.1151,21.1249,21.1479,21.1907,21.1907,21.2663,21.3846,21.1512,21.0723,21.1151,21.1249,21.1546,21.1546,21.1546,21.1546,21.1644,21.3024,21.4372,21.5556,21.6905,21.8484,0.0,21.9861,22.0643,22.1456,22.1588,22.2894,22.4367,22.4367,22.5262,22.5819,22.526,22.5552,22.5669,22.6184,22.6603,22.7225,22.8803,22.7656,22.6998,22.8803,22.9234,22.8839,22.7787,22.7393,22.7261,22.7261,22.4894,22.3543,22.4201,22.108,21.8747,21.7958,21.5424,21.2663,20.9769,20.7665,20.5593,20.3488,20.1647,20.1121,20.2336,19.9642,19.8985,20.0037,19.5302,19.4776,0.0,0.0,0.0,0.0,0.0,0.0,0.0,0.0,0.0,0.0,0.0,0.0,0.0,0.0,0.0,0.0,17.4523,17.8205,17.8628,17.8731,17.9126,18.0281,18.2648,18.4489,18.4781,18.6096,18.7937,19.0568,19.0932,19.2247,19.514,19.5403,0.0,0.0,0.0,20.0958,20.352,20.3915,20.3851,20.4047,20.4278,20.4541,20.4541,20.5856,20.6481,20.6481,20.7829,20.898,21.0131,21.0131,21.1084,21.1874,20.6645,20.5298,20.6613,20.7796,20.8355,20.8355,20.8355,0.0,0.0,20.9868,21.0525,21.092,21.24,21.4011,21.5424,21.6774,21.9787,22.3373,22.4716,22.7011,22.9154,22.9154,22.9291,22.8641,22.6001,22.6531,22.6681,22.3946,22.4499,22.5946,22.7261,22.5324,22.4368,22.6998,22.7357,22.805,22.9234,22.8014,22.7261,22.7261,22.5814,0.0,22.1606,22.0782,21.8809,21.5161,21.3485,21.1084,20.8224,20.4278,20.2568,20.352,19.9674,19.7701,19.7864,19.6092,19.5403,19.5403,18.9779,18.8727,0.0,0.0,0.0,0.0,0.0,0.0,0.0,0.0,0.0,0.0,0.0,0.0,0.0,0.0,0.0,0.0,16.9761,17.1892,17.0156,17.0709,17.2446,17.5575,17.7679,17.9624,18.1333,18.2808,18.4518,18.6593,18.6724,18.8069,19.0831,19.1853,19.3168,19.5302,19.6192,19.7275,19.8459,19.9248,20.02,20.0958,20.191,20.2699,20.3488,20.4146,20.4541,20.4541,20.5067,20.5725,20.6218,20.6218,20.6645,20.6645,0.0,0.0,0.0,0.0,20.3883,20.533,20.533,20.533,20.5462,20.6119,20.6876,20.7665,20.8191,20.9868,21.184,21.2498,21.4817,21.7486,21.9644,22.1817,22.3991,22.5633,22.7415,22.8271,22.7094,22.7745,22.8044,22.5142,22.4946,0.0,22.2516,22.2526,22.3745,22.5647,22.6699,22.7787,22.9365,22.8182,22.7656,22.8409,22.5647,22.371,22.328,22.0948,0.0,0.0,0.0,21.1249,20.9112,20.4114,0.0,0.0,0.0,19.3198,19.3198,19.0173,0.0,0.0,18.823,18.8099,0.0,0.0,0.0,0.0,0.0,0.0,0.0,0.0,0.0,0.0,0.0,0.0,0.0,0.0,0.0,0.0,16.4896,16.5948,16.4107,16.4791,16.7053,17.0999,17.2682,17.4495,17.6994,17.8994,18.0704,18.2151,18.2648,18.4123,18.7046,18.8201,18.9516,19.1387,19.2409,19.3431,19.422,19.5333,19.6486,19.8064,19.9085,20.0006,20.1121,20.1121,20.1021,20.0626,20.0626,20.0626,20.0626,20.0626,20.0858,20.0563,19.5535,19.425,19.5596,19.6881,19.8722,20.0595,20.0989,20.1121,20.1252,20.1647,20.2568,20.3293,20.3687,20.5692,20.7632,20.8027,21.0513,21.3418,21.5895,21.8828,22.1853,22.3973,22.6406,22.7966,22.7298,22.8235,22.8248,22.4302,22.3699,22.2419,21.8758,22.0409,22.3125,22.491,22.776,23.0576,23.184,23.1544,23.0932,23.0416,22.7,22.4501,22.3386,22.0028,21.7695,21.6905,21.3222,20.9901,20.7632,20.3556,19.8459,19.2146,19.0305,18.9779,0.0,0.0,0.0,0.0,0.0,0.0,0.0,0.0,0.0,0.0,0.0,0.0,0.0,0.0,0.0,0.0,0.0,0.0,0.0,0.0,0.0,0.0,0.0,0.0,16.216,16.2423,16.3607,16.6658,16.821,16.963,17.1235,17.3865,17.6101,17.7548,17.8966,18.107,18.4095,18.4226,18.557,18.8362,18.8493,18.994,19.2672,19.2702,19.3461,19.5009,19.5009,19.4978,19.4978,19.4978,19.422,19.2935,19.2935,19.2935,19.2935,19.2935,19.3856,19.4746,19.1721,19.0669,19.0962,19.2278,19.2935,19.3198,19.4614,19.4978,19.5434,19.6749,19.7306,19.7701,19.8985,20.04,20.191,20.3357,20.8987,21.482,21.6361,22.2128,22.77,22.7626,22.8931,22.942,22.6409,22.6893,22.604,22.0106,21.9118,21.8419,21.6757,21.9017,22.204,22.5135,23.1846,0.0,23.875,24.0278,23.8916,23.2861,23.0915,22.6779,21.9451,21.7563,21.5424,21.2696,20.9506,20.6087,20.1747,20.1352,19.7902,19.0699,18.7806,18.7674,19.0538,0.0,0.0,0.0,0.0,0.0,0.0,0.0,0.0,0.0,0.0,0.0,0.0,0.0,0.0,0.0,0.0,0.0,0.0,0.0,0.0,0.0,0.0,0.0,0.0,15.9423,16.0607,16.3501,16.5028,16.5817,16.5317,16.8709,17.1339,17.1761,17.3208,17.5153,17.8177,17.9126,18.0573,18.2517,18.4518,18.5965,18.7017,18.8888,19.0072,19.0568,19.2409,19.333,19.3461,19.4351,19.3957,19.2672,19.2672,19.2146,19.1225,19.1225,18.9253,18.6228,18.5205,18.5439,18.6461,18.8888,19.0436,19.162,19.3957,19.4746,19.4715,19.5403,19.5535,19.5697,19.6192,19.8454,20.1168,20.1806,20.5714,21.0545,21.3975,21.681,21.9432,22.2383,22.4331,22.5248,22.4379,22.5328,22.5128,22.0965,21.8465,21.6398,21.3791,21.7512,22.1938,22.4911,23.0139,23.4869,23.7146,23.8123,23.7788,23.5583,23.224,22.861,22.5131,22.0608,21.7325,21.5124,20.8696,20.4278,20.2962,19.7306,19.3067,19.0538,18.6754,18.4781,18.481,0.0,0.0,0.0,0.0,0.0,0.0,0.0,0.0,0.0,0.0,0.0,0.0,0.0,0.0,0.0,0.0,0.0,0.0,0.0,0.0,0.0,0.0,0.0,0.0,0.0,0.0,16.2029,16.2661,0.0,16.1634,16.4633,16.6606,16.6606,16.7947,16.9893,17.2917,17.3865,17.5312,17.7257,17.9624,18.1202,18.1756,18.4123,18.5702,18.6915,18.8727,18.991,19.0436,19.1883,19.1751,19.0305,19.0305,18.9516,18.8039,18.6491,18.3729,18.0338,17.9812,18.0441,18.2019,18.4387,18.5833,18.7119,19.0538,19.234,19.3154,19.3096,19.3368,19.364,19.364,19.5933,19.8478,19.9021,20.2756,20.7242,21.0718,21.2872,21.4648,21.7725,21.9479,22.0599,22.0599,22.1477,22.1131,21.8348,21.5543,21.318,21.2107,21.5948,22.024,22.3285,22.9519,23.497,23.7592,23.9796,24.0321,23.7367,23.4011,23.037,22.6379,22.1196,21.7053,21.5122,20.7765,20.2608,20.0463,19.3987,18.9749,18.8171,18.5541,18.3071,0.0,0.0,0.0,0.0,0.0,0.0,0.0,0.0,0.0,0.0,0.0,0.0,0.0,0.0,0.0,0.0,0.0,0.0,0.0,0.0,0.0,0.0,0.0,0.0,0.0,0.0,0.0,16.1766,16.0714,0.0,0.0,0.0,0.0,16.2029,16.3318,16.5422,16.8446,16.8578,16.992,17.284,17.426,17.5706,17.7153,17.8572,18.0807,18.3597,18.37,18.4518,18.5833,18.7309,18.7309,18.5965,18.5965,18.5176,18.3437,17.8994,17.7153,17.7022,17.5575,17.5838,17.7313,17.8712,17.9426,18.0113,18.4631,18.7976,19.0228,19.0094,19.0697,19.148,19.1342,19.2329,0.0,0.0,19.9975,20.4934,20.6619,21.0391,21.3506,21.3649,21.477,21.5911,21.5911,21.5911,21.5055,21.163,20.9885,20.9496,21.1063,0.0,21.7055,22.0168,22.9985,23.7483,23.9148,24.4737,24.5674,23.8312,23.6027,23.1966,22.4277,21.9418,21.5356,21.2487,20.6483,20.0586,19.4951,19.1812,18.8201,18.4095,18.3832,0.0,0.0,0.0,0.0,0.0,0.0,0.0,0.0,0.0,0.0,0.0,0.0,0.0,0.0,0.0,0.0,0.0,0.0,0.0,0.0,0.0,0.0,0.0,0.0,0.0,0.0,15.2428,15.3612,15.7163,15.6217,15.5034,0.0,0.0,0.0,0.0,0.0,0.0,16.387,16.4001,16.5317,16.8368,16.9788,17.1235,17.2682,17.5153,17.6232,17.5997,17.9229,18.0413,17.9783,18.2442,18.3363,18.2969,18.1859,18.107,18.0281,17.4917,17.2682,17.255,17.1103,17.0813,17.145,17.4575,17.6504,17.8314,18.4556,18.7872,18.9455,18.943,18.9604,18.9297,18.7002,0.0,0.0,0.0,0.0,20.0198,20.4176,20.675,20.9204,21.1487,21.2486,21.2629,21.2629,21.2629,21.1059,0.0,20.4146,20.4276,20.5818,0.0,0.0,0.0,0.0,23.1323,23.4058,23.8887,24.1191,23.9252,23.6621,23.3253,22.8841,22.3182,21.7462,21.2241,20.4521,19.8483,19.4565,18.8845,18.465,18.2574,0.0,0.0,0.0,0.0,0.0,0.0,0.0,0.0,0.0,0.0,0.0,0.0,0.0,0.0,0.0,0.0,0.0,0.0,0.0,0.0,0.0,0.0,0.0,0.0,0.0,0.0,0.0,14.8351,15.0587,15.3636,15.3349,15.2559,0.0,0.0,0.0,0.0,0.0,0.0,0.0,0.0,0.0,16.387,16.5817,16.7395,16.8183,17.1734,17.3339,17.3235,17.6232,17.7679,17.7548,17.9915,18.0573,17.9943,17.8994,17.7651,17.5547,17.1761,16.9394,16.8078,0.0,0.0,0.0,0.0,17.2469,17.4774,18.0844,18.4642,18.7015,18.6969,0.0,0.0,0.0,0.0,0.0,0.0,0.0,19.7094,20.0357,20.2925,20.5066,20.6778,20.737,20.737,20.737,20.5045,20.2192,0.0,19.7931,19.8644,20.0785,0.0,0.0,0.0,0.0,22.7185,23.0895,23.5604,23.8744,23.8744,23.6318,23.3464,22.9445,22.4074,21.823,21.1997,20.3742,19.715,19.2761,18.6871,18.2735,0.0,0.0,0.0,0.0,0.0,0.0,0.0,0.0,0.0,0.0,0.0,0.0,0.0,0.0,0.0,0.0,0.0,0.0,0.0,0.0,0.0,0.0,0.0,0.0,0.0,0.0,0.0,0.0,0.0,14.8482,15.0216,0.0,0.0,0.0,0.0,0.0,0.0,0.0,0.0,0.0,0.0,0.0,0.0,0.0,16.3161,16.3555,16.7552,17.0183,17.1262,17.3076,17.4523,17.5575,17.6994,17.7257,17.6627,17.5838,0.0,16.9788,16.821,0.0,0.0,0.0,0.0,0.0,0.0,0.0,0.0,0.0,0.0,0.0,0.0,0.0,0.0,0.0,0.0,0.0,0.0,0.0,0.0,0.0,0.0,20.0805,20.0805,20.0785,20.0785,20.0214,19.5933,19.2061,19.2061,19.1918,0.0,0.0,0.0,0.0,0.0,0.0,0.0,22.8327,23.3321,23.6484,23.677,23.5342,23.2465,22.7876,22.3189,21.7928,21.1817,20.3554,19.6353,19.0694,18.5902,0.0,0.0,0.0,0.0,0.0,0.0,0.0,0.0,0.0,0.0,0.0,0.0,0.0,0.0,0.0,0.0,0.0,0.0,0.0,0.0,0.0,0.0,0.0,0.0,0.0,0.0,0.0,0.0,0.0,0.0,0.0,0.0,0.0,0.0,0.0,0.0,0.0,0.0,0.0,0.0,0.0,0.0,0.0,0.0,0.0,0.0,0.0,0.0,0.0,0.0,16.4502,16.5817,16.5054,16.65,16.8999,17.1892,16.7026,16.4527,16.3607,16.1002,0.0,0.0,0.0,0.0,0.0,0.0,0.0,0.0,0.0,0.0,0.0,0.0,0.0,0.0,0.0,0.0,0.0,0.0,0.0,0.0,0.0,0.0,19.4201,19.4201,19.52,19.5219,19.1223,0.0,0.0,0.0,0.0,0.0,0.0,0.0,0.0,0.0,0.0,0.0,22.1784,22.7613,23.1894,23.3202,23.1894,22.9611,22.6208,22.1619,21.6189,20.994,20.2403,19.5918,0.0,0.0,0.0,0.0,0.0,0.0,0.0,0.0,0.0,0.0,0.0,0.0,0.0,0.0,0.0,0.0,0.0,0.0,0.0,0.0,0.0,0.0,0.0,0.0,0.0,0.0,0.0,0.0,0.0,0.0,0.0,0.0,0.0,0.0,0.0,0.0,0.0,0.0,0.0,0.0,0.0,0.0,0.0,0.0,0.0,0.0,0.0,0.0,0.0,0.0,0.0,0.0,0.0,0.0,0.0,0.0,0.0,0.0,0.0,16.0081,0.0,0.0,0.0,0.0,0.0,0.0,0.0,0.0,0.0,0.0,0.0,0.0,0.0,0.0,0.0,0.0,0.0,0.0,0.0,0.0,0.0,0.0,0.0,0.0,0.0,0.0,0.0,0.0,0.0,0.0,0.0,0.0,0.0,0.0,0.0,0.0,0.0,0.0,0.0,0.0,21.9786,22.4188,22.7756,23.0895,23.061,22.8184,22.3497,22.0214,21.534,20.8369,20.0194,0.0,0.0,0.0,0.0,0.0,0.0,0.0,0.0,0.0,0.0,0.0,0.0,0.0,0.0,0.0,0.0,0.0,0.0,0.0,0.0,0.0,0.0,0.0,0.0,0.0,0.0,0.0,0.0,0.0,0.0,0.0,0.0,0.0,0.0,0.0,0.0,0.0,0.0,0.0,0.0,0.0,0.0,0.0,0.0,0.0,0.0,0.0,0.0,0.0,0.0,0.0,0.0,0.0,0.0,0.0,0.0,0.0,0.0,0.0,15.8897,0.0,0.0,0.0,0.0,0.0,0.0,0.0,0.0,0.0,0.0,0.0,0.0,0.0,0.0,0.0,0.0,0.0,0.0,0.0,0.0,0.0,0.0,0.0,0.0,0.0,0.0,0.0,0.0,0.0,0.0,0.0,0.0,0.0,0.0,0.0,0.0,0.0,0.0,0.0,0.0,0.0,21.8073,22.1191,22.4474,22.9183,22.9325,22.6899,22.1213,21.8623,21.4199,20.6799,19.8498,0.0,0.0,0.0,0.0,0.0,0.0,0.0,0.0,0.0,0.0,0.0,0.0,0.0,0.0,0.0,0.0,0.0,0.0,0.0,0.0,0.0,0.0,0.0,0.0,0.0,0.0,0.0,0.0,0.0,0.0,0.0,0.0,0.0,0.0,0.0,0.0,0.0,0.0,0.0,0.0,0.0,0.0,0.0,0.0,0.0,0.0,0.0,0.0,0.0,0.0,0.0,0.0,0.0,0.0,0.0,0.0,0.0,0.0,0.0,0.0,0.0,0.0,0.0,0.0,0.0,0.0,0.0,0.0,0.0,0.0,0.0,0.0,0.0,0.0,0.0,0.0,0.0,0.0,0.0,0.0,0.0,0.0,0.0,0.0,0.0,0.0,0.0,0.0,0.0,0.0,0.0,0.0,0.0,0.0,0.0,0.0,0.0,0.0,0.0,0.0,0.0,21.3221,21.8359,22.2761,22.759,22.6899,22.4496,22.1071,21.6789,21.1508,20.4903,0.0,0.0,0.0,0.0,0.0,0.0,0.0,0.0,0.0,0.0,0.0,0.0,0.0,0.0,0.0,0.0,0.0,0.0,0.0,0.0,0.0,0.0,0.0,0.0,0.0,0.0,0.0,0.0,0.0,0.0,0.0,0.0,0.0,0.0,0.0,0.0,0.0,0.0,0.0,0.0,0.0,0.0,0.0,0.0,0.0,0.0,0.0,0.0,0.0,0.0,0.0,0.0,0.0,0.0,0.0,0.0,0.0,0.0,0.0,0.0,0.0,0.0,0.0,0.0,0.0,0.0,0.0,0.0,0.0,0.0,0.0,0.0,0.0,0.0,0.0,0.0,0.0,0.0,0.0,0.0,0.0,0.0,0.0,0.0,0.0,0.0,0.0,0.0,0.0,0.0,0.0,0.0,0.0,0.0,0.0,0.0,0.0,0.0,0.0,0.0,0.0,0.0,20.9939,21.422,21.8502,22.3211,22.2904,22.1071,21.6932,21.4955,21.0367,20.1906,0.0,0.0,0.0,0.0,0.0,0.0,0.0,0.0,0.0,0.0,0.0,0.0,0.0,0.0,0.0,0.0,0.0,0.0,0.0,0.0,0.0,0.0,0.0,0.0,0.0,0.0,0.0,0.0,0.0,0.0,0.0,0.0,0.0,0.0,0.0,0.0,0.0,0.0,0.0,0.0,0.0,0.0,0.0,0.0,0.0,0.0,0.0,0.0,0.0,0.0,0.0,0.0,0.0,0.0,0.0,0.0,0.0,0.0,0.0,0.0,0.0,0.0,0.0,0.0,0.0,0.0,0.0,0.0,0.0,0.0,0.0,0.0,0.0,0.0,0.0,0.0,0.0,0.0,0.0,0.0,0.0,0.0,0.0,0.0,0.0,0.0,0.0,0.0,0.0,0.0,0.0,0.0,0.0,0.0,0.0,0.0,0.0,0.0,0.0,0.0,0.0,0.0,20.737,21.1508,21.5505,22.0214,22.0357,21.8502,21.422,21.3099,20.8511,19.948,0.0,0.0,0.0,0.0,0.0,0.0,0.0,0.0,0.0,0.0,0.0,0.0,0.0,0.0,0.0,0.0,0.0,0.0,0.0,0.0,0.0,0.0,0.0,0.0,0.0,0.0,0.0,0.0,0.0,0.0,0.0,0.0,0.0,0.0,0.0,0.0,0.0,0.0,0.0,0.0,0.0,0.0,0.0,0.0,0.0,0.0,0.0,0.0,0.0,0.0,0.0,0.0,0.0,0.0,0.0,0.0,0.0,0.0,0.0,0.0,0.0,0.0,0.0,0.0,0.0,0.0,0.0,0.0,0.0,0.0,0.0,0.0,0.0,0.0,0.0,0.0,0.0,0.0,0.0,0.0,0.0,0.0,0.0,0.0,0.0,0.0,0.0,0.0,0.0,0.0,0.0,0.0,0.0,0.0,0.0,0.0,0.0,0.0,0.0,0.0,0.0,0.0,20.5494,21.0938,21.5505,22.0214,21.9501,21.736,21.4077,21.0938,20.582,0.0,0.0,0.0,0.0,0.0,0.0,0.0,0.0,0.0,0.0,0.0,0.0,0.0,0.0,0.0,0.0,0.0,0.0,0.0,0.0,0.0,0.0,0.0,0.0,0.0,0.0,0.0,0.0,0.0,0.0,0.0,0.0,0.0,0.0,0.0,0.0,0.0,0.0,0.0,0.0,0.0,0.0,0.0,0.0,0.0,0.0,0.0,0.0,0.0,0.0,0.0,0.0,0.0,0.0,0.0,0.0,0.0,0.0,0.0,0.0,0.0,0.0,0.0,0.0,0.0,0.0,0.0,0.0,0.0,0.0,0.0,0.0,0.0,0.0,0.0,0.0,0.0,0.0,0.0,0.0,0.0,0.0,0.0,0.0,0.0,0.0,0.0,0.0,0.0,0.0,0.0,0.0,0.0,0.0,0.0,0.0,0.0,0.0,0.0,0.0,0.0,0.0,0.0,20.2497,20.8633,21.3628,0.0,21.7174,21.5626,21.2486,21.0367,20.5229,19.638,0.0,0.0,0.0,0.0,0.0,0.0,0.0,0.0,0.0,0.0,0.0,0.0,0.0,0.0,0.0,0.0,0.0,0.0,0.0,0.0,0.0,0.0,0.0,0.0,0.0,0.0,0.0,0.0,0.0,0.0,0.0,0.0,0.0,0.0,0.0,0.0,0.0,0.0,0.0,0.0,0.0,0.0,0.0,0.0,0.0,0.0,0.0,0.0,0.0,0.0,0.0,0.0,0.0,0.0,0.0,0.0,0.0,0.0,0.0,0.0,0.0,0.0,0.0,0.0,0.0,0.0,0.0,0.0,0.0,0.0,0.0,0.0,0.0,0.0,0.0,0.0,0.0,0.0,0.0,0.0,0.0,0.0,0.0,0.0,0.0,0.0,0.0,0.0,0.0,0.0,0.0,0.0,0.0,0.0,0.0,0.0,0.0,0.0,0.0,0.0,0.0,0.0,0.0,20.7084,21.2079,0.0,21.5604,21.4056,21.0938,20.8633,20.3496,19.4629,0.0,0.0,0.0,0.0,0.0,0.0,0.0,0.0,0.0,0.0,0.0,0.0,0.0,0.0,0.0,0.0,0.0,0.0,0.0,0.0,0.0,0.0,0.0,0.0,0.0,0.0,0.0,0.0,0.0,0.0,0.0,0.0,0.0,0.0,0.0,0.0,0.0,0.0,0.0,0.0,0.0,0.0,0.0,0.0,0.0,0.0,0.0,0.0,0.0,0.0,0.0,0.0,0.0,0.0,0.0,0.0,0.0,0.0,0.0,0.0,0.0,0.0,0.0,0.0,0.0,0.0,0.0,0.0,0.0,0.0,0.0,0.0,0.0,0.0,0.0,0.0,0.0,0.0,0.0,0.0,0.0,0.0,0.0,0.0,0.0,0.0,0.0,0.0,0.0,0.0,0.0,0.0,0.0,0.0,0.0,0.0,0.0,0.0,0.0,0.0,0.0,0.0,0.0,20.6106,21.0652,21.5626,21.4627,21.2507,20.9368,20.6065,20.0602,19.2917,18.8065,0.0,0.0,0.0,0.0,0.0,0.0,0.0,0.0,0.0,0.0,0.0,0.0,0.0,0.0,0.0,0.0,0.0,0.0,0.0,0.0,0.0,0.0,0.0,0.0,0.0,0.0,0.0,0.0,0.0,0.0,0.0,0.0,0.0,0.0,0.0,0.0,0.0,0.0,0.0,0.0,0.0,0.0,0.0,0.0,0.0,0.0,0.0,0.0,0.0,0.0,0.0,0.0,0.0,0.0,0.0,0.0,0.0,0.0,0.0,0.0,0.0,0.0,0.0,0.0,0.0,0.0,0.0,0.0,0.0,0.0,0.0,0.0,0.0,0.0,0.0,0.0,0.0,0.0,0.0,0.0,0.0,0.0,0.0,0.0,0.0,0.0,0.0,0.0,0.0,0.0,0.0,0.0,0.0,0.0,0.0,0.0,0.0,0.0,0.0,0.0,0.0,0.0,20.4352,20.9225,21.3771,21.3078,21.1366,20.9388,20.3924,19.7911,19.1223,18.6514,0.0,0.0,0.0,0.0,0.0,0.0,0.0,0.0,0.0,0.0,0.0,0.0,0.0,0.0,0.0,0.0,0.0,0.0,0.0,0.0,0.0,0.0,0.0,0.0,0.0,0.0,0.0,0.0,0.0,0.0,0.0,0.0,0.0,0.0,0.0,0.0,0.0,0.0,0.0,0.0,0.0,0.0,0.0,0.0,0.0,0.0,0.0,0.0,0.0,0.0,0.0,0.0,0.0,0.0,0.0,0.0,0.0,0.0,0.0,0.0,0.0,0.0,0.0,0.0,0.0,0.0,0.0,0.0,0.0,0.0,0.0,0.0,0.0,0.0,0.0,0.0,0.0,0.0,0.0,0.0,0.0,0.0,0.0,0.0,0.0,0.0,0.0,0.0,0.0,0.0,0.0,0.0,0.0,0.0,0.0,0.0,0.0,0.0,0.0,0.0,0.0,0.0,19.6504,20.3373,21.0958,21.0367,20.8369,20.6085,20.0805,19.4506,18.7532,18.2661,0.0,0.0,0.0,0.0,0.0,0.0,0.0,0.0,0.0,0.0,0.0,0.0,0.0,0.0,0.0,0.0,0.0,0.0,0.0,0.0,0.0,0.0,0.0,0.0,0.0,0.0,0.0,0.0,0.0,0.0,0.0,0.0,0.0,0.0,0.0,0.0,0.0,0.0,0.0,0.0,0.0,0.0,0.0,0.0,0.0,0.0,0.0,0.0,0.0,0.0,0.0,0.0,0.0,0.0,0.0,0.0,0.0,0.0,0.0,0.0,0.0,0.0,0.0,0.0,0.0,0.0,0.0,0.0,0.0,0.0,0.0,0.0,0.0,0.0,0.0,0.0,0.0,0.0,0.0,0.0,0.0,0.0,0.0,0.0,0.0,0.0,0.0,0.0,0.0,0.0,0.0,0.0,0.0,0.0,0.0,0.0,0.0,0.0,0.0,0.0,0.0,0.0,0.0,19.5771,20.58,20.6656,20.5229,20.2212,19.7237,19.11,18.3821,0.0,0.0,0.0,0.0,0.0,0.0,0.0,0.0,0.0,0.0,0.0,0.0,0.0,0.0,0.0,0.0,0.0,0.0,0.0,0.0,0.0,0.0,0.0,0.0,0.0,0.0,0.0,0.0,0.0,0.0,0.0,0.0,0.0,0.0,0.0,0.0,0.0,0.0,0.0,0.0,0.0,0.0,0.0,0.0,0.0,0.0,0.0,0.0,0.0,0.0,0.0,0.0,0.0,0.0,0.0,0.0,0.0,0.0,0.0,0.0,0.0,0.0,0.0,0.0,0.0,0.0,0.0,0.0,0.0,0.0,0.0,0.0,0.0,0.0,0.0,0.0,0.0,0.0,0.0,0.0,0.0,0.0,0.0,0.0,0.0,0.0,0.0,0.0,0.0,0.0,0.0,0.0,0.0,0.0,0.0,0.0,0.0,0.0,0.0,0.0,0.0,0.0,0.0,0.0,0.0,19.6504,20.1784,20.3904,20.2232,19.5219,18.8816,18.3678,0.0,0.0,0.0,0.0,0.0,0.0,0.0,0.0,0.0,0.0,0.0,0.0,0.0,0.0]}],[{"header":{"parameterUnit":"kt","parameterCategory":2,"dx":1,"dy":1,"la1":29.285339999999998,"la2":30.599998999999997,"lo1":-89.70041500000002,"lo2":-87.6738589999976,"nx":112,"ny":82,"refTime":"2022-09-27T12:00:00:Z","depth":0,"parameterNumber":2,"parameterNumberName":"V-component_of_WINDS"},"data":[19.1291,19.0838,0.0,19.4972,19.5524,0.0,19.8647,0.0,0.0,0.0,0.0,0.0,0.0,0.0,0.0,0.0,0.0,0.0,0.0,19.4577,18.8352,17.5998,16.7616,16.0853,15.5869,15.5431,15.452,15.2318,15.3081,15.2846,15.0572,15.0951,15.1635,15.2618,15.3305,15.4144,15.4902,15.4902,15.4902,15.4976,15.6115,15.7024,15.7481,15.8696,15.9456,15.9912,15.9912,15.9912,15.9912,15.9912,15.9912,15.9912,15.9912,15.9912,15.9912,15.9912,15.9912,15.9912,15.9912,15.9912,15.9912,15.9912,15.9912,15.9912,15.9912,15.9912,16.0063,16.0367,16.0291,16.0063,16.0367,16.0443,16.0595,16.1202,16.1734,16.2494,16.3403,16.3936,16.4315,16.4925,16.5077,16.5077,16.5077,16.4087,16.31,16.2645,16.181,16.105,16.0063,16.0822,16.1506,16.1734,16.2416,16.3099,16.363,16.4543,16.4771,16.4163,16.386,16.3555,16.3252,16.31,16.3176,16.363,16.401,16.4391,16.5077,16.4391,16.4391,16.4999,16.4087,16.401,0.0,0.0,19.0093,19.445,0.0,0.0,0.0,0.0,0.0,0.0,0.0,0.0,0.0,0.0,0.0,0.0,0.0,0.0,0.0,19.9851,19.677,18.7108,17.1876,15.9921,15.4196,15.4447,15.3764,15.1027,15.2853,15.3001,15.0263,15.1103,15.1938,15.2618,15.3609,15.4444,15.4902,15.4902,15.4902,15.4976,15.5885,15.6646,15.7481,15.8014,15.8772,15.9607,15.9607,15.9607,15.9607,15.9836,15.9912,15.9912,15.9912,15.9912,15.9912,15.9912,15.9912,15.9912,15.9912,15.9912,15.9912,15.9912,15.9912,15.9912,15.9912,15.9912,15.9912,15.9912,15.9912,15.9912,15.9912,15.9912,16.0139,16.0746,16.1126,16.1582,16.2645,16.3328,16.386,16.4391,16.4849,16.5077,16.5077,16.4087,16.2947,16.2266,16.1734,16.105,16.0063,16.0519,16.105,16.1278,16.181,16.2493,16.3555,16.3936,16.4315,16.4543,16.4315,16.401,16.3708,16.348,16.3328,16.3252,16.386,16.4315,16.4543,16.4315,16.4391,16.4999,16.4391,16.4391,19.0838,0.0,0.0,19.3766,0.0,0.0,0.0,0.0,19.829,0.0,0.0,0.0,0.0,0.0,0.0,0.0,0.0,0.0,0.0,19.7866,19.9396,20.0176,18.6199,16.9884,15.3109,15.3526,15.3381,15.0192,15.3001,15.346,15.0192,15.1635,15.2618,15.2618,15.4065,15.4902,15.4902,15.4902,15.4902,15.4976,15.5811,15.6646,15.7481,15.7481,15.7937,15.8772,15.8772,15.8772,15.8924,15.9683,15.9912,15.9912,15.9912,15.9912,15.9912,15.9912,15.9912,15.9912,15.9912,15.9912,15.9912,15.9912,15.9912,15.9912,15.9912,15.9912,15.9912,15.9912,15.9912,15.9912,15.9912,15.9912,15.9912,15.9912,16.067,16.1278,16.1354,16.2493,16.3632,16.363,16.4315,16.5001,16.5001,16.3633,16.2189,16.1506,16.1354,16.105,16.0063,16.0063,16.0367,16.1202,16.1278,16.1961,16.348,16.2948,16.2873,16.363,16.4543,16.4619,16.3782,16.4543,16.4163,16.2645,16.4087,16.4543,16.3708,16.4543,16.4999,16.5077,16.4999,16.5001,18.9374,0.0,0.0,0.0,0.0,0.0,0.0,0.0,0.0,0.0,0.0,0.0,0.0,0.0,19.9071,19.8452,0.0,19.8321,19.829,19.7476,19.4771,18.8692,18.3344,17.3926,15.7659,15.3225,15.0268,14.7458,15.0951,15.201,14.9281,15.1255,15.2618,15.2618,15.4065,15.4902,15.4902,15.4902,15.4902,15.4902,15.5203,15.5735,15.657,15.657,15.7404,15.8772,15.8772,15.9152,15.9683,15.9911,15.9912,15.9912,15.9912,15.9912,15.9912,15.9912,15.9912,15.9912,15.9912,15.9912,15.9912,15.9912,15.9912,15.9912,15.9912,15.9912,15.9912,15.9912,15.9912,15.9912,15.9912,15.9912,15.9912,15.9912,16.0139,16.0594,16.1202,16.1734,16.2189,16.2721,16.3024,16.3176,16.3176,16.2342,16.1582,16.1354,16.1354,16.105,16.0063,16.0595,16.0822,16.0367,16.0974,16.1506,16.1961,16.2265,16.2873,16.363,16.4543,16.4925,16.4619,16.3708,16.3556,16.4315,16.3025,16.31,16.4619,16.4315,16.4391,16.4999,16.3784,16.348,0.0,0.0,0.0,0.0,0.0,0.0,19.4547,0.0,19.7119,0.0,0.0,0.0,0.0,0.0,0.0,0.0,19.7866,19.7442,19.6695,19.5914,19.3574,18.8484,18.0663,17.2398,16.3998,15.5512,14.9585,14.7389,15.0875,15.1938,14.9357,15.1027,15.2166,15.2618,15.3761,15.4599,15.4902,15.4902,15.4902,15.4902,15.4902,15.5431,15.6267,15.5887,15.6418,15.7784,15.7784,15.8166,15.8925,15.938,15.9683,15.9912,15.9608,15.9683,15.9912,15.9912,15.9912,15.9912,15.9912,15.9912,15.9912,15.9912,15.9912,15.9912,15.9912,15.9912,15.9912,15.9912,15.9912,15.9912,15.9912,15.9912,15.9912,15.9912,15.9912,16.0139,16.067,16.105,16.1506,16.1961,16.2265,16.2265,16.1582,16.105,16.0822,16.0822,16.0822,16.0595,16.0063,16.0443,16.0595,16.0063,16.0443,16.0898,16.1278,16.1354,16.1961,16.3099,16.3632,16.3936,16.3936,16.3024,16.2645,16.2949,16.2189,16.2493,16.3936,16.3404,16.3403,16.3937,16.2645,16.2417,0.0,0.0,0.0,0.0,18.5469,0.0,0.0,0.0,19.5426,19.9623,0.0,19.9266,20.0046,0.0,0.0,19.6466,19.6695,19.6402,19.3474,19.3474,19.3514,19.2432,17.8127,16.8459,16.8738,15.8432,15.0966,14.8825,15.1635,15.2394,15.0192,15.0799,15.1635,15.2394,15.3305,15.4065,15.4751,15.4902,15.4902,15.4902,15.4902,15.5355,15.6115,15.5279,15.5431,15.634,15.634,15.6796,15.7483,15.8317,15.9152,15.9835,15.9077,15.9228,15.9836,15.9912,15.9912,15.9912,15.9912,15.9912,15.9912,15.9912,15.9912,15.9912,15.9912,15.9912,15.9912,15.9912,15.9912,15.9912,15.9912,15.9912,15.9912,15.9912,15.9912,15.9912,15.9912,16.0595,16.1202,16.1202,16.1734,16.1734,16.0291,15.9912,15.9912,15.9912,15.9912,15.9912,15.9912,15.9912,15.9912,15.9912,15.9912,16.0291,16.1126,16.0443,16.0595,16.2265,16.2417,16.2416,16.2645,16.2493,16.181,16.0291,16.1506,16.2266,16.2493,16.2189,16.2037,16.2037,16.1354,16.1506,0.0,0.0,0.0,0.0,0.0,18.625,0.0,0.0,0.0,19.7476,19.7476,19.6695,19.6924,19.689,19.65,19.6173,19.5524,19.4743,19.4191,19.2107,18.7942,18.0482,17.6572,17.0096,15.9269,15.6615,15.3672,14.9018,15.0035,15.0567,15.004,15.0799,15.1335,15.1483,15.3001,15.3837,15.3989,15.4672,15.4902,15.4902,15.4902,15.4978,15.5203,15.4978,15.5431,15.634,15.634,15.6796,15.7481,15.7709,15.8241,15.9,15.8924,15.8924,15.9152,15.9684,15.9912,15.9912,15.9912,15.9912,15.9912,15.9912,15.9912,15.9912,15.9912,15.9912,15.9912,15.9912,15.9912,15.9912,15.9912,15.9912,15.9912,15.9912,15.9912,15.9912,15.9912,16.0139,16.0291,16.0291,16.0367,16.0367,16.0063,15.9912,15.9912,15.9912,15.9912,15.9912,15.9912,15.9912,15.9912,15.9912,15.9912,16.0063,16.0291,16.0063,16.0367,16.1506,16.1582,16.219,16.3404,16.2873,16.2417,16.2037,16.0367,16.0519,16.2493,16.0519,15.9531,15.9456,15.938,15.9683,18.1662,0.0,0.0,18.1565,0.0,0.0,0.0,19.0838,19.2986,19.6368,19.6466,19.6173,19.6173,19.6173,19.6173,19.6173,19.5196,19.3801,19.224,19.0581,18.7496,18.1985,17.5052,16.818,16.1146,15.5387,15.1012,14.827,14.9351,15.004,15.004,15.0491,15.0799,15.1184,15.2546,15.3378,15.3761,15.452,15.4902,15.4902,15.4902,15.4902,15.4902,15.4902,15.5203,15.5657,15.5657,15.6115,15.6872,15.6872,15.7102,15.7556,15.7556,15.7785,15.8165,15.8544,15.9,15.938,15.938,15.9608,15.9912,15.9912,15.9912,15.9912,15.9912,15.9912,15.9912,15.9912,15.9912,15.9912,15.9912,15.9912,15.9912,15.9912,15.9912,15.9912,15.9912,15.9912,15.9912,15.9912,15.9304,15.8696,15.8696,15.8696,15.8924,15.938,15.9,15.8924,15.938,15.938,15.938,15.938,15.9684,15.9836,15.9456,15.9684,16.0063,16.0063,16.0822,16.1506,16.181,16.181,16.1734,16.1278,15.9608,15.9455,16.0595,15.8089,15.733,15.8165,15.8165,15.8317,18.0393,18.0647,0.0,0.0,0.0,0.0,18.697,18.9374,19.1779,19.4547,19.5392,19.5489,19.5489,19.5489,19.5489,19.5489,19.4743,19.302,18.9933,18.9605,18.7743,18.2908,17.247,16.4639,16.2035,15.3164,14.761,14.7756,14.9129,15.004,15.004,15.004,15.0344,15.0956,15.1862,15.2694,15.3533,15.4292,15.4751,15.4902,15.4902,15.4902,15.4902,15.4902,15.4902,15.4902,15.4902,15.5355,15.5963,15.5963,15.5963,15.6039,15.6188,15.6646,15.7254,15.7404,15.7937,15.8544,15.8544,15.8925,15.9456,15.9683,15.9684,15.9835,15.9912,15.9912,15.9912,15.9912,15.9912,15.9912,15.9835,15.9684,15.9683,15.9532,15.9456,15.9456,15.9456,15.9456,15.9456,15.9456,15.8393,15.7481,15.7481,15.7481,15.7709,15.8469,15.7937,15.7709,15.8469,15.8544,15.862,15.8772,15.938,15.9607,15.9077,15.9456,15.9456,15.8848,16.0139,16.0595,16.0063,16.0671,16.0822,16.0291,15.9456,15.8999,15.8772,15.6344,15.5813,15.7026,15.733,15.7481,18.012,18.01,18.0354,18.1174,18.2307,0.0,18.6055,18.8202,19.0093,19.1521,19.256,19.3244,19.3244,19.3244,19.3244,19.3244,19.3083,19.2267,19.0057,18.9667,18.4235,16.9637,16.6575,16.1072,14.9491,14.7897,14.7838,14.8592,14.9509,15.004,15.004,15.004,15.0111,15.0192,15.0951,15.1862,15.2694,15.3533,15.4219,15.4902,15.4902,15.4902,15.4902,15.4902,15.4902,15.4902,15.4902,15.4976,15.5128,15.5128,15.5128,15.513,15.596,15.6342,15.6568,15.7254,15.7483,15.7557,15.7557,15.7709,15.7861,15.8696,15.8924,15.9,15.9835,15.9912,15.9912,15.9912,15.9912,15.9835,15.9152,15.8924,15.8696,15.7937,15.7711,15.7711,15.7711,15.7711,15.7711,15.7711,15.7557,15.7481,15.7481,15.7481,15.7481,15.7557,15.7483,15.7481,15.7557,15.7557,15.7937,15.8696,15.8924,15.9153,15.9835,15.9304,15.8924,15.8772,15.9,15.938,15.9912,16.0063,16.0443,16.1202,16.0291,15.9456,15.8772,15.7026,15.5811,15.5206,15.6798,15.7481,17.9124,17.9124,17.9475,18.1135,0.0,0.0,18.5957,18.8105,18.9898,19.1033,19.2072,19.279,19.279,19.279,19.279,19.279,19.279,19.2107,19.0057,18.9667,18.5296,17.3185,16.8116,16.2055,15.3173,14.941,14.7908,14.8668,14.9579,15.004,15.004,15.004,15.004,15.004,15.1402,15.2166,15.2618,15.3837,15.4599,15.4902,15.4902,15.4902,15.4902,15.4902,15.4902,15.4902,15.4902,15.4902,15.4902,15.4902,15.4902,15.4976,15.5355,15.5434,15.5507,15.5887,15.6342,15.6798,15.6798,15.71,15.7483,15.7937,15.8013,15.8165,15.9,15.9304,15.938,15.9836,15.9608,15.9228,15.8924,15.8772,15.8696,15.8317,15.8241,15.8089,15.7557,15.7481,15.7102,15.6117,15.5963,15.5963,15.5963,15.5963,15.6117,15.6646,15.6342,15.6117,15.6646,15.6798,15.7102,15.7937,15.8469,15.8924,15.9228,15.9,15.8544,15.8013,15.8013,15.8467,15.9228,15.9304,15.9683,16.0519,15.9683,15.8924,15.8013,15.733,15.657,15.5735,15.6418,15.6798,17.8246,0.0,0.0,0.0,0.0,0.0,18.5469,18.7421,18.9179,19.0545,19.1619,19.2497,19.279,19.279,19.279,19.279,19.279,19.2107,18.9959,18.8024,18.3425,17.4258,16.709,16.035,15.4309,14.9729,14.761,14.8597,14.9281,14.9812,15.004,15.004,15.004,15.004,15.1251,15.2162,15.2618,15.3761,15.452,15.4902,15.4902,15.4902,15.4902,15.4902,15.4902,15.4902,15.4902,15.4902,15.4902,15.4902,15.4902,15.4902,15.4902,15.4902,15.4902,15.4902,15.5355,15.5887,15.5887,15.634,15.6798,15.7026,15.7102,15.7328,15.8165,15.8469,15.862,15.9456,15.9228,15.8923,15.9077,15.8925,15.8695,15.7937,15.7785,15.7481,15.6572,15.657,15.6342,15.49,15.4751,15.4902,15.4902,15.4902,15.513,15.5811,15.5355,15.513,15.5811,15.5887,15.6191,15.7026,15.7937,15.8544,15.8772,15.8772,15.8469,15.7483,15.7481,15.7709,15.8088,15.8544,15.8999,15.9304,15.9153,15.8544,15.7481,15.7254,15.6646,15.5887,15.5887,15.6112,0.0,0.0,0.0,18.1076,18.1565,18.215,18.4358,18.5762,18.7129,18.9153,19.0545,19.1584,19.2595,19.279,19.279,19.279,19.279,19.2045,18.9836,18.3746,17.6142,16.7031,15.9817,15.3237,14.7057,14.6313,14.6927,14.8597,14.8673,14.9129,15.004,15.004,15.004,15.004,15.0111,15.0951,15.2618,15.2618,15.3381,15.4902,15.4902,15.4902,15.4902,15.4902,15.4902,15.4902,15.4902,15.4902,15.4902,15.4902,15.4902,15.4902,15.4902,15.4902,15.4902,15.4902,15.4976,15.4976,15.4976,15.4976,15.513,15.6039,15.634,15.6418,15.7254,15.7481,15.7709,15.862,15.8772,15.9,15.9684,15.938,15.8165,15.5659,15.4978,15.49,15.3992,15.4447,15.4748,15.3989,15.4444,15.4902,15.4902,15.4902,15.4902,15.4976,15.4976,15.4902,15.4976,15.4976,15.5355,15.6191,15.7026,15.7861,15.8696,15.8772,15.8469,15.7483,15.7481,15.7102,15.6342,15.7937,15.8467,15.7557,15.9152,15.9152,15.7481,15.6646,15.5887,15.4976,15.4976,15.5431,17.5805,17.6724,17.7758,17.9964,18.0549,18.1331,18.42,18.5664,18.7031,18.9179,19.0545,19.1584,19.2595,19.279,19.279,19.279,19.279,19.2107,18.9898,18.7556,18.0951,16.7289,16.3537,15.7927,14.7263,14.6175,14.6699,14.7838,14.844,14.8825,14.9129,14.9736,15.004,15.004,15.004,15.0339,15.0947,15.201,15.2546,15.247,15.3077,15.3609,15.4144,15.4144,15.4444,15.4902,15.4902,15.4902,15.4902,15.4902,15.4902,15.4902,15.4902,15.4902,15.4902,15.4902,15.4902,15.4902,15.4902,15.4902,15.4976,15.5206,15.5358,15.5583,15.6416,15.6646,15.7024,15.8467,15.8393,15.8089,15.9,15.8544,15.7481,15.5431,15.5431,15.5355,15.3378,15.3229,15.3457,15.3688,15.4444,15.4902,15.4902,15.4902,15.4902,15.4902,15.4902,15.4902,15.4902,15.4902,15.5206,15.6188,15.7026,15.7785,15.8696,15.8772,15.8469,15.7483,15.7024,15.657,15.634,15.6798,15.7254,15.7481,15.8013,15.8013,15.7481,15.6646,15.6115,15.5811,15.5203,15.5128,17.5065,17.5943,17.6724,17.8929,17.9417,18.0354,18.3517,18.4726,18.5957,18.8593,18.9924,19.1033,19.2072,19.2267,19.2365,19.279,19.279,19.2107,19.0057,18.5344,17.7986,16.6879,16.1257,15.4922,14.6529,14.5788,14.6092,14.7003,14.7528,14.8066,14.8673,14.9281,14.9736,15.004,15.004,15.004,15.004,15.1407,15.1938,15.1711,15.1938,15.2694,15.3761,15.353,15.3916,15.4902,15.4672,15.4675,15.4902,15.4902,15.4902,15.4902,15.4902,15.4902,15.4902,15.4902,15.4902,15.4902,15.4902,15.4902,15.4902,15.4902,15.4902,15.4978,15.5659,15.5811,15.6115,15.7556,15.7481,15.7102,15.7784,15.7481,15.6646,15.5206,15.513,15.4745,15.2166,15.2162,15.2694,15.3229,15.3989,15.4599,15.4902,15.4902,15.4902,15.4902,15.4902,15.4902,15.4902,15.4902,15.513,15.5735,15.6798,15.7709,15.8241,15.8924,15.8849,15.8013,15.7102,15.657,15.634,15.634,15.6568,15.7026,15.733,15.7102,15.657,15.6112,15.5811,15.5811,15.5203,15.4902,17.5358,17.5943,17.5708,17.7758,17.8246,17.9182,18.2286,18.3029,18.4043,18.7226,18.8824,18.9924,19.09,19.1131,19.1584,19.256,19.254,19.1544,18.9465,17.7477,16.7916,16.5395,15.3572,14.544,14.5097,14.5029,14.5332,14.6023,14.6175,14.6927,14.8446,14.8673,14.9123,14.9964,15.004,15.004,15.004,15.0728,15.1483,15.239,15.1563,15.209,15.3609,15.285,15.3305,15.4748,15.3989,15.4144,15.49,15.49,15.4902,15.4902,15.4902,15.4902,15.4902,15.4902,15.4902,15.4902,15.4902,15.4902,15.4902,15.4902,15.4902,15.4902,15.4902,15.4902,15.513,15.6039,15.634,15.634,15.634,15.634,15.5963,15.513,15.4219,15.3001,15.0724,15.1407,15.2542,15.2542,15.3229,15.3989,15.4748,15.4902,15.4902,15.4902,15.4902,15.4902,15.4902,15.4902,15.4902,15.4902,15.6418,15.7404,15.7404,15.8924,15.9456,15.8696,15.7937,15.7102,15.6191,15.6267,15.6267,15.6188,15.6948,15.657,15.4978,15.4976,15.4902,15.4902,15.4902,15.4902,17.3365,17.5317,17.6236,17.6,17.6529,17.7758,18.0198,18.2053,18.381,18.625,18.7653,18.8434,18.8727,19.0155,19.1326,19.1584,18.7797,18.4172,18.2202,17.4236,16.595,15.8769,15.484,15.071,14.55,14.5029,14.5105,14.5264,14.5795,14.6402,14.6775,14.799,14.8825,14.9053,14.9736,15.004,15.004,14.9585,14.9509,14.9736,15.0192,15.0951,15.1867,15.1639,15.2166,15.315,15.3001,15.3305,15.4065,15.4065,15.4444,15.4902,15.4902,15.4902,15.4902,15.4902,15.4902,15.4902,15.4902,15.4902,15.4902,15.4902,15.4902,15.4902,15.4902,15.4902,15.513,15.6039,15.634,15.6416,15.7026,15.6191,15.5203,15.4976,15.3381,15.1867,15.1934,15.1711,15.1635,15.1635,15.2774,15.3837,15.3989,15.452,15.4902,15.4902,15.4902,15.4902,15.4902,15.4902,15.4902,15.4902,15.5887,15.657,15.657,15.7556,15.7785,15.7024,15.7254,15.6798,15.5355,15.5887,15.596,15.5206,15.5434,15.5659,15.596,15.5206,15.4902,15.4902,15.4902,15.4902,17.1468,17.3658,17.5317,17.522,17.5943,17.7269,17.9475,18.1331,18.3029,18.5274,18.619,18.6738,18.7165,18.869,19.0119,19.1095,18.5767,18.0921,17.9413,17.0469,16.1868,15.6002,15.2648,14.9224,14.5371,14.5029,14.5029,14.5029,14.5408,14.5795,14.6175,14.7009,14.7762,14.8142,14.9053,14.9509,14.9509,14.9357,14.9059,14.8673,14.8896,14.9736,15.1184,15.088,15.1179,15.1938,15.1938,15.2466,15.3302,15.3609,15.3989,15.4444,15.4751,15.4902,15.4902,15.4902,15.4902,15.4902,15.4902,15.4902,15.4902,15.4902,15.4902,15.4902,15.4902,15.4902,15.4978,15.5583,15.5659,15.5659,15.5355,15.49,15.4144,15.3077,15.2318,15.1711,15.1483,15.1027,15.0724,15.0724,15.1711,15.2774,15.3153,15.3837,15.4444,15.4444,15.4675,15.4902,15.4902,15.4902,15.4902,15.4902,15.5735,15.6115,15.5733,15.6798,15.6948,15.5735,15.6115,15.5889,15.4976,15.5128,15.5277,15.5507,15.513,15.5203,15.5659,15.5203,15.4902,15.4902,15.4523,15.4444,17.0144,17.1901,17.3616,17.4634,17.5748,17.7017,17.9124,18.0452,18.1916,18.4005,18.4455,18.4786,18.5957,18.6301,18.7012,18.8978,18.2729,17.7389,17.6215,16.4966,15.6129,15.4149,14.8614,14.5029,14.5029,14.5029,14.5029,14.5029,14.5029,14.5332,14.6016,14.6092,14.6547,14.73,14.8142,14.8597,14.8673,14.9509,14.9579,14.8831,14.8136,14.8825,15.088,15.0268,15.0491,15.1108,15.1108,15.1635,15.2466,15.315,15.3533,15.3685,15.4447,15.4751,15.4751,15.4902,15.4902,15.4902,15.4902,15.4902,15.4902,15.4902,15.4902,15.4902,15.4902,15.4902,15.4902,15.4902,15.4902,15.4672,15.3302,15.3302,15.3077,15.0947,15.1407,15.1938,15.042,15.004,15.004,15.004,15.0572,15.1407,15.2238,15.3077,15.3609,15.3761,15.4292,15.4751,15.4902,15.4902,15.4902,15.4902,15.5659,15.5735,15.49,15.6191,15.6418,15.49,15.49,15.4902,15.4751,15.4216,15.452,15.5887,15.5203,15.49,15.4902,15.4902,15.4902,15.4902,15.4216,15.3985,17.0687,17.2054,17.2598,17.356,17.4577,17.5748,17.6959,17.8831,18.0647,18.1857,18.2112,18.2795,18.4748,18.1284,17.8297,17.8951,17.0032,16.2306,16.008,15.3787,14.8712,14.7019,14.5774,14.5029,14.5029,14.5029,14.5029,14.5029,14.5029,14.5105,14.5181,14.5795,14.625,14.6402,14.7231,14.8066,14.8673,14.8825,14.9281,14.9812,14.8901,14.8673,14.9129,14.9742,15.0192,15.0268,15.0268,15.0724,15.1483,15.1635,15.209,15.285,15.3609,15.3989,15.3992,15.4675,15.4902,15.4902,15.4902,15.4902,15.4902,15.4902,15.4902,15.4902,15.4902,15.4902,15.4902,15.4902,15.4902,15.49,15.4599,15.3609,15.2694,15.2238,15.1782,15.1184,15.0268,15.004,15.004,15.004,15.0192,15.0496,15.1335,15.2166,15.3074,15.3609,15.3837,15.4216,15.49,15.4902,15.4902,15.4902,15.5052,15.49,15.3992,15.49,15.4976,15.3989,15.4523,15.4672,15.3989,15.4447,15.452,15.4216,15.3992,15.4292,15.4902,15.4902,15.4902,15.4902,15.4751,15.4748,16.9613,17.1175,17.2291,17.3324,17.4341,17.526,17.5748,17.7562,17.9378,17.9866,18.0393,18.1076,18.2112,17.8405,17.5281,17.5531,16.531,15.6731,15.5332,14.9954,14.5781,14.4573,14.4801,14.5029,14.5029,14.5029,14.5029,14.5029,14.5029,14.5029,14.5029,14.5332,14.556,14.556,14.632,14.7003,14.7383,14.7908,14.8364,14.8749,14.8673,14.8673,14.8673,14.9129,14.9585,15.004,15.004,15.0268,15.0652,15.1027,15.1483,15.1938,15.2846,15.315,15.3302,15.3992,15.4292,15.4444,15.4751,15.4902,15.4902,15.4902,15.4902,15.4902,15.4902,15.4902,15.4902,15.4902,15.4672,15.4216,15.3837,15.315,15.239,15.1478,15.0951,15.0496,15.0192,15.004,15.004,15.004,15.004,15.004,14.9964,15.0268,15.0719,15.1027,15.1483,15.2318,15.3533,15.3688,15.3837,15.4219,15.3989,15.3533,15.3153,15.3077,15.3077,15.315,15.3077,15.3077,15.315,15.3077,15.285,15.2398,15.2922,15.3305,15.3688,15.3688,15.3688,15.3757,15.3233,15.3005,16.7996,16.9948,17.1915,17.3031,17.4048,17.4967,17.5317,17.6684,17.77,17.77,17.8734,17.9262,17.8048,17.4393,17.1197,16.9983,16.024,15.2594,15.1799,14.7679,14.4489,14.3958,14.4413,14.4801,14.5029,14.5029,14.5029,14.5029,14.5029,14.5029,14.5029,14.5029,14.5029,14.5029,14.5567,14.6016,14.6175,14.6927,14.73,14.7528,14.8142,14.8592,14.8673,14.8673,14.9123,14.9812,15.0035,15.004,15.0111,15.0724,15.0956,15.1027,15.1938,15.2318,15.2394,15.3229,15.3533,15.3606,15.4216,15.452,15.4675,15.4675,15.4751,15.4902,15.4902,15.4902,15.4902,15.4902,15.4371,15.3609,15.3001,15.2618,15.1934,15.042,15.004,15.004,15.004,15.004,15.0035,14.9812,14.9807,14.9509,14.8597,14.8446,14.8446,14.8446,14.9199,15.0268,15.1862,15.2086,15.2314,15.2922,15.2394,15.1938,15.1711,15.1407,15.1483,15.201,15.1483,15.1563,15.2238,15.1411,15.1027,15.1184,15.1938,15.239,15.2618,15.2618,15.2618,15.2618,15.1862,15.1483,16.6781,16.8875,17.0729,17.1859,17.2933,17.4243,17.6098,17.6,17.5455,17.5455,17.7172,17.6985,17.1752,16.6255,16.0594,15.4688,14.8737,14.4296,14.2757,14.3375,14.3958,14.3882,14.389,14.4193,14.4945,14.5029,14.5029,14.5029,14.5029,14.5029,14.5029,14.5029,14.5029,14.5029,14.5105,14.5484,14.6175,14.625,14.6699,14.7528,14.761,14.799,14.8673,14.8673,14.8749,14.8831,14.9736,15.004,15.004,15.0192,15.0192,15.0268,15.1027,15.1335,15.1483,15.239,15.2694,15.2694,15.2774,15.3302,15.3837,15.3837,15.4295,15.4902,15.4902,15.4902,15.4902,15.4902,15.4371,15.3761,15.3609,15.2546,15.1179,15.0268,15.004,15.004,15.004,15.004,14.9812,14.9053,14.8825,14.8597,14.7756,14.768,14.768,14.768,14.8364,14.9129,15.0192,15.0268,15.0268,15.042,15.0339,14.9964,14.9129,15.042,15.0951,15.0339,15.088,15.1255,15.1335,15.0572,15.0496,15.1184,15.1335,15.1711,15.2618,15.2618,15.2618,15.2618,15.2542,15.2466,16.5751,16.7703,16.9753,17.1622,17.3324,17.4593,17.4772,17.5024,17.5122,17.5122,17.5805,17.4685,16.9051,16.3774,15.7978,15.1008,14.5641,14.1755,14.0007,14.1299,14.2295,14.2295,14.3206,14.3958,14.4262,14.4717,14.5029,14.5029,14.5029,14.5029,14.5029,14.5029,14.5029,14.5029,14.5029,14.5173,14.5484,14.5484,14.5864,14.6699,14.6699,14.6927,14.7231,14.7756,14.7984,14.799,14.837,14.8825,14.9281,14.9812,15.004,15.0111,15.042,15.0496,15.0648,15.1483,15.1711,15.1862,15.239,15.2774,15.3074,15.3074,15.3606,15.4216,15.4216,15.452,15.4902,15.4902,15.4061,15.3074,15.3074,15.1782,15.0192,14.8825,14.8592,14.8592,14.8592,14.8592,14.844,14.8066,14.7984,14.7686,14.6858,14.6699,14.6547,14.6085,14.6244,14.6996,14.837,14.8592,14.8673,14.9129,14.8825,14.8597,14.8673,14.837,14.8901,15.0652,15.0045,14.9736,14.9736,14.9964,15.0263,15.0496,15.0496,15.0724,15.1027,15.1027,15.1027,15.1027,15.1027,15.1027,16.4624,16.6532,16.8777,17.0924,17.2877,17.4048,17.3324,17.4146,17.4967,17.4341,17.4731,17.2894,16.5231,16.127,15.6283,14.7234,14.2779,14.0159,13.8954,13.9779,14.0701,14.1299,14.2362,14.3274,14.3738,14.4345,14.4801,14.5029,14.5029,14.5029,14.5029,14.5029,14.5029,14.5029,14.5029,14.5029,14.5029,14.5029,14.5264,14.5795,14.6023,14.6023,14.5864,14.6768,14.7155,14.7155,14.7452,14.7838,14.844,14.9053,14.9427,14.9655,14.9655,14.9812,15.0116,15.0724,15.088,15.0951,15.1635,15.1938,15.2166,15.2166,15.2774,15.3381,15.3381,15.3761,15.4216,15.4216,15.3077,15.1858,15.1858,15.0567,14.9047,14.7838,14.7528,14.7528,14.7528,14.7528,14.7452,14.7224,14.7155,14.6844,14.6016,14.5795,14.5636,14.5105,14.5029,14.5408,14.6692,14.6768,14.6996,14.761,14.7155,14.7003,14.761,14.6706,14.7161,14.9585,14.9059,14.8673,14.8673,14.9351,14.9812,15.004,15.004,15.004,15.004,15.004,15.004,15.004,15.004,15.004,16.3603,16.5502,16.7703,16.9753,17.1175,17.2054,17.2054,17.3616,17.4536,17.2445,17.3658,17.1471,15.9183,15.7736,15.414,14.1067,13.8857,13.8792,13.8792,13.8792,13.9476,14.1147,14.1308,14.1991,14.3662,14.3882,14.4186,14.4945,14.5029,14.5029,14.5029,14.5029,14.5029,14.5029,14.5029,14.5029,14.5029,14.5029,14.5029,14.5029,14.5795,14.5788,14.5097,14.5795,14.6244,14.625,14.7155,14.7528,14.7528,14.7528,14.799,14.8673,14.8673,14.9281,15.004,15.004,15.004,15.004,15.004,15.0572,15.1255,15.1255,15.1862,15.2618,15.2618,15.2618,15.2618,15.2618,15.1407,15.004,15.004,14.8825,14.7528,14.7528,14.7528,14.7528,14.7528,14.7528,14.7231,14.6402,14.6244,14.5947,14.5173,14.5029,14.5029,14.5029,14.5029,14.5029,14.5029,14.5029,14.5029,14.5097,14.5029,14.5029,14.5097,14.5788,14.6244,14.6244,14.7838,14.8673,14.8673,14.8673,14.9129,15.004,15.004,15.004,15.004,15.004,15.004,15.004,15.004,15.004,16.253,16.4331,16.6087,16.677,16.9991,17.2347,16.9418,17.0339,17.1608,17.0924,16.8852,16.3661,15.23,15.0044,14.7224,13.9168,13.7815,13.7815,13.7815,13.8347,13.902,13.9486,14.0625,14.1536,14.2058,14.3198,14.3958,14.4186,14.4649,14.5029,14.5029,14.5029,14.5029,14.5029,14.5029,14.5029,14.5029,14.5029,14.5029,14.5029,14.5256,14.5256,14.5029,14.5256,14.5332,14.534,14.5712,14.6092,14.6547,14.6547,14.7155,14.7908,14.7908,14.844,14.9129,14.9129,14.9509,15.004,15.004,15.0197,15.0491,15.0491,15.1023,15.1563,15.1023,15.1251,15.1483,15.1023,15.004,14.9053,14.8446,14.7458,14.6471,14.6009,14.5788,14.5788,14.5788,14.5788,14.5781,14.5408,14.5332,14.5332,14.5097,14.5029,14.5029,14.5029,14.5029,14.5029,14.5029,14.5029,14.5029,14.5029,14.5029,14.5029,14.5029,14.5256,14.5567,14.6175,14.6699,14.7003,14.7003,14.761,14.8066,14.8364,14.8364,14.8364,14.8364,14.8364,14.8364,14.8364,14.8896,14.9129,16.1261,16.2334,16.3408,16.5068,16.7703,16.8422,16.2712,16.3659,16.5018,16.2724,16.0483,15.7104,15.0532,14.7493,14.4022,13.7925,13.6991,13.6991,13.6991,13.7511,13.8043,13.8716,13.9704,14.0625,14.1299,14.2286,14.2979,14.3282,14.4118,14.4573,14.4573,14.4869,14.5029,14.5029,14.5029,14.5029,14.5029,14.5029,14.5029,14.5029,14.5029,14.5029,14.5029,14.5029,14.5029,14.5029,14.5029,14.5264,14.5719,14.5719,14.6092,14.6547,14.6927,14.7528,14.8218,14.8218,14.8825,14.9579,14.9579,14.9807,15.004,15.004,15.042,15.0648,14.9812,15.0116,15.0572,14.9812,14.9129,14.837,14.6996,14.6092,14.5567,14.5105,14.5029,14.5029,14.5029,14.5029,14.5029,14.5029,14.5029,14.5029,14.5029,14.5029,14.5029,14.5029,14.5029,14.4877,14.4641,14.4573,14.4421,14.4118,14.4345,14.4649,14.5029,14.5029,14.5256,14.5719,14.5112,14.4884,14.5264,14.6092,14.6699,14.7003,14.7383,14.7528,14.7528,14.7528,14.7528,14.7528,14.8066,14.8218,15.9946,15.9796,15.9992,16.4047,16.4189,16.1442,15.4015,15.5582,15.6803,15.0584,15.0549,15.1739,15.2104,14.8404,14.3312,13.7325,13.6361,13.6221,13.6373,13.6448,13.7056,13.8499,13.8802,13.9552,14.0928,14.1299,14.1612,14.2304,14.3206,14.373,14.3882,14.4489,14.4945,14.5029,14.5029,14.5029,14.5029,14.5029,14.5029,14.5029,14.5029,14.5029,14.5029,14.5029,14.5029,14.5029,14.5029,14.5029,14.5029,14.5029,14.5029,14.5105,14.5795,14.6547,14.7376,14.7452,14.7914,14.8597,14.8673,14.9281,15.0035,15.004,15.004,14.9883,14.8901,14.9199,14.9736,14.8673,14.8592,14.8136,14.5712,14.5105,14.5105,14.5029,14.5029,14.5029,14.5029,14.5029,14.5029,14.5029,14.5029,14.5029,14.5029,14.5029,14.5029,14.4945,14.4945,14.4649,14.3882,14.373,14.3434,14.2532,14.3206,14.4034,14.4801,14.4869,14.4869,14.4869,14.3366,14.2903,14.373,14.4421,14.5112,14.5864,14.6768,14.7224,14.7231,14.7231,14.73,14.7376,14.7452,14.7452,15.8085,15.8573,15.9113,15.9256,15.9159,15.8653,15.7549,15.941,15.9823,15.4594,15.1646,14.8985,14.5326,14.132,13.8223,13.7326,13.6676,13.6448,13.7067,13.8271,13.8726,13.7826,13.9486,14.0387,13.9476,14.0615,14.1384,14.1603,14.2295,14.313,14.3738,14.3966,14.4413,14.5029,14.5029,14.5029,14.5029,14.5029,14.5029,14.5029,14.5029,14.5029,14.5029,14.5029,14.5029,14.5029,14.5029,14.5029,14.5029,14.5029,14.5029,14.5029,14.5181,14.5408,14.5636,14.6244,14.7003,14.7908,14.8446,14.8825,14.9129,14.9812,15.004,14.9807,14.8294,14.7984,14.7838,14.6313,14.6775,14.7528,14.6244,14.5864,14.5788,14.5105,14.5029,14.5029,14.5029,14.5029,14.5029,14.5029,14.5029,14.5029,14.5029,14.5029,14.4801,14.4186,14.4118,14.3738,14.2911,14.2759,14.2751,14.2523,14.2683,14.2903,14.3054,14.3054,14.3054,14.3054,14.2683,14.2532,14.2759,14.2979,14.3206,14.3366,14.351,14.3966,14.4649,14.4649,14.5029,14.5629,14.6244,14.6478,15.5764,15.4832,15.2786,15.2258,15.4446,15.6153,15.3964,15.5159,15.4525,14.6674,14.4563,14.2467,13.7526,13.546,13.4778,13.5625,13.5689,13.5689,13.5701,13.6839,13.7587,13.7436,13.8347,13.9248,13.9931,14.0093,14.0321,14.0625,14.1469,14.2219,14.2675,14.3046,14.3654,14.4421,14.4421,14.4649,14.5029,14.4649,14.4649,14.5029,14.5029,14.5029,14.5029,14.5029,14.5029,14.5029,14.5029,14.5029,14.5029,14.5029,14.5029,14.5029,14.5029,14.5029,14.5097,14.5484,14.6009,14.6471,14.7231,14.7838,14.8364,14.9129,14.9129,14.8673,14.7838,14.7528,14.7231,14.594,14.6009,14.632,14.6244,14.5864,14.5636,14.556,14.5256,14.5029,14.5029,14.5029,14.5029,14.5029,14.4717,14.4421,14.4421,14.4118,14.367,14.3282,14.3206,14.297,14.2067,14.1991,14.1773,14.1384,14.1764,14.1991,14.1991,14.2295,14.2456,14.2456,14.1764,14.1308,14.1308,14.1764,14.1991,14.1991,14.2295,14.2751,14.3206,14.3206,14.3434,14.389,14.4345,14.4429,15.2446,14.9155,14.4293,14.5358,15.0573,15.4137,14.9271,14.9816,14.8406,13.7776,13.7209,13.6966,13.1773,13.1738,13.2728,13.3272,13.4335,13.479,13.4031,13.479,13.5917,13.6915,13.6828,13.7663,14.0321,13.9476,13.903,13.9713,14.0625,14.1156,14.1308,14.1991,14.2751,14.3654,14.3654,14.3958,14.4649,14.3958,14.4034,14.4869,14.4869,14.4877,14.5029,14.5029,14.5029,14.5029,14.5029,14.5029,14.5029,14.5029,14.5029,14.5029,14.5029,14.5029,14.5029,14.5029,14.5029,14.5105,14.5788,14.6547,14.7452,14.8142,14.7908,14.7231,14.7003,14.7003,14.6927,14.5864,14.5256,14.4945,14.5491,14.5256,14.5029,14.5491,14.5181,14.4869,14.4869,14.4869,14.4869,14.4869,14.4186,14.3654,14.3654,14.2979,14.2456,14.2295,14.2295,14.2,14.1156,14.108,14.0852,14.0017,14.0625,14.108,14.108,14.1764,14.2067,14.2067,14.0701,13.9941,13.9941,14.0701,14.108,14.108,14.1764,14.2219,14.2295,14.2295,14.2304,14.2456,14.2456,14.2456,14.6601,14.1073,13.7473,14.3243,14.8861,15.3104,15.3177,15.4912,15.4215,14.6479,14.3921,14.1252,13.5239,13.3244,13.2348,13.1727,13.4095,13.5765,13.4994,13.6817,13.7511,13.5677,13.7197,13.8043,13.7132,13.8108,13.8857,13.8954,13.9713,14.0473,14.1308,14.1384,14.184,14.2675,14.2683,14.2751,14.2903,14.2751,14.3198,14.3966,14.3966,14.4345,14.5029,14.5029,14.5029,14.5029,14.5029,14.5029,14.5029,14.5029,14.5029,14.5029,14.5029,14.5029,14.5029,14.5029,14.5029,14.5029,14.5105,14.5719,14.6402,14.6547,14.6478,14.6092,14.4801,14.4869,14.5105,14.351,14.351,14.3882,14.3206,14.351,14.3882,14.3206,14.351,14.3966,14.3966,14.3966,14.3966,14.3966,14.3282,14.2683,14.2683,14.2532,14.2228,14.1612,14.1536,14.1156,14.0321,14.0169,14.0159,13.9941,14.0093,14.0169,14.0169,14.0245,14.0331,14.0331,14.0093,13.9941,13.9941,14.0093,14.0169,14.0169,14.0321,14.0701,14.1536,14.1536,14.184,14.2456,14.2456,14.2456,14.3008,14.3836,14.4369,14.4979,14.9432,15.3647,15.4232,15.5501,15.4941,14.9047,14.7504,14.4692,13.6483,13.4711,13.3765,13.1614,13.2942,13.4474,13.493,13.5613,13.5765,13.5018,13.5677,13.6448,13.7576,13.7511,13.7587,13.8043,13.8802,13.9486,13.9931,14.0387,14.0928,14.184,14.184,14.184,14.184,14.184,14.2295,14.313,14.313,14.351,14.4413,14.4413,14.4641,14.5029,14.5029,14.5029,14.5029,14.5029,14.5029,14.5029,14.5029,14.5029,14.5029,14.5029,14.5029,14.5029,14.5029,14.5256,14.5567,14.6023,14.5567,14.4877,14.4573,14.4118,14.3442,14.2683,14.3198,14.3882,14.389,14.3882,14.373,14.3282,14.3198,14.313,14.313,14.313,14.313,14.313,14.2447,14.184,14.184,14.1384,14.0928,14.0625,14.0625,14.0397,14.0007,13.9941,13.9941,13.9941,13.9941,13.9941,13.9941,13.9941,13.9941,13.9941,13.9941,13.9941,13.9941,13.9941,13.9941,13.9941,13.9941,14.0169,14.0625,14.0625,14.0777,14.109,14.109,14.109,14.0833,0.0,14.81,14.5107,14.8811,15.3354,0.0,15.4916,15.4866,15.096,15.0085,14.7204,13.822,13.6496,13.5088,13.1037,13.1741,13.3183,13.4246,13.4019,13.4095,13.5106,13.4714,13.5461,13.826,13.7132,13.6513,13.7132,13.8032,13.8564,13.8792,13.9324,14.0093,14.0928,14.0843,14.0843,14.0928,14.1071,14.1384,14.2219,14.2219,14.2675,14.3502,14.3502,14.3958,14.4717,14.4717,14.4869,14.5029,14.5029,14.5029,14.5029,14.5029,14.5029,14.5029,14.5029,14.5029,14.5029,14.5029,14.5029,14.5105,14.5719,14.5029,14.3882,14.4118,14.3206,14.2219,14.1991,14.2523,14.3358,14.373,14.351,14.3198,14.297,14.2523,14.2219,14.2219,14.2219,14.2219,14.2219,14.1536,14.1071,14.1071,14.0397,13.9941,13.9941,13.9941,13.9941,13.9941,13.9941,13.9941,13.9941,13.9941,13.9941,13.9941,13.9941,13.9941,13.9941,13.9941,13.9941,13.9941,13.9941,13.9941,13.9941,13.9941,13.9941,13.9941,13.9941,13.9941,13.9941,13.9941,13.9941,0.0,13.7943,13.7953,13.9554,14.4912,15.0376,15.223,15.4377,0.0,15.5482,15.2697,14.8299,14.2073,13.9024,13.5367,12.8817,13.1057,13.3411,13.2866,13.3335,13.4322,13.5929,13.6145,13.6448,13.7371,13.6828,13.6221,13.6373,13.7067,13.7891,13.8726,13.8857,13.9248,14.0017,13.9324,13.9258,14.0093,14.0093,14.0473,14.1384,14.1384,14.184,14.2532,14.2532,14.3054,14.3958,14.3958,14.4345,14.5029,14.5029,14.5029,14.5029,14.5029,14.5029,14.5029,14.5029,14.5029,14.5029,14.5029,14.5029,14.5029,14.5105,14.4489,14.351,14.2058,14.1536,14.1156,14.0397,14.0843,14.1308,14.0549,14.0919,14.1308,14.0463,14.0852,14.1384,14.1384,14.1384,14.1384,14.1384,14.0691,14.0093,14.0093,14.0007,13.9941,13.9941,13.9941,13.9941,13.9941,13.9941,13.9941,13.9941,13.9941,13.9941,13.9941,13.9941,13.9941,13.9941,13.9941,13.9941,13.9941,13.9941,13.9941,13.9941,13.9941,13.9941,13.9941,13.9941,13.9941,13.9941,13.9941,13.9941,14.3886,14.3357,14.3979,14.5415,14.8133,15.062,15.1499,15.2718,15.4037,15.4818,15.0354,14.5287,14.19,13.7521,13.3202,12.9659,13.0815,13.2424,13.3183,13.3563,13.3576,13.317,13.3107,13.3639,13.5006,13.4854,13.493,13.5397,13.6221,13.6828,13.7197,13.7663,13.8043,13.8347,13.8054,13.8347,13.9248,13.9248,13.9638,14.0406,14.0406,14.0928,14.1764,14.1764,14.2219,14.2979,14.2979,14.3502,0.0,14.4338,14.4573,14.5029,14.5029,14.5029,14.5029,14.5029,14.5029,14.5029,14.5029,14.5029,14.5029,14.5029,14.4801,14.4345,14.3206,14.2514,14.184,14.108,14.108,14.1299,14.0852,14.108,14.108,14.0169,14.0235,14.0406,14.0406,14.0406,14.0406,14.0406,14.0169,13.9941,13.9941,13.9941,13.9941,13.9941,13.9941,13.9941,13.9941,13.9941,13.9941,13.9941,13.9941,13.9941,13.9941,13.9941,13.9941,13.9941,13.9941,13.9941,13.9941,13.9941,13.9941,13.9941,13.9941,13.9941,13.9941,13.9941,13.9941,13.9941,13.9941,13.9941,14.5107,14.5544,14.57,14.5089,14.6924,14.8719,14.7737,14.9685,15.2085,15.3451,14.8836,14.3827,14.1232,13.643,13.2217,12.9965,13.0526,13.1741,13.3183,13.3576,13.3335,13.2134,13.2196,13.2728,13.3639,13.3791,13.3955,13.4487,13.5309,13.5929,13.6221,13.6828,13.7067,13.7067,13.7067,13.7511,13.8336,13.8347,13.8792,13.9638,13.9638,14.0017,14.0852,14.0852,14.1308,14.2076,14.2076,14.2599,14.3434,14.3434,14.389,14.4649,14.4649,14.4801,14.5029,14.5029,14.5029,14.5029,14.5029,14.5029,14.5029,14.5029,14.5029,14.4877,14.4345,14.3654,14.2751,14.2286,14.1764,14.1299,14.0928,14.0852,14.0701,14.0159,14.0169,14.0321,13.9951,14.0169,14.0321,14.0007,13.9941,13.9941,13.9941,13.9941,13.9941,13.9941,13.9941,13.9941,13.9941,13.9941,13.9941,13.9941,13.9941,13.9941,13.9941,13.9941,13.9865,13.9638,13.9638,13.9638,13.9638,13.9638,13.9713,13.9941,13.9941,13.9941,13.9941,13.9941,13.9941,13.9941,13.9941,13.9941,14.2714,14.2179,14.0296,13.6127,13.992,14.3829,14.0657,14.4921,15.0035,15.2133,14.888,14.4375,14.0247,13.6373,13.2735,12.9216,13.007,13.1513,13.2424,13.3183,13.3728,13.3728,13.4335,13.4563,13.3791,13.3728,13.3728,13.3728,13.4487,13.5246,13.6209,13.6221,13.6221,13.6221,13.6221,13.6665,13.7371,13.7371,13.7826,13.8792,13.8792,13.9182,13.9941,13.9941,14.0463,14.1308,14.1308,14.1764,14.2456,14.2456,14.2979,14.3882,14.3882,14.4338,14.5029,14.5029,14.5029,14.5029,14.5029,14.5029,14.5029,14.5029,14.5029,14.5029,14.5029,14.4421,14.3882,14.3882,14.259,14.1147,14.0169,13.9941,13.9941,13.9941,14.0691,14.108,14.0169,14.0691,14.108,14.0169,13.9941,13.9941,13.9941,13.9941,13.9941,13.9941,13.9941,13.9941,13.9941,13.9941,13.9941,13.9941,13.9941,13.9941,13.9941,13.9941,13.9638,13.8792,13.8792,13.8792,13.8792,13.8792,13.9172,13.9941,13.9941,13.9941,13.9941,13.9941,13.9941,13.9941,13.9941,13.9941,14.1691,14.1594,14.0296,13.6127,13.992,14.3635,13.9723,14.3778,14.8716,15.0181,14.3441,13.7448,13.7626,13.1159,12.6484,12.8338,12.8628,12.9539,13.2196,13.2196,13.1741,13.1209,13.1893,13.1969,13.1209,13.1665,13.2196,13.288,13.3639,13.4246,13.4474,13.4487,13.4487,13.4487,13.5018,13.5701,13.66,13.66,13.7056,13.7815,13.7815,13.8271,13.9172,13.9172,13.9552,14.0397,14.0397,14.0852,14.1612,14.1612,14.2219,14.2979,14.3654,14.3958,14.4193,14.4801,14.5029,14.5029,14.5029,14.5029,14.5029,14.5029,14.5029,14.5029,14.5029,14.4421,14.3882,14.3882,14.3046,14.2067,14.1773,14.1764,14.1764,14.1764,14.1536,14.1299,14.0928,14.0625,14.0321,14.0007,13.9941,13.9941,13.9941,13.9941,13.9941,13.9941,13.9941,13.9941,13.9941,13.9941,13.9941,13.9941,13.9941,13.9713,13.9182,13.9172,13.8792,13.7891,13.7815,13.7815,13.7815,13.7815,13.7967,13.8119,13.8205,13.8205,13.8205,13.8802,13.9172,13.9172,13.9713,13.9941,14.1203,14.1301,14.02,13.5612,13.8922,14.1717,13.5873,14.0801,14.5762,14.2866,13.7787,13.3872,13.3518,12.7404,12.3709,12.7564,12.7792,12.8384,13.0739,13.083,13.045,12.96,13.0284,13.0587,13.0056,13.0512,13.1057,13.1969,13.2804,13.3107,13.2728,13.3107,13.3272,13.3272,13.4031,13.4714,13.5234,13.5537,13.6145,13.6915,13.6915,13.7425,13.8271,13.8271,13.8726,13.9486,13.9486,13.9941,14.0777,14.0777,14.1308,14.2067,14.2599,14.3046,14.3434,14.4193,14.4573,14.4573,14.4877,14.5029,14.5029,14.5029,14.4801,14.4573,14.4573,14.4421,14.4338,14.4338,14.3662,14.3046,14.3046,14.2751,14.2456,14.2456,14.2447,14.2134,14.1451,14.109,14.0701,14.0093,13.9941,13.9941,13.9941,13.9941,13.9941,13.9941,13.9941,13.9941,13.9941,13.9941,13.9941,13.9941,13.9704,13.9182,13.8336,13.8271,13.788,13.7056,13.6915,13.6915,13.6915,13.6915,13.7132,13.7371,13.7371,13.7371,13.7371,13.8032,13.8271,13.8271,13.8726,13.9182,14.1008,14.1301,14.0006,13.4866,13.7495,13.9048,13.0416,13.6492,14.1491,13.3178,13.2387,13.2147,12.8681,12.4901,12.3464,12.6637,12.7185,12.7489,12.8415,12.9159,12.9448,12.8794,12.9387,12.9904,13.0056,13.0056,13.0298,13.1043,13.1893,13.1969,13.1195,13.1969,13.2424,13.2424,13.3183,13.3576,13.3576,13.4335,13.5234,13.5993,13.6145,13.66,13.7295,13.7295,13.7815,13.8716,13.8716,13.9096,13.9865,13.9865,14.0397,14.1156,14.1308,14.1764,14.2456,14.3426,14.373,14.3882,14.4573,14.4801,14.4801,14.4801,14.4338,14.373,14.373,14.4193,14.4801,14.4801,14.4345,14.3882,14.3882,14.3282,14.2751,14.2751,14.3282,14.3426,14.184,14.1991,14.1924,14.0397,13.9951,13.9941,13.9941,13.9941,13.9941,13.9941,13.9941,13.9941,13.9941,13.9941,13.9931,13.9713,13.903,13.8271,13.7371,13.7295,13.6991,13.6209,13.6133,13.5993,13.5993,13.5981,13.6221,13.6915,13.7067,13.7132,13.7132,13.7284,13.7295,13.736,13.7371,13.7826,14.1008,14.1301,14.0006,13.4866,13.7495,13.9048,13.0416,13.3567,13.6949,13.2366,12.9359,12.7275,12.6473,12.3681,12.2249,12.4282,12.4662,12.5362,12.7489,12.7277,12.7428,12.8567,12.8855,12.9311,12.9904,13.0056,13.0132,13.0284,13.0512,13.0512,13.0284,13.1043,13.1513,13.1513,13.2348,13.2866,13.2866,13.3576,13.4095,13.4259,13.4942,13.5689,13.6513,13.6513,13.6969,13.7739,13.7739,13.8271,13.902,13.902,13.9486,14.0321,14.108,14.1384,14.1612,14.2456,14.2751,14.2759,14.2979,14.2987,14.2987,14.2987,14.2911,14.2751,14.2751,14.2903,14.2987,14.2987,14.3434,14.3882,14.3882,14.4186,14.4421,14.4421,14.4186,14.373,14.3426,14.2362,14.1451,14.108,14.0463,13.9941,13.9941,13.9941,13.9941,13.9941,13.9941,13.9941,13.9941,13.9941,13.942,13.8119,13.7815,13.736,13.66,13.6513,13.6145,13.5246,13.4563,13.4259,13.4259,13.3639,13.3411,13.3626,13.4246,13.455,13.455,13.5853,13.6513,13.6513,13.7132,13.7522,13.7285,13.9019,14.0006,13.4866,13.7495,13.8906,12.9747,13.1872,13.3476,12.5231,12.4405,12.4688,12.327,12.2006,12.1699,12.3009,12.3178,12.3768,12.5514,12.5607,12.6062,12.7277,12.8187,12.887,12.9372,12.9828,13.0056,13.0056,13.0056,13.0056,13.0056,13.045,13.0602,13.0602,13.1499,13.1893,13.1893,13.2728,13.3183,13.3183,13.4019,13.4563,13.5018,13.5461,13.608,13.6839,13.6839,13.736,13.8119,13.8119,13.8347,13.8802,13.9713,14.0159,14.0235,14.1469,14.1924,14.1991,14.2304,14.2456,14.2304,14.1536,14.1545,14.1924,14.1924,14.2219,14.2456,14.2456,14.2827,14.3206,14.3206,14.3882,14.4421,14.4421,14.4413,14.4413,14.4413,14.3054,14.1764,14.1384,14.0625,13.9941,13.9941,13.9941,13.9941,13.9941,13.9941,13.9865,13.9476,13.903,13.8271,13.7056,13.6839,13.6536,13.5689,13.5625,13.5246,13.4335,13.4019,13.3563,13.3183,13.2804,13.2576,13.2576,13.2956,13.3183,13.3183,13.4082,13.4702,13.5018,13.5461,13.608,13.3092,13.5801,13.8468,13.3448,13.5431,13.6513,12.8685,12.9736,12.926,11.8226,11.9778,12.2232,11.9576,12.0028,12.111,12.1888,12.2116,12.2571,12.3464,12.4224,12.5076,12.5835,12.7201,12.8172,12.8415,12.9311,12.9828,12.9828,12.9828,12.9842,13.0056,13.0056,13.0056,13.0056,13.0678,13.1043,13.1043,13.1893,13.2348,13.2348,13.312,13.3563,13.3563,13.4335,13.5158,13.5841,13.5929,13.6448,13.7284,13.7284,13.7295,13.7522,13.8271,13.8564,13.8726,14.0159,14.0701,14.0928,14.1612,14.1991,14.1764,14.0093,14.0169,14.0852,14.0852,14.1384,14.2067,14.2067,14.2219,14.2295,14.2295,14.2979,14.3654,14.3654,14.4193,14.4801,14.4801,14.3822,14.2675,14.1764,14.0786,14.0169,13.9941,13.9865,13.9713,13.9713,13.9638,13.9258,13.8575,13.7815,13.6904,13.6145,13.5993,13.5689,13.4726,13.4714,13.4335,13.3576,13.3348,13.3032,13.2348,13.2196,13.212,13.212,13.2259,13.2348,13.2348,13.2487,13.288,13.3563,13.3563,13.4322,13.2905,13.2577,13.215,12.7854,12.7342,12.7704,12.706,12.3984,12.0935,11.9852,11.843,11.6975,11.5959,11.7597,11.9344,12.0142,12.094,12.1699,12.2553,12.3464,12.4224,12.5076,12.5362,12.6046,12.7549,12.84,12.8855,12.8855,12.8855,12.9159,13.0056,13.0056,13.0056,13.0056,13.0132,13.0193,13.0193,13.0981,13.1437,13.1437,13.2348,13.2715,13.2728,13.3563,13.3955,13.4095,13.479,13.5625,13.6437,13.6437,13.6828,13.7436,13.7587,13.7587,13.7598,13.7826,13.8433,13.9172,13.9248,13.9713,13.9951,13.8281,13.8347,13.9096,13.9096,13.9704,14.0321,14.0321,14.0852,14.1527,14.1527,14.2067,14.2675,14.2675,14.3358,14.3958,14.3958,14.4345,14.4193,14.2675,14.1697,14.0852,14.0093,13.941,13.8944,13.8944,13.8271,13.775,13.7598,13.6904,13.608,13.517,13.5018,13.4778,13.3955,13.3867,13.3563,13.2804,13.1969,13.1513,13.1437,13.0739,13.036,13.036,13.1043,13.1437,13.1437,13.2196,13.2652,13.2715,13.2715,13.3183,12.2771,12.437,12.6038,12.1754,12.2808,12.4437,12.2268,12.0013,11.7916,11.6256,11.5329,11.5036,11.5567,11.6989,11.8093,11.8473,11.8832,11.9535,12.0883,12.1414,12.2097,12.3464,12.4393,12.5303,12.6046,12.7261,12.8187,12.8643,12.8643,12.8855,12.9311,12.9767,13.0056,13.0056,13.0056,13.0056,13.0056,13.036,13.0526,13.0587,13.1437,13.1803,13.1893,13.2652,13.3107,13.3107,13.3411,13.4031,13.479,13.479,13.5309,13.608,13.66,13.6828,13.6828,13.7284,13.7663,13.8043,13.8043,13.8271,13.8433,13.7663,13.7739,13.8043,13.8043,13.8271,13.8509,13.8509,13.9182,13.9931,13.9931,14.0852,14.184,14.184,14.2514,14.3054,14.3054,14.3358,14.3215,14.2067,14.1156,14.0321,13.9476,13.902,13.8575,13.8108,13.7663,13.7067,13.6156,13.5309,13.4702,13.4322,13.3867,13.3411,13.3107,13.3107,13.2728,13.1893,13.1437,13.0754,12.9842,12.9402,12.9083,12.8628,12.8931,12.9326,12.9781,13.0222,13.083,13.1803,13.1803,13.2259,11.4609,11.6866,11.9543,11.5351,11.7399,11.9875,11.7937,11.6632,11.5413,11.4141,11.3639,11.3691,11.4754,11.574,11.6651,11.7051,11.7107,11.7693,11.944,11.9763,12.0427,12.166,12.3085,12.4224,12.4679,12.6046,12.7049,12.7716,12.7944,12.8172,12.84,12.922,12.9676,12.9676,12.9904,13.0056,13.0056,13.0056,13.0056,13.0056,13.0602,13.0967,13.0967,13.1803,13.2196,13.2196,13.2487,13.288,13.3411,13.3411,13.3791,13.4335,13.507,13.5309,13.5449,13.6221,13.6612,13.6688,13.6373,13.6373,13.646,13.646,13.6828,13.7132,13.7132,13.7295,13.7371,13.7371,13.7891,13.8488,13.8488,13.9552,14.0691,14.0691,14.1451,14.2219,14.2219,14.2304,14.2295,14.1764,14.0919,14.0159,13.9486,13.903,13.8488,13.7587,13.7284,13.6612,13.5106,13.4031,13.3411,13.3411,13.2942,13.2487,13.2196,13.2196,13.1741,13.0602,13.0587,12.9857,12.8415,12.84,12.8111,12.7549,12.7489,12.7792,12.84,12.84,12.9083,13.0298,13.0464,13.1057,11.3748,11.2876,11.23,10.8778,10.8738,11.0755,11.555,11.3469,11.1813,11.66,11.4897,11.2378,11.1619,11.2856,11.4374,11.6023,11.6272,11.6879,11.8585,11.9459,11.9971,12.0047,12.0883,12.2137,12.375,12.462,12.5135,12.5151,12.5835,12.6669,12.7549,12.8339,12.8794,12.8794,12.96,13.0056,13.0056,13.0056,13.0056,13.0056,13.0056,13.007,13.0132,13.0967,13.1285,13.1285,13.2196,13.2639,13.2652,13.2652,13.2652,13.2652,13.2728,13.2728,13.288,13.3639,13.4335,13.479,13.3335,13.3335,13.3955,13.3955,13.5006,13.6373,13.6373,13.6828,13.7371,13.7371,13.7511,13.7522,13.7522,13.826,13.8944,13.8944,14.0169,14.1384,14.1384,14.1991,14.2456,14.2456,14.1764,14.1299,14.1156,13.9865,13.8488,13.7587,13.6828,13.5929,13.5018,13.3563,13.2652,13.2652,13.2639,13.2196,13.1285,13.1285,13.0587,12.8931,12.8855,12.8415,12.764,12.7564,12.7549,12.7489,12.7489,12.7549,12.7564,12.7564,12.764,12.7716,12.8476,12.9311,10.6174,10.6473,10.6735,10.6069,10.6532,10.7797,11.0231,10.9887,10.9628,11.15,11.1757,11.1543,11.1239,11.215,11.3191,11.3799,11.4331,11.5036,11.623,11.7086,11.7921,11.906,11.9952,12.0883,12.2079,12.2477,12.3067,12.4148,12.4924,12.5759,12.6594,12.7489,12.7944,12.7944,12.8703,12.9159,12.9159,12.9767,13.0056,13.0056,13.0056,13.0056,13.0056,13.0298,13.0512,13.0512,13.0815,13.1209,13.1727,13.1727,13.2031,13.2576,13.2576,13.2576,13.2639,13.288,13.3183,13.3335,13.2728,13.2728,13.2956,13.2956,13.3398,13.3867,13.3867,13.4474,13.5018,13.5018,13.5853,13.6676,13.6676,13.7284,13.7891,13.7891,13.8347,13.902,13.9552,13.9931,14.0245,14.0701,14.0625,14.0463,14.0463,13.9486,13.8488,13.7587,13.7143,13.6373,13.4335,13.3183,13.2348,13.1741,13.1271,13.0815,13.0512,12.9918,12.9326,12.8703,12.8187,12.7504,12.6729,12.6594,12.6366,12.5894,12.5894,12.6122,12.6594,12.6594,12.6957,12.7489,12.7792,12.8157,10.0989,10.2052,10.3011,10.3218,10.4405,10.5594,10.6126,10.7139,10.7923,10.8227,10.9365,11.0352,11.0352,11.1087,11.1748,11.2051,11.253,11.3312,11.4504,11.5285,11.6403,11.7769,11.8832,11.9895,12.0731,12.0864,12.1338,12.2401,12.354,12.4468,12.5362,12.6214,12.6745,12.7033,12.7868,12.8248,12.8248,12.8916,12.9311,12.96,12.96,12.9767,13.0056,13.0056,13.0056,13.0056,13.0056,13.0298,13.0815,13.0815,13.1195,13.1727,13.1727,13.1727,13.1741,13.1969,13.1955,13.1727,13.1727,13.1893,13.212,13.212,13.2348,13.2576,13.2576,13.2942,13.3335,13.3335,13.4095,13.5006,13.5006,13.5765,13.6612,13.6612,13.7056,13.7587,13.826,13.8336,13.8499,13.8964,13.941,13.9552,13.9552,13.9324,13.902,13.8347,13.7815,13.6676,13.4474,13.2956,13.1893,13.1285,13.0284,12.96,12.96,12.8794,12.8172,12.7884,12.7337,12.6669,12.5835,12.5759,12.5531,12.4983,12.4983,12.5211,12.5759,12.5759,12.6062,12.6729,12.6957,12.7033,9.8938,9.985,10.096,10.0106,10.1748,10.3619,10.3668,10.4987,10.643,10.7215,10.7999,10.8606,10.8606,10.9417,11.0252,11.1011,11.1111,11.1771,11.3388,11.4374,11.5318,11.612,11.7673,11.8984,11.9744,11.982,11.9915,11.9971,12.1433,12.2799,12.375,12.451,12.5303,12.6062,12.7017,12.7473,12.7489,12.7489,12.7944,12.8643,12.8643,12.9144,12.9904,12.9904,13.0041,13.0056,13.0056,13.0056,13.0056,13.0056,13.0056,13.0056,13.0056,13.0056,13.0132,13.0905,13.0739,13.0056,13.0056,13.0526,13.1209,13.1209,13.1741,13.2487,13.2487,13.2487,13.2576,13.2576,13.2576,13.2576,13.2576,13.3728,13.479,13.479,13.608,13.7295,13.736,13.736,13.736,13.7371,13.8119,13.8726,13.8726,13.941,13.9865,13.9865,13.8499,13.6828,13.5297,13.2866,13.1209,13.1119,12.9629,12.8643,12.8643,12.7944,12.7049,12.6214,12.6079,12.5818,12.5059,12.4983,12.4924,12.4924,12.4924,12.4924,12.4907,12.4907,12.4907,12.4924,12.5759,12.6062,9.6994,9.7724,9.8681,9.9014,9.9622,10.0305,10.0913,10.1824,10.2887,10.3646,10.4963,10.6405,10.7544,10.8455,10.9341,11.0176,11.086,11.1339,11.1794,11.2682,11.3799,11.5242,11.5795,11.6175,11.6403,11.741,11.8605,11.982,12.037,12.1281,12.2781,12.3026,12.354,12.4451,12.5287,12.5986,12.6518,12.7185,12.764,12.7868,12.7868,12.7944,12.8232,12.8232,12.8476,12.9083,12.9767,13.0056,13.0056,13.0056,13.0056,13.0056,13.0056,13.0056,13.0056,13.0284,13.0284,13.0056,13.0056,13.0132,13.036,13.036,13.0526,13.0739,13.0739,13.1119,13.1575,13.1575,13.212,13.2576,13.2576,13.288,13.3183,13.3183,13.3563,13.4246,13.5461,13.5753,13.6133,13.7208,13.7598,13.7815,13.7815,13.7978,13.8119,13.8119,13.7284,13.6448,13.5981,13.3778,13.1499,12.9553,12.8931,12.8415,12.7929,12.7033,12.6442,12.6214,12.5607,12.5211,12.4983,12.4983,12.4679,12.4148,12.4148,12.3768,12.3178,12.3178,12.3482,12.4148,12.4375,12.4755,9.6008,9.666,9.6964,9.6736,9.7192,9.7829,9.8285,9.909,10.0049,10.114,10.2507,10.395,10.562,10.7215,10.8455,10.9341,11.0176,11.086,11.1163,11.1619,11.2507,11.3875,11.3669,11.3593,11.3951,11.5491,11.6858,11.7845,11.8529,11.9668,12.1299,12.1414,12.2022,12.3236,12.3709,12.4165,12.462,12.5531,12.6122,12.6501,12.6805,12.7185,12.7489,12.7489,12.7777,12.8187,12.8703,12.8992,12.8992,12.9372,12.9448,12.9539,12.9842,13.0056,12.9904,12.922,12.8992,12.8992,12.8992,12.8992,12.9068,12.9372,12.9448,12.9539,12.9904,13.036,13.0739,13.0739,13.1057,13.1499,13.1499,13.1741,13.1969,13.1969,13.2348,13.2866,13.3854,13.4082,13.4386,13.5689,13.6156,13.66,13.6904,13.7208,13.7143,13.646,13.5993,13.5537,13.5234,13.3955,13.2196,12.9994,12.9448,12.8628,12.7049,12.6138,12.5666,12.5666,12.5211,12.4848,12.4468,12.451,12.4148,12.3254,12.3236,12.3009,12.2495,12.2495,12.2723,12.3236,12.3236,12.3312,9.5097,9.5552,9.5173,9.3927,9.461,9.5704,0.0,9.6509,9.7572,9.9043,10.0229,10.1492,10.3087,10.5469,10.7392,10.8151,10.9189,11.01,11.0807,11.1011,11.1391,11.2203,11.1619,11.1543,11.2279,11.3875,11.4862,11.5036,11.6403,11.7866,11.9535,11.9687,12.0446,12.2116,12.2116,12.2267,12.2495,12.3236,12.3996,12.4696,12.5379,12.6214,12.6957,12.7033,12.7185,12.7261,12.7321,12.7473,12.7564,12.8248,12.8567,12.8628,12.9448,12.9676,12.9448,12.802,12.7489,12.7489,12.7489,12.7489,12.764,12.8339,12.8567,12.8703,12.9539,12.9828,12.9842,12.9842,12.9904,13.0056,13.0056,13.0587,13.1057,13.1057,13.1727,13.2348,13.2411,13.2424,13.2652,13.3411,13.4246,13.507,13.5905,13.66,13.646,13.4942,13.4651,13.4335,13.3728,13.3563,13.288,13.1347,13.0374,12.8916,12.6518,12.5531,12.4924,12.4907,12.4848,12.451,12.3692,12.3692,12.3236,12.221,12.2116,12.2058,12.1888,12.1888,12.1946,12.204,12.204,12.1566,0.0,0.0,0.0,0.0,0.0,0.0,0.0,9.3851,9.4762,9.5795,9.7724,9.9546,10.0485,10.3294,10.5495,10.5646,10.7544,10.8986,10.9138,10.9797,11.0328,11.0532,11.0936,11.1315,11.1467,11.2431,11.3593,11.5014,11.534,11.6196,11.7845,11.7866,11.87,12.037,12.0427,12.111,12.2495,12.2629,12.2799,12.2951,12.3044,12.3254,12.3482,12.4224,12.4907,12.5531,12.6138,12.6821,12.7549,12.7656,12.7716,12.7777,12.7944,12.7504,12.6973,12.7337,12.7489,12.7489,12.7489,12.7489,12.7549,12.7716,12.7716,12.7777,12.7944,12.846,12.8931,12.8931,12.9448,13.0056,13.0056,13.0132,13.0284,13.0284,13.036,13.0739,13.1285,13.1499,13.1741,13.2652,13.2942,13.3335,13.4095,13.4322,13.4095,13.3183,13.3032,13.2956,13.2866,13.2183,13.1575,13.1271,12.9842,12.8476,12.7337,12.5835,12.4679,12.4148,12.4054,12.3692,12.2781,12.2723,12.204,12.0446,12.0427,11.9763,11.8341,11.8341,11.8776,11.9516,11.9516,11.8661,0.0,0.0,0.0,0.0,0.0,0.0,0.0,0.0,0.0,0.0,0.0,9.5977,9.7268,0.0,10.2838,10.4178,10.5722,10.724,10.853,10.9062,10.9189,10.8809,10.9113,10.9721,11.0556,11.1391,11.2226,11.3115,11.3571,11.4558,11.6175,11.6251,11.6955,11.8568,11.87,11.908,11.9971,12.0825,12.1148,12.1205,12.204,12.2495,12.2495,12.2951,12.3406,12.3709,12.4165,12.4561,12.4983,12.4983,12.5287,12.565,12.5135,12.4696,12.4393,12.4848,12.4983,12.4983,12.4983,12.4983,12.5076,12.5574,12.5894,12.635,12.6729,12.7428,12.8111,12.8111,12.846,12.8764,12.8764,12.9083,12.9387,12.9387,12.9676,13.0132,13.0526,13.0602,13.083,13.1741,13.1893,13.2183,13.3032,13.2804,13.2437,13.2576,13.2576,13.2424,13.1969,13.1499,13.1209,13.1209,12.9629,12.8703,12.8764,12.6805,12.5379,12.4983,12.4224,12.3236,12.1927,12.1414,12.0427,11.8756,11.8301,11.7866,11.741,11.6651,11.6651,11.7466,11.623,11.5698,0.0,0.0,0.0,0.0,0.0,0.0,0.0,0.0,0.0,0.0,0.0,0.0,0.0,0.0,0.0,10.2252,10.3646,10.5191,10.7164,10.7468,10.7316,10.6835,10.7063,10.7822,10.9113,11.0024,11.0632,11.0936,11.1672,11.2788,11.4504,11.458,11.5318,11.6879,11.6955,11.7107,11.741,11.8776,11.9459,11.9459,12.0825,0.0,12.1509,12.166,12.1794,12.1755,12.1888,12.2097,12.2267,12.2267,12.2781,12.3464,12.204,12.1584,12.1755,12.1888,12.1982,12.1982,12.1982,12.1982,12.2116,12.3067,12.3768,12.4451,12.5151,12.6062,0.0,12.7017,12.6267,12.5453,12.5528,12.5066,12.4609,12.4609,12.5186,12.606,12.7365,12.7774,12.8491,13.0341,13.083,13.1271,13.2183,13.1437,13.1057,13.2183,13.2348,13.212,13.1513,13.1285,13.1209,13.1209,12.9842,12.9144,12.9524,12.764,12.6214,12.5759,12.4375,12.2781,12.111,11.9895,11.8624,11.741,11.6348,11.6044,11.6672,11.5264,11.4884,11.5491,11.2758,11.2454,0.0,0.0,0.0,0.0,0.0,0.0,0.0,0.0,0.0,0.0,0.0,0.0,0.0,0.0,0.0,0.0,10.0761,10.2887,10.3066,10.3191,10.3418,10.4151,10.5518,10.6582,10.6683,10.7443,10.8506,11.0024,11.0304,11.1064,11.2735,11.2887,0.0,0.0,0.0,11.6023,11.7355,11.7582,11.7693,11.7658,11.7866,11.8017,11.8017,11.8776,11.9212,11.9212,11.9915,12.0655,12.1395,12.1395,12.187,12.2325,11.9232,11.8529,11.9288,11.9971,12.0218,12.0218,12.0218,0.0,0.0,12.1244,12.1623,12.1851,12.2629,12.3482,12.4375,12.5076,12.1595,11.7833,11.8542,11.4423,11.0069,11.0069,11.0135,11.1824,11.7727,11.9658,12.1959,12.7834,12.9615,13.045,13.1209,13.0009,12.9539,13.1057,13.1347,13.1665,13.2348,13.1727,13.1209,13.1209,13.0374,0.0,12.7944,12.7549,12.6409,12.4224,12.3178,12.187,12.0142,11.7866,11.6879,11.7355,11.5209,11.4071,11.4093,11.3213,11.2887,11.2887,10.9569,10.8961,0.0,0.0,0.0,0.0,0.0,0.0,0.0,0.0,0.0,0.0,0.0,0.0,0.0,0.0,0.0,0.0,9.8074,9.9242,9.8301,9.8559,9.9499,10.1368,10.2583,10.3771,10.4759,10.5544,10.6532,10.7797,10.7873,10.8582,11.0176,11.0836,11.1596,11.2758,11.3343,11.3897,11.458,11.5036,11.5513,11.6023,11.6499,11.6955,11.741,11.779,11.8017,11.8017,11.8321,11.87,11.906,11.906,11.9232,11.9232,0.0,0.0,0.0,0.0,11.7638,11.8473,11.8473,11.8473,11.8549,11.8928,11.944,11.9895,12.0199,12.1244,12.2383,12.2763,12.146,11.9163,11.579,11.325,11.0612,10.6867,10.665,10.804,11.0838,11.1926,11.4398,12.0973,12.2613,0.0,12.7581,12.8476,12.9098,13.036,13.0967,13.1513,13.2424,13.1741,13.1437,13.1955,13.036,12.9159,12.8992,12.7564,0.0,0.0,0.0,12.1888,12.0731,11.7845,0.0,0.0,0.0,11.1543,11.1543,10.9797,0.0,0.0,10.8606,10.853,0.0,0.0,0.0,0.0,0.0,0.0,0.0,0.0,0.0,0.0,0.0,0.0,0.0,0.0,0.0,0.0,9.5263,9.587,9.4807,9.5142,9.6387,9.8664,9.9698,10.0808,10.2252,10.3342,10.433,10.5165,10.5518,10.6304,10.7923,10.8658,10.9417,11.0428,11.1087,11.1748,11.2203,11.2705,11.3441,11.4352,11.5014,11.5546,11.6044,11.6044,11.5913,11.5686,11.5686,11.5686,11.5686,11.5686,11.5892,11.5795,11.2963,11.215,11.2856,11.3669,11.4732,11.574,11.5968,11.6044,11.612,11.6348,11.6879,11.7445,11.7673,11.8756,11.9952,12.018,11.827,11.5199,11.0821,10.7691,10.4559,9.9939,9.9695,10.105,10.2913,10.3787,10.6661,11.5059,11.4904,11.5399,12.1572,12.3909,12.5276,12.6439,12.6006,12.5926,12.6781,12.6373,12.6858,12.9039,12.737,12.6855,12.8809,12.7033,12.5607,12.5151,12.3026,12.1186,11.9952,11.7597,11.458,11.0936,10.9873,10.9569,0.0,0.0,0.0,0.0,0.0,0.0,0.0,0.0,0.0,0.0,0.0,0.0,0.0,0.0,0.0,0.0,0.0,0.0,0.0,0.0,0.0,0.0,0.0,0.0,9.3623,9.3775,9.4458,9.6159,9.7116,9.7998,9.8862,10.0381,10.1672,10.2507,10.3391,10.4607,10.6354,10.643,10.7139,10.8682,10.8758,10.9593,11.1239,11.1187,11.1695,11.2659,11.2659,11.2712,11.2712,11.2712,11.2203,11.1391,11.1391,11.1391,11.1391,11.1391,11.1923,11.2507,11.076,11.0152,11.0252,11.1011,11.1391,11.1543,11.2431,11.2712,11.2834,11.3593,11.3843,11.4071,11.4884,11.5774,11.6499,11.7334,10.9299,10.0601,10.125,9.2719,8.3932,8.3694,8.4103,8.6276,9.2698,9.4708,9.9019,11.1923,10.8132,10.5059,11.2461,11.4697,11.6126,11.7745,11.4255,0.0,11.2522,11.2842,11.4999,12.0333,12.0127,12.1455,12.5903,12.5531,12.4375,12.2723,12.0958,11.8984,11.6479,11.6251,11.4331,11.01,10.843,10.8354,11.0076,0.0,0.0,0.0,0.0,0.0,0.0,0.0,0.0,0.0,0.0,0.0,0.0,0.0,0.0,0.0,0.0,0.0,0.0,0.0,0.0,0.0,0.0,0.0,0.0,9.1985,9.2668,9.4338,9.5339,9.5795,9.5446,9.7466,9.8985,9.9166,10.0001,10.1188,10.2935,10.3418,10.4254,10.5442,10.6532,10.7367,10.7974,10.8986,10.9669,11.0024,11.1087,11.1619,11.1695,11.2279,11.2051,11.1239,11.1239,11.0936,11.0404,11.0404,10.9265,10.7519,10.6861,10.7063,10.7721,10.8986,10.9948,11.0632,11.2051,11.2507,11.256,11.2887,11.2963,11.2986,11.3343,11.1211,10.88,10.9216,10.4041,9.755,9.4012,9.0083,8.6022,8.211,8.165,8.268,8.501,8.5932,8.8964,9.7731,9.6625,9.6417,10.312,10.6235,10.8246,10.9772,10.977,11.0068,11.1293,11.1355,11.2069,11.3869,11.241,11.1887,11.3091,11.5914,11.7232,11.6196,11.7474,11.7866,11.7107,11.3843,11.1467,11.0076,10.7822,10.6683,10.6633,0.0,0.0,0.0,0.0,0.0,0.0,0.0,0.0,0.0,0.0,0.0,0.0,0.0,0.0,0.0,0.0,0.0,0.0,0.0,0.0,0.0,0.0,0.0,0.0,0.0,0.0,9.3547,9.3971,0.0,9.332,9.5111,9.625,9.625,9.6964,9.815,9.9897,10.0381,10.1216,10.2404,10.3771,10.4683,10.4937,10.6304,10.7215,10.7847,10.8961,10.9645,10.9948,11.0784,11.0708,10.9873,10.9873,10.9417,10.8633,10.7671,10.6076,10.4053,10.3749,10.4178,10.5089,10.6456,10.7291,10.8101,11.0076,10.9375,10.7619,10.7724,10.6291,10.4523,10.4523,10.2472,10.0177,10.0451,9.6981,9.2338,8.8903,8.6479,8.4079,8.0256,7.9884,8.0359,8.0359,8.0611,8.1991,8.5872,8.7975,9.049,9.4852,9.7419,9.9355,10.0729,10.0916,10.1331,10.2538,10.3179,10.4261,10.6071,10.4647,10.4228,10.5638,10.8034,11.0222,11.1985,11.2881,11.4047,11.5665,11.1999,10.9621,10.8709,10.719,10.5696,0.0,0.0,0.0,0.0,0.0,0.0,0.0,0.0,0.0,0.0,0.0,0.0,0.0,0.0,0.0,0.0,0.0,0.0,0.0,0.0,0.0,0.0,0.0,0.0,0.0,0.0,0.0,9.3395,9.2788,0.0,0.0,0.0,0.0,9.3547,9.4351,9.5567,9.7314,9.739,9.8103,9.9727,10.0609,10.1444,10.2279,10.3163,10.4455,10.6,10.6126,10.6532,10.7291,10.8075,10.8075,10.7367,10.7367,10.6911,10.5974,10.3342,10.2279,10.2203,10.1368,10.152,10.2307,10.292,10.3201,10.353,10.5726,10.286,9.8302,9.8562,9.4689,8.9925,8.9861,9.026,0.0,0.0,8.8121,8.4625,8.532,8.1618,7.7644,7.7696,7.817,7.8585,7.8585,7.8585,7.8274,7.7027,8.2081,8.6709,8.729,0.0,8.9491,9.0705,8.8211,8.6363,8.7117,8.9077,9.2236,9.689,9.6862,9.8314,10.2949,10.188,10.3369,10.9145,10.7202,10.7638,11.1847,11.0603,10.8658,10.6354,10.6202,0.0,0.0,0.0,0.0,0.0,0.0,0.0,0.0,0.0,0.0,0.0,0.0,0.0,0.0,0.0,0.0,0.0,0.0,0.0,0.0,0.0,0.0,0.0,0.0,0.0,0.0,8.8004,8.8688,9.0738,9.0249,8.9565,0.0,0.0,0.0,0.0,0.0,0.0,9.461,9.4686,9.5446,9.7146,9.8027,9.8862,9.9698,10.1188,10.1748,10.1548,10.3543,10.4227,10.3798,10.5267,10.5798,10.557,10.5063,10.4607,10.4151,10.0989,9.9698,9.9622,9.8787,9.8681,9.8489,9.5713,9.5025,9.5186,9.3719,9.2521,9.1701,9.1753,9.0691,8.9215,8.8383,0.0,0.0,0.0,0.0,7.5536,7.7037,7.6659,7.6144,7.6975,7.7339,7.7391,7.7391,7.7391,7.6819,0.0,7.582,7.7202,7.7849,0.0,0.0,0.0,0.0,8.4195,8.5118,8.6948,8.8606,8.9899,8.9131,8.859,8.9063,9.216,9.3992,9.3803,10.0305,10.4151,10.4407,10.63,10.6607,10.5343,0.0,0.0,0.0,0.0,0.0,0.0,0.0,0.0,0.0,0.0,0.0,0.0,0.0,0.0,0.0,0.0,0.0,0.0,0.0,0.0,0.0,0.0,0.0,0.0,0.0,0.0,0.0,8.565,8.6941,8.8646,8.8536,8.808,0.0,0.0,0.0,0.0,0.0,0.0,0.0,0.0,0.0,9.461,9.5795,9.6706,9.7162,9.9213,10.0077,9.9954,10.1748,10.2583,10.2507,10.3874,10.4254,10.3825,10.3342,10.2632,10.1416,9.9166,9.7799,9.704,0.0,0.0,0.0,0.0,9.032,9.0497,8.7533,8.5182,8.3631,8.3733,0.0,0.0,0.0,0.0,0.0,0.0,0.0,7.1675,7.2924,7.3859,7.4638,7.5261,7.5412,7.5412,7.5412,7.4694,7.3654,0.0,7.2041,7.2301,7.308,0.0,0.0,0.0,0.0,8.2689,8.4039,8.5753,8.6896,8.6896,8.6013,8.4974,8.3582,8.5384,8.6996,8.7812,9.4533,9.9102,10.0345,10.1397,10.1357,0.0,0.0,0.0,0.0,0.0,0.0,0.0,0.0,0.0,0.0,0.0,0.0,0.0,0.0,0.0,0.0,0.0,0.0,0.0,0.0,0.0,0.0,0.0,0.0,0.0,0.0,0.0,0.0,0.0,8.5726,8.6673,0.0,0.0,0.0,0.0,0.0,0.0,0.0,0.0,0.0,0.0,0.0,0.0,0.0,9.432,9.4548,9.6736,9.8255,9.8816,9.9926,10.0761,10.1368,10.2252,10.2404,10.1976,10.152,0.0,9.8027,9.7116,0.0,0.0,0.0,0.0,0.0,0.0,0.0,0.0,0.0,0.0,0.0,0.0,0.0,0.0,0.0,0.0,0.0,0.0,0.0,0.0,0.0,0.0,7.3025,7.3025,7.308,7.308,7.2872,7.1314,6.9964,6.9964,6.9912,0.0,0.0,0.0,0.0,0.0,0.0,0.0,8.3104,8.4922,8.6,8.6104,8.5585,8.461,8.301,8.1234,8.1887,8.5849,8.9036,9.241,9.6052,9.5425,0.0,0.0,0.0,0.0,0.0,0.0,0.0,0.0,0.0,0.0,0.0,0.0,0.0,0.0,0.0,0.0,0.0,0.0,0.0,0.0,0.0,0.0,0.0,0.0,0.0,0.0,0.0,0.0,0.0,0.0,0.0,0.0,0.0,0.0,0.0,0.0,0.0,0.0,0.0,0.0,0.0,0.0,0.0,0.0,0.0,0.0,0.0,0.0,0.0,0.0,9.5035,9.5795,9.5294,9.6129,9.7572,9.9242,9.6433,9.499,9.4458,9.2896,0.0,0.0,0.0,0.0,0.0,0.0,0.0,0.0,0.0,0.0,0.0,0.0,0.0,0.0,0.0,0.0,0.0,0.0,0.0,0.0,0.0,0.0,7.0743,7.0743,7.1107,7.1054,6.96,0.0,0.0,0.0,0.0,0.0,0.0,0.0,0.0,0.0,0.0,0.0,8.0654,8.2844,8.4403,8.4806,8.4403,8.3572,8.2263,8.0663,7.9154,7.8102,8.1583,8.3351,0.0,0.0,0.0,0.0,0.0,0.0,0.0,0.0,0.0,0.0,0.0,0.0,0.0,0.0,0.0,0.0,0.0,0.0,0.0,0.0,0.0,0.0,0.0,0.0,0.0,0.0,0.0,0.0,0.0,0.0,0.0,0.0,0.0,0.0,0.0,0.0,0.0,0.0,0.0,0.0,0.0,0.0,0.0,0.0,0.0,0.0,0.0,0.0,0.0,0.0,0.0,0.0,0.0,0.0,0.0,0.0,0.0,0.0,0.0,9.2365,0.0,0.0,0.0,0.0,0.0,0.0,0.0,0.0,0.0,0.0,0.0,0.0,0.0,0.0,0.0,0.0,0.0,0.0,0.0,0.0,0.0,0.0,0.0,0.0,0.0,0.0,0.0,0.0,0.0,0.0,0.0,0.0,0.0,0.0,0.0,0.0,0.0,0.0,0.0,0.0,7.9928,8.1598,8.2896,8.4039,8.3935,8.3052,8.1277,8.0083,7.8378,7.5776,7.8922,0.0,0.0,0.0,0.0,0.0,0.0,0.0,0.0,0.0,0.0,0.0,0.0,0.0,0.0,0.0,0.0,0.0,0.0,0.0,0.0,0.0,0.0,0.0,0.0,0.0,0.0,0.0,0.0,0.0,0.0,0.0,0.0,0.0,0.0,0.0,0.0,0.0,0.0,0.0,0.0,0.0,0.0,0.0,0.0,0.0,0.0,0.0,0.0,0.0,0.0,0.0,0.0,0.0,0.0,0.0,0.0,0.0,0.0,0.0,9.1682,0.0,0.0,0.0,0.0,0.0,0.0,0.0,0.0,0.0,0.0,0.0,0.0,0.0,0.0,0.0,0.0,0.0,0.0,0.0,0.0,0.0,0.0,0.0,0.0,0.0,0.0,0.0,0.0,0.0,0.0,0.0,0.0,0.0,0.0,0.0,0.0,0.0,0.0,0.0,0.0,0.0,7.9305,8.0507,8.1702,8.3416,8.3468,8.2585,8.0447,7.9572,7.7962,7.5205,7.7005,0.0,0.0,0.0,0.0,0.0,0.0,0.0,0.0,0.0,0.0,0.0,0.0,0.0,0.0,0.0,0.0,0.0,0.0,0.0,0.0,0.0,0.0,0.0,0.0,0.0,0.0,0.0,0.0,0.0,0.0,0.0,0.0,0.0,0.0,0.0,0.0,0.0,0.0,0.0,0.0,0.0,0.0,0.0,0.0,0.0,0.0,0.0,0.0,0.0,0.0,0.0,0.0,0.0,0.0,0.0,0.0,0.0,0.0,0.0,0.0,0.0,0.0,0.0,0.0,0.0,0.0,0.0,0.0,0.0,0.0,0.0,0.0,0.0,0.0,0.0,0.0,0.0,0.0,0.0,0.0,0.0,0.0,0.0,0.0,0.0,0.0,0.0,0.0,0.0,0.0,0.0,0.0,0.0,0.0,0.0,0.0,0.0,0.0,0.0,0.0,0.0,7.754,7.9409,8.1078,8.2906,8.2585,8.164,8.0395,7.8838,7.6917,7.4642,0.0,0.0,0.0,0.0,0.0,0.0,0.0,0.0,0.0,0.0,0.0,0.0,0.0,0.0,0.0,0.0,0.0,0.0,0.0,0.0,0.0,0.0,0.0,0.0,0.0,0.0,0.0,0.0,0.0,0.0,0.0,0.0,0.0,0.0,0.0,0.0,0.0,0.0,0.0,0.0,0.0,0.0,0.0,0.0,0.0,0.0,0.0,0.0,0.0,0.0,0.0,0.0,0.0,0.0,0.0,0.0,0.0,0.0,0.0,0.0,0.0,0.0,0.0,0.0,0.0,0.0,0.0,0.0,0.0,0.0,0.0,0.0,0.0,0.0,0.0,0.0,0.0,0.0,0.0,0.0,0.0,0.0,0.0,0.0,0.0,0.0,0.0,0.0,0.0,0.0,0.0,0.0,0.0,0.0,0.0,0.0,0.0,0.0,0.0,0.0,0.0,0.0,7.6347,7.7904,7.9461,8.1173,8.113,8.0395,7.889,7.8104,7.6502,7.355,0.0,0.0,0.0,0.0,0.0,0.0,0.0,0.0,0.0,0.0,0.0,0.0,0.0,0.0,0.0,0.0,0.0,0.0,0.0,0.0,0.0,0.0,0.0,0.0,0.0,0.0,0.0,0.0,0.0,0.0,0.0,0.0,0.0,0.0,0.0,0.0,0.0,0.0,0.0,0.0,0.0,0.0,0.0,0.0,0.0,0.0,0.0,0.0,0.0,0.0,0.0,0.0,0.0,0.0,0.0,0.0,0.0,0.0,0.0,0.0,0.0,0.0,0.0,0.0,0.0,0.0,0.0,0.0,0.0,0.0,0.0,0.0,0.0,0.0,0.0,0.0,0.0,0.0,0.0,0.0,0.0,0.0,0.0,0.0,0.0,0.0,0.0,0.0,0.0,0.0,0.0,0.0,0.0,0.0,0.0,0.0,0.0,0.0,0.0,0.0,0.0,0.0,7.5412,7.6917,7.8371,8.0083,8.0135,7.9461,7.7904,7.743,7.5828,7.2667,0.0,0.0,0.0,0.0,0.0,0.0,0.0,0.0,0.0,0.0,0.0,0.0,0.0,0.0,0.0,0.0,0.0,0.0,0.0,0.0,0.0,0.0,0.0,0.0,0.0,0.0,0.0,0.0,0.0,0.0,0.0,0.0,0.0,0.0,0.0,0.0,0.0,0.0,0.0,0.0,0.0,0.0,0.0,0.0,0.0,0.0,0.0,0.0,0.0,0.0,0.0,0.0,0.0,0.0,0.0,0.0,0.0,0.0,0.0,0.0,0.0,0.0,0.0,0.0,0.0,0.0,0.0,0.0,0.0,0.0,0.0,0.0,0.0,0.0,0.0,0.0,0.0,0.0,0.0,0.0,0.0,0.0,0.0,0.0,0.0,0.0,0.0,0.0,0.0,0.0,0.0,0.0,0.0,0.0,0.0,0.0,0.0,0.0,0.0,0.0,0.0,0.0,7.4794,7.671,7.8371,8.0083,7.9824,7.9045,7.7852,7.671,7.4785,0.0,0.0,0.0,0.0,0.0,0.0,0.0,0.0,0.0,0.0,0.0,0.0,0.0,0.0,0.0,0.0,0.0,0.0,0.0,0.0,0.0,0.0,0.0,0.0,0.0,0.0,0.0,0.0,0.0,0.0,0.0,0.0,0.0,0.0,0.0,0.0,0.0,0.0,0.0,0.0,0.0,0.0,0.0,0.0,0.0,0.0,0.0,0.0,0.0,0.0,0.0,0.0,0.0,0.0,0.0,0.0,0.0,0.0,0.0,0.0,0.0,0.0,0.0,0.0,0.0,0.0,0.0,0.0,0.0,0.0,0.0,0.0,0.0,0.0,0.0,0.0,0.0,0.0,0.0,0.0,0.0,0.0,0.0,0.0,0.0,0.0,0.0,0.0,0.0,0.0,0.0,0.0,0.0,0.0,0.0,0.0,0.0,0.0,0.0,0.0,0.0,0.0,0.0,7.3703,7.5936,7.7754,0.0,7.9112,7.8481,7.7339,7.6502,7.4634,7.1416,0.0,0.0,0.0,0.0,0.0,0.0,0.0,0.0,0.0,0.0,0.0,0.0,0.0,0.0,0.0,0.0,0.0,0.0,0.0,0.0,0.0,0.0,0.0,0.0,0.0,0.0,0.0,0.0,0.0,0.0,0.0,0.0,0.0,0.0,0.0,0.0,0.0,0.0,0.0,0.0,0.0,0.0,0.0,0.0,0.0,0.0,0.0,0.0,0.0,0.0,0.0,0.0,0.0,0.0,0.0,0.0,0.0,0.0,0.0,0.0,0.0,0.0,0.0,0.0,0.0,0.0,0.0,0.0,0.0,0.0,0.0,0.0,0.0,0.0,0.0,0.0,0.0,0.0,0.0,0.0,0.0,0.0,0.0,0.0,0.0,0.0,0.0,0.0,0.0,0.0,0.0,0.0,0.0,0.0,0.0,0.0,0.0,0.0,0.0,0.0,0.0,0.0,0.0,7.5309,7.7125,0.0,7.854,7.791,7.671,7.5936,7.4066,7.0899,0.0,0.0,0.0,0.0,0.0,0.0,0.0,0.0,0.0,0.0,0.0,0.0,0.0,0.0,0.0,0.0,0.0,0.0,0.0,0.0,0.0,0.0,0.0,0.0,0.0,0.0,0.0,0.0,0.0,0.0,0.0,0.0,0.0,0.0,0.0,0.0,0.0,0.0,0.0,0.0,0.0,0.0,0.0,0.0,0.0,0.0,0.0,0.0,0.0,0.0,0.0,0.0,0.0,0.0,0.0,0.0,0.0,0.0,0.0,0.0,0.0,0.0,0.0,0.0,0.0,0.0,0.0,0.0,0.0,0.0,0.0,0.0,0.0,0.0,0.0,0.0,0.0,0.0,0.0,0.0,0.0,0.0,0.0,0.0,0.0,0.0,0.0,0.0,0.0,0.0,0.0,0.0,0.0,0.0,0.0,0.0,0.0,0.0,0.0,0.0,0.0,0.0,0.0,7.4889,7.6606,7.8481,7.8118,7.7281,7.6139,7.5001,7.3137,7.0276,6.8508,0.0,0.0,0.0,0.0,0.0,0.0,0.0,0.0,0.0,0.0,0.0,0.0,0.0,0.0,0.0,0.0,0.0,0.0,0.0,0.0,0.0,0.0,0.0,0.0,0.0,0.0,0.0,0.0,0.0,0.0,0.0,0.0,0.0,0.0,0.0,0.0,0.0,0.0,0.0,0.0,0.0,0.0,0.0,0.0,0.0,0.0,0.0,0.0,0.0,0.0,0.0,0.0,0.0,0.0,0.0,0.0,0.0,0.0,0.0,0.0,0.0,0.0,0.0,0.0,0.0,0.0,0.0,0.0,0.0,0.0,0.0,0.0,0.0,0.0,0.0,0.0,0.0,0.0,0.0,0.0,0.0,0.0,0.0,0.0,0.0,0.0,0.0,0.0,0.0,0.0,0.0,0.0,0.0,0.0,0.0,0.0,0.0,0.0,0.0,0.0,0.0,0.0,7.4378,7.6087,7.7806,7.7488,7.6866,7.6082,7.4222,7.2095,6.96,6.7886,0.0,0.0,0.0,0.0,0.0,0.0,0.0,0.0,0.0,0.0,0.0,0.0,0.0,0.0,0.0,0.0,0.0,0.0,0.0,0.0,0.0,0.0,0.0,0.0,0.0,0.0,0.0,0.0,0.0,0.0,0.0,0.0,0.0,0.0,0.0,0.0,0.0,0.0,0.0,0.0,0.0,0.0,0.0,0.0,0.0,0.0,0.0,0.0,0.0,0.0,0.0,0.0,0.0,0.0,0.0,0.0,0.0,0.0,0.0,0.0,0.0,0.0,0.0,0.0,0.0,0.0,0.0,0.0,0.0,0.0,0.0,0.0,0.0,0.0,0.0,0.0,0.0,0.0,0.0,0.0,0.0,0.0,0.0,0.0,0.0,0.0,0.0,0.0,0.0,0.0,0.0,0.0,0.0,0.0,0.0,0.0,0.0,0.0,0.0,0.0,0.0,0.0,7.1521,7.3959,7.6652,7.6502,7.5776,7.4945,7.3025,7.0794,6.8198,6.6483,0.0,0.0,0.0,0.0,0.0,0.0,0.0,0.0,0.0,0.0,0.0,0.0,0.0,0.0,0.0,0.0,0.0,0.0,0.0,0.0,0.0,0.0,0.0,0.0,0.0,0.0,0.0,0.0,0.0,0.0,0.0,0.0,0.0,0.0,0.0,0.0,0.0,0.0,0.0,0.0,0.0,0.0,0.0,0.0,0.0,0.0,0.0,0.0,0.0,0.0,0.0,0.0,0.0,0.0,0.0,0.0,0.0,0.0,0.0,0.0,0.0,0.0,0.0,0.0,0.0,0.0,0.0,0.0,0.0,0.0,0.0,0.0,0.0,0.0,0.0,0.0,0.0,0.0,0.0,0.0,0.0,0.0,0.0,0.0,0.0,0.0,0.0,0.0,0.0,0.0,0.0,0.0,0.0,0.0,0.0,0.0,0.0,0.0,0.0,0.0,0.0,0.0,0.0,7.1315,7.4841,7.5153,7.4634,7.3599,7.1727,6.9496,6.6849,0.0,0.0,0.0,0.0,0.0,0.0,0.0,0.0,0.0,0.0,0.0,0.0,0.0,0.0,0.0,0.0,0.0,0.0,0.0,0.0,0.0,0.0,0.0,0.0,0.0,0.0,0.0,0.0,0.0,0.0,0.0,0.0,0.0,0.0,0.0,0.0,0.0,0.0,0.0,0.0,0.0,0.0,0.0,0.0,0.0,0.0,0.0,0.0,0.0,0.0,0.0,0.0,0.0,0.0,0.0,0.0,0.0,0.0,0.0,0.0,0.0,0.0,0.0,0.0,0.0,0.0,0.0,0.0,0.0,0.0,0.0,0.0,0.0,0.0,0.0,0.0,0.0,0.0,0.0,0.0,0.0,0.0,0.0,0.0,0.0,0.0,0.0,0.0,0.0,0.0,0.0,0.0,0.0,0.0,0.0,0.0,0.0,0.0,0.0,0.0,0.0,0.0,0.0,0.0,0.0,7.1521,7.3443,7.4278,7.3544,7.1054,6.8665,6.6797,0.0,0.0,0.0,0.0,0.0,0.0,0.0,0.0,0.0,0.0,0.0,0.0,0.0,0.0]}]]]